Time,TemperatureF,DewpointF,PressureIn,WindDirection,WindDirectionDegrees,WindSpeedMPH,WindSpeedGustMPH,Humidity,HourlyPrecipIn,Conditions,Clouds,dailyrainin,SoftwareType,DateUTC
2013-03-02 00:00:00,25.9,6.5,0.00,WNW,298,0.0,0.0,43,0.00,,---,0.00,VWS V14.00,2013-03-02 07:00:00,
2013-03-02 00:01:00,27.1,6.6,0.00,West,270,0.0,0.0,41,0.00,,---,0.00,VWS V14.00,2013-03-02 07:01:00,
2013-03-02 00:02:00,27.0,6.4,0.00,West,270,0.0,0.0,41,0.00,,---,0.00,VWS V14.00,2013-03-02 07:02:00,
2013-03-02 00:03:00,25.9,6.5,0.00,West,278,0.0,0.0,43,0.00,,---,0.00,VWS V14.00,2013-03-02 07:03:00,
2013-03-02 00:04:00,25.9,6.5,0.00,West,275,0.0,0.0,43,0.00,,---,0.00,VWS V14.00,2013-03-02 07:04:00,
2013-03-02 00:05:00,25.7,6.3,0.00,WSW,252,0.0,0.0,43,0.00,,---,0.00,VWS V14.00,2013-03-02 07:05:00,
2013-03-02 00:06:00,27.0,6.9,0.00,West,268,0.0,0.0,42,0.00,,---,0.00,VWS V14.00,2013-03-02 07:06:00,
2013-03-02 00:07:00,27.0,6.9,0.00,West,268,0.0,0.0,42,0.00,,---,0.00,VWS V14.00,2013-03-02 07:07:00,
2013-03-02 00:08:00,27.0,6.9,0.00,West,267,0.0,0.0,42,0.00,,---,0.00,VWS V14.00,2013-03-02 07:08:00,
2013-03-02 00:09:00,25.7,6.3,0.00,WSW,252,0.0,0.0,43,0.00,,---,0.00,VWS V14.00,2013-03-02 07:09:00,
2013-03-02 00:10:00,25.7,6.3,0.00,WSW,252,0.0,0.0,43,0.00,,---,0.00,VWS V14.00,2013-03-02 07:10:00,
2013-03-02 00:11:00,25.7,6.3,0.00,SW,225,0.0,2.7,43,0.00,,---,0.00,VWS V14.00,2013-03-02 07:11:00,
2013-03-02 00:12:00,26.8,6.8,0.00,West,263,0.0,0.0,42,0.00,,---,0.00,VWS V14.00,2013-03-02 07:12:00,
2013-03-02 00:13:00,26.8,6.8,0.00,West,267,0.0,0.0,42,0.00,,---,0.00,VWS V14.00,2013-03-02 07:13:00,
2013-03-02 00:14:00,25.5,6.2,0.00,ENE,70,2.7,3.1,43,0.00,,---,0.00,VWS V14.00,2013-03-02 07:14:00,
2013-03-02 00:15:00,25.5,6.2,0.00,ENE,72,0.0,2.7,43,0.00,,---,0.00,VWS V14.00,2013-03-02 07:15:00,
2013-03-02 00:16:00,25.5,6.2,0.00,ENE,78,2.7,3.1,43,0.00,,---,0.00,VWS V14.00,2013-03-02 07:16:00,
2013-03-02 00:17:00,26.8,6.8,0.00,West,267,0.0,0.0,42,0.00,,---,0.00,VWS V14.00,2013-03-02 07:17:00,
2013-03-02 00:18:00,26.6,6.6,0.00,West,268,2.2,3.6,42,0.00,,---,0.00,VWS V14.00,2013-03-02 07:18:00,
2013-03-02 00:19:00,25.5,6.7,0.00,East,80,0.0,0.0,44,0.00,,---,0.00,VWS V14.00,2013-03-02 07:19:00,
2013-03-02 00:20:00,25.5,6.7,0.00,ENE,77,0.0,0.0,44,0.00,,---,0.00,VWS V14.00,2013-03-02 07:20:00,
2013-03-02 00:21:00,25.5,6.7,0.00,NNE,26,0.0,2.7,44,0.00,,---,0.00,VWS V14.00,2013-03-02 07:21:00,
2013-03-02 00:22:00,26.6,6.6,0.00,West,270,0.0,0.0,42,0.00,,---,0.00,VWS V14.00,2013-03-02 07:22:00,
2013-03-02 00:23:00,26.4,6.4,0.00,West,274,0.0,0.0,42,0.00,,---,0.00,VWS V14.00,2013-03-02 07:23:00,
2013-03-02 00:24:00,25.3,6.5,0.00,ENE,65,0.0,0.0,44,0.00,,---,0.00,VWS V14.00,2013-03-02 07:24:00,
2013-03-02 00:25:00,25.3,6.5,0.00,East,92,0.0,0.0,44,0.00,,---,0.00,VWS V14.00,2013-03-02 07:25:00,
2013-03-02 00:26:00,25.3,6.5,0.00,East,81,0.0,4.5,44,0.00,,---,0.00,VWS V14.00,2013-03-02 07:26:00,
2013-03-02 00:27:00,26.2,6.3,0.00,West,277,2.7,3.1,42,0.00,,---,0.00,VWS V14.00,2013-03-02 07:27:00,
2013-03-02 00:28:00,26.2,6.3,0.00,West,277,0.0,0.0,42,0.00,,---,0.00,VWS V14.00,2013-03-02 07:28:00,
2013-03-02 00:29:00,25.3,6.5,0.00,East,81,0.0,0.0,44,0.00,,---,0.00,VWS V14.00,2013-03-02 07:29:00,
2013-03-02 00:30:00,25.3,6.5,0.00,East,81,0.0,0.0,44,0.00,,---,0.00,VWS V14.00,2013-03-02 07:30:00,
2013-03-02 00:31:00,25.3,6.5,0.00,East,81,0.0,0.0,44,0.00,,---,0.00,VWS V14.00,2013-03-02 07:31:00,
2013-03-02 00:32:00,26.2,6.3,0.00,SE,124,2.7,2.7,42,0.00,,---,0.00,VWS V14.00,2013-03-02 07:32:00,
2013-03-02 00:33:00,26.1,6.1,0.00,SE,128,0.0,0.0,42,0.00,,---,0.00,VWS V14.00,2013-03-02 07:33:00,
2013-03-02 00:34:00,25.3,6.5,0.00,East,81,0.0,0.0,44,0.00,,---,0.00,VWS V14.00,2013-03-02 07:34:00,
2013-03-02 00:35:00,25.3,6.5,0.00,East,81,0.0,0.0,44,0.00,,---,0.00,VWS V14.00,2013-03-02 07:35:00,
2013-03-02 00:36:00,25.3,6.5,0.00,East,81,0.0,0.0,44,0.00,,---,0.00,VWS V14.00,2013-03-02 07:36:00,
2013-03-02 00:37:00,26.1,6.6,0.00,SE,124,0.0,0.0,43,0.00,,---,0.00,VWS V14.00,2013-03-02 07:37:00,
2013-03-02 00:38:00,26.1,6.6,0.00,SE,124,0.0,0.0,43,0.00,,---,0.00,VWS V14.00,2013-03-02 07:38:00,
2013-03-02 00:39:00,25.3,6.5,0.00,East,81,0.0,0.0,44,0.00,,---,0.00,VWS V14.00,2013-03-02 07:39:00,
2013-03-02 00:40:00,25.3,6.5,0.00,East,81,0.0,0.0,44,0.00,,---,0.00,VWS V14.00,2013-03-02 07:40:00,
2013-03-02 00:41:00,25.3,6.5,0.00,East,81,0.0,0.0,44,0.00,,---,0.00,VWS V14.00,2013-03-02 07:41:00,
2013-03-02 00:42:00,26.1,6.6,0.00,NNW,341,0.0,0.0,43,0.00,,---,0.00,VWS V14.00,2013-03-02 07:42:00,
2013-03-02 00:43:00,26.1,6.6,0.00,NNW,340,0.0,0.0,43,0.00,,---,0.00,VWS V14.00,2013-03-02 07:43:00,
2013-03-02 00:44:00,25.2,6.3,0.00,East,81,0.0,0.0,44,0.00,,---,0.00,VWS V14.00,2013-03-02 07:44:00,
2013-03-02 00:45:00,25.2,6.3,0.00,East,81,0.0,0.0,44,0.00,,---,0.00,VWS V14.00,2013-03-02 07:45:00,
2013-03-02 00:46:00,25.2,6.3,0.00,East,81,0.0,0.0,44,0.00,,---,0.00,VWS V14.00,2013-03-02 07:46:00,
2013-03-02 00:47:00,25.9,6.5,0.00,NW,306,0.0,0.0,43,0.00,,---,0.00,VWS V14.00,2013-03-02 07:47:00,
2013-03-02 00:48:00,25.9,6.5,0.00,NW,311,0.0,0.0,43,0.00,,---,0.00,VWS V14.00,2013-03-02 07:48:00,
2013-03-02 00:49:00,25.2,6.3,0.00,East,81,0.0,0.0,44,0.00,,---,0.00,VWS V14.00,2013-03-02 07:49:00,
2013-03-02 00:50:00,25.0,6.2,0.00,East,81,0.0,0.0,44,0.00,,---,0.00,VWS V14.00,2013-03-02 07:50:00,
2013-03-02 00:51:00,25.0,6.2,0.00,East,81,0.0,0.0,44,0.00,,---,0.00,VWS V14.00,2013-03-02 07:51:00,
2013-03-02 00:52:00,25.9,6.5,0.00,West,275,0.0,0.0,43,0.00,,---,0.00,VWS V14.00,2013-03-02 07:52:00,
2013-03-02 00:53:00,25.9,6.5,0.00,WSW,252,0.0,0.0,43,0.00,,---,0.00,VWS V14.00,2013-03-02 07:53:00,
2013-03-02 00:54:00,25.0,6.2,0.00,East,79,0.0,0.0,44,0.00,,---,0.00,VWS V14.00,2013-03-02 07:54:00,
2013-03-02 00:55:00,25.0,6.2,0.00,East,81,0.0,0.0,44,0.00,,---,0.00,VWS V14.00,2013-03-02 07:55:00,
2013-03-02 00:56:00,25.0,6.2,0.00,SSW,201,0.0,0.0,44,0.00,,---,0.00,VWS V14.00,2013-03-02 07:56:00,
2013-03-02 00:57:00,25.7,6.3,0.00,WSW,252,0.0,0.0,43,0.00,,---,0.00,VWS V14.00,2013-03-02 07:57:00,
2013-03-02 00:58:00,25.7,6.3,0.00,WSW,252,0.0,0.0,43,0.00,,---,0.00,VWS V14.00,2013-03-02 07:58:00,
2013-03-02 00:59:00,25.7,6.3,0.00,WSW,252,0.0,0.0,43,0.00,,---,0.00,VWS V14.00,2013-03-02 07:59:00,
2013-03-02 01:00:00,24.8,6.0,0.00,SSW,207,0.0,0.0,44,0.00,,---,0.00,VWS V14.00,2013-03-02 08:00:00,
2013-03-02 01:01:00,24.8,6.0,0.00,SW,232,0.0,0.0,44,0.00,,---,0.00,VWS V14.00,2013-03-02 08:01:00,
2013-03-02 01:02:00,25.5,6.2,0.00,East,81,3.1,3.1,43,0.00,,---,0.00,VWS V14.00,2013-03-02 08:02:00,
2013-03-02 01:03:00,25.5,6.2,0.00,ENE,72,0.0,2.7,43,0.00,,---,0.00,VWS V14.00,2013-03-02 08:03:00,
2013-03-02 01:04:00,25.5,6.2,0.00,ENE,72,0.0,2.7,43,0.00,,---,0.00,VWS V14.00,2013-03-02 08:04:00,
2013-03-02 01:05:00,24.8,6.0,0.00,WNW,294,3.1,3.6,44,0.00,,---,0.00,VWS V14.00,2013-03-02 08:05:00,
2013-03-02 01:06:00,24.8,6.0,0.00,WNW,286,0.0,3.1,44,0.00,,---,0.00,VWS V14.00,2013-03-02 08:06:00,
2013-03-02 01:07:00,24.8,6.0,0.00,NW,311,4.0,4.0,44,0.00,,---,0.00,VWS V14.00,2013-03-02 08:07:00,
2013-03-02 01:08:00,25.5,6.7,0.00,East,79,0.0,0.0,44,0.00,,---,0.00,VWS V14.00,2013-03-02 08:08:00,
2013-03-02 01:09:00,25.5,6.7,0.00,NNE,26,2.7,2.7,44,0.00,,---,0.00,VWS V14.00,2013-03-02 08:09:00,
2013-03-02 01:10:00,24.8,6.5,0.00,NW,308,2.2,3.1,45,0.00,,---,0.00,VWS V14.00,2013-03-02 08:10:00,
2013-03-02 01:11:00,24.8,6.5,0.00,NNE,29,0.0,2.7,45,0.00,,---,0.00,VWS V14.00,2013-03-02 08:11:00,
2013-03-02 01:12:00,24.8,6.5,0.00,NNW,337,0.0,2.2,45,0.00,,---,0.00,VWS V14.00,2013-03-02 08:12:00,
2013-03-02 01:13:00,25.3,6.5,0.00,ENE,65,0.0,0.0,44,0.00,,---,0.00,VWS V14.00,2013-03-02 08:13:00,
2013-03-02 01:14:00,25.3,6.5,0.00,East,81,2.7,4.5,44,0.00,,---,0.00,VWS V14.00,2013-03-02 08:14:00,
2013-03-02 01:15:00,25.3,6.5,0.00,East,79,0.0,0.0,44,0.00,,---,0.00,VWS V14.00,2013-03-02 08:15:00,
2013-03-02 01:16:00,24.8,6.5,0.00,ESE,109,0.0,5.8,45,0.00,,---,0.00,VWS V14.00,2013-03-02 08:16:00,
2013-03-02 01:17:00,24.8,6.5,0.00,ESE,109,0.0,0.0,45,0.00,,---,0.00,VWS V14.00,2013-03-02 08:17:00,
2013-03-02 01:18:00,25.3,6.5,0.00,East,81,0.0,0.0,44,0.00,,---,0.00,VWS V14.00,2013-03-02 08:18:00,
2013-03-02 01:19:00,25.3,6.5,0.00,East,79,0.0,0.0,44,0.00,,---,0.00,VWS V14.00,2013-03-02 08:19:00,
2013-03-02 01:20:00,25.3,6.5,0.00,East,81,0.0,0.0,44,0.00,,---,0.00,VWS V14.00,2013-03-02 08:20:00,
2013-03-02 01:21:00,24.6,6.3,0.00,ESE,108,0.0,0.0,45,0.00,,---,0.00,VWS V14.00,2013-03-02 08:21:00,
2013-03-02 01:22:00,24.6,6.3,0.00,ESE,108,0.0,0.0,45,0.00,,---,0.00,VWS V14.00,2013-03-02 08:22:00,
2013-03-02 01:23:00,25.3,6.5,0.00,East,81,0.0,0.0,44,0.00,,---,0.00,VWS V14.00,2013-03-02 08:23:00,
2013-03-02 01:24:00,25.3,6.5,0.00,East,81,0.0,0.0,44,0.00,,---,0.00,VWS V14.00,2013-03-02 08:24:00,
2013-03-02 01:25:00,25.3,6.5,0.00,East,81,0.0,0.0,44,0.00,,---,0.00,VWS V14.00,2013-03-02 08:25:00,
2013-03-02 01:26:00,24.6,6.3,0.00,ESE,104,0.0,0.0,45,0.00,,---,0.00,VWS V14.00,2013-03-02 08:26:00,
2013-03-02 01:27:00,24.6,6.3,0.00,ESE,108,0.0,0.0,45,0.00,,---,0.00,VWS V14.00,2013-03-02 08:27:00,
2013-03-02 01:28:00,25.3,6.5,0.00,East,81,0.0,0.0,44,0.00,,---,0.00,VWS V14.00,2013-03-02 08:28:00,
2013-03-02 01:29:00,25.3,6.5,0.00,East,81,0.0,0.0,44,0.00,,---,0.00,VWS V14.00,2013-03-02 08:29:00,
2013-03-02 01:30:00,24.6,6.3,0.00,ESE,107,0.0,0.0,45,0.00,,---,0.00,VWS V14.00,2013-03-02 08:30:00,
2013-03-02 01:31:00,25.2,6.3,0.00,East,81,0.0,0.0,44,0.00,,---,0.00,VWS V14.00,2013-03-02 08:31:00,
2013-03-02 01:32:00,24.6,6.3,0.00,ESE,108,0.0,0.0,45,0.00,,---,0.00,VWS V14.00,2013-03-02 08:32:00,
2013-03-02 01:33:00,25.2,6.3,0.00,East,81,0.0,0.0,44,0.00,,---,0.00,VWS V14.00,2013-03-02 08:33:00,
2013-03-02 01:34:00,25.2,6.3,0.00,East,81,0.0,0.0,44,0.00,,---,0.00,VWS V14.00,2013-03-02 08:34:00,
2013-03-02 01:35:00,25.2,6.3,0.00,East,81,0.0,0.0,44,0.00,,---,0.00,VWS V14.00,2013-03-02 08:35:00,
2013-03-02 01:36:00,25.2,6.3,0.00,East,81,0.0,0.0,44,0.00,,---,0.00,VWS V14.00,2013-03-02 08:36:00,
2013-03-02 01:37:00,24.6,6.3,0.00,East,98,0.0,0.0,45,0.00,,---,0.00,VWS V14.00,2013-03-02 08:37:00,
2013-03-02 01:38:00,25.0,6.2,0.00,East,81,0.0,0.0,44,0.00,,---,0.00,VWS V14.00,2013-03-02 08:38:00,
2013-03-02 01:39:00,25.0,6.2,0.00,East,81,0.0,0.0,44,0.00,,---,0.00,VWS V14.00,2013-03-02 08:39:00,
2013-03-02 01:40:00,25.0,6.2,0.00,East,81,0.0,0.0,44,0.00,,---,0.00,VWS V14.00,2013-03-02 08:40:00,
2013-03-02 01:41:00,25.0,6.2,0.00,East,81,0.0,0.0,44,0.00,,---,0.00,VWS V14.00,2013-03-02 08:41:00,
2013-03-02 01:42:00,24.4,6.2,0.00,East,96,0.0,0.0,45,0.00,,---,0.00,VWS V14.00,2013-03-02 08:42:00,
2013-03-02 01:43:00,24.4,6.2,0.00,East,97,0.0,0.0,45,0.00,,---,0.00,VWS V14.00,2013-03-02 08:43:00,
2013-03-02 01:44:00,25.0,6.2,0.00,East,81,0.0,0.0,44,0.00,,---,0.00,VWS V14.00,2013-03-02 08:44:00,
2013-03-02 01:45:00,24.8,6.0,0.00,SSW,201,0.0,0.0,44,0.00,,---,0.00,VWS V14.00,2013-03-02 08:45:00,
2013-03-02 01:46:00,24.8,6.0,0.00,SSW,207,0.0,0.0,44,0.00,,---,0.00,VWS V14.00,2013-03-02 08:46:00,
2013-03-02 01:47:00,24.4,6.2,0.00,NW,306,2.7,2.7,45,0.00,,---,0.00,VWS V14.00,2013-03-02 08:47:00,
2013-03-02 01:48:00,24.4,6.2,0.00,NW,304,0.0,4.0,45,0.00,,---,0.00,VWS V14.00,2013-03-02 08:48:00,
2013-03-02 01:49:00,24.8,6.0,0.00,SSW,207,0.0,0.0,44,0.00,,---,0.00,VWS V14.00,2013-03-02 08:49:00,
2013-03-02 01:50:00,24.8,6.0,0.00,SW,232,0.0,0.0,44,0.00,,---,0.00,VWS V14.00,2013-03-02 08:50:00,
2013-03-02 01:51:00,24.8,6.0,0.00,WNW,284,0.0,0.0,44,0.00,,---,0.00,VWS V14.00,2013-03-02 08:51:00,
2013-03-02 01:52:00,24.4,6.6,0.00,WNW,303,0.0,2.2,46,0.00,,---,0.00,VWS V14.00,2013-03-02 08:52:00,
2013-03-02 01:53:00,24.4,6.6,0.00,NW,304,0.0,0.0,46,0.00,,---,0.00,VWS V14.00,2013-03-02 08:53:00,
2013-03-02 01:54:00,24.8,6.0,0.00,WNW,294,3.1,3.6,44,0.00,,---,0.00,VWS V14.00,2013-03-02 08:54:00,
2013-03-02 01:55:00,24.8,6.0,0.00,WNW,295,3.6,3.6,44,0.00,,---,0.00,VWS V14.00,2013-03-02 08:55:00,
2013-03-02 01:56:00,24.4,6.6,0.00,WNW,302,0.0,3.6,46,0.00,,---,0.00,VWS V14.00,2013-03-02 08:56:00,
2013-03-02 01:57:00,24.8,6.0,0.00,NW,309,0.0,0.0,44,0.00,,---,0.00,VWS V14.00,2013-03-02 08:57:00,
2013-03-02 01:58:00,24.4,6.6,0.00,NW,317,2.7,2.7,46,0.00,,---,0.00,VWS V14.00,2013-03-02 08:58:00,
2013-03-02 01:59:00,24.8,6.5,0.00,NW,308,2.2,2.2,45,0.00,,---,0.00,VWS V14.00,2013-03-02 08:59:00,
2013-03-02 02:00:00,24.8,6.5,0.00,NNE,16,0.0,0.0,45,0.00,,---,0.00,VWS V14.00,2013-03-02 09:00:00,
2013-03-02 02:01:00,24.4,6.6,0.00,NW,317,0.0,0.0,46,0.00,,---,0.00,VWS V14.00,2013-03-02 09:01:00,
2013-03-02 02:02:00,24.8,6.5,0.00,SE,133,0.0,0.0,45,0.00,,---,0.00,VWS V14.00,2013-03-02 09:02:00,
2013-03-02 02:03:00,24.4,6.6,0.00,NW,317,0.0,0.0,46,0.00,,---,0.00,VWS V14.00,2013-03-02 09:03:00,
2013-03-02 02:04:00,24.8,6.5,0.00,ESE,109,4.0,5.8,45,0.00,,---,0.00,VWS V14.00,2013-03-02 09:04:00,
2013-03-02 02:05:00,24.8,6.5,0.00,ESE,109,0.0,0.0,45,0.00,,---,0.00,VWS V14.00,2013-03-02 09:05:00,
2013-03-02 02:06:00,24.4,6.6,0.00,NW,317,0.0,0.0,46,0.00,,---,0.00,VWS V14.00,2013-03-02 09:06:00,
2013-03-02 02:07:00,24.8,6.5,0.00,ESE,105,0.0,0.0,45,0.00,,---,0.00,VWS V14.00,2013-03-02 09:07:00,
2013-03-02 02:08:00,24.4,6.6,0.00,NW,317,2.2,3.1,46,0.00,,---,0.00,VWS V14.00,2013-03-02 09:08:00,
2013-03-02 02:09:00,24.6,6.3,0.00,ESE,106,0.0,0.0,45,0.00,,---,0.00,VWS V14.00,2013-03-02 09:09:00,
2013-03-02 02:10:00,24.6,6.3,0.00,ESE,108,0.0,0.0,45,0.00,,---,0.00,VWS V14.00,2013-03-02 09:10:00,
2013-03-02 02:11:00,24.4,6.6,0.00,NW,317,0.0,0.0,46,0.00,,---,0.00,VWS V14.00,2013-03-02 09:11:00,
2013-03-02 02:12:00,24.6,6.3,0.00,ESE,108,0.0,0.0,45,0.00,,---,0.00,VWS V14.00,2013-03-02 09:12:00,
2013-03-02 02:13:00,24.4,6.6,0.00,NW,317,0.0,0.0,46,0.00,,---,0.00,VWS V14.00,2013-03-02 09:13:00,
2013-03-02 02:14:00,24.6,6.3,0.00,ESE,105,0.0,0.0,45,0.00,,---,0.00,VWS V14.00,2013-03-02 09:14:00,
2013-03-02 02:15:00,24.6,6.3,0.00,ESE,108,0.0,0.0,45,0.00,,---,0.00,VWS V14.00,2013-03-02 09:15:00,
2013-03-02 02:16:00,24.4,6.6,0.00,NW,317,0.0,0.0,46,0.00,,---,0.00,VWS V14.00,2013-03-02 09:16:00,
2013-03-02 02:17:00,24.6,6.3,0.00,ESE,104,0.0,0.0,45,0.00,,---,0.00,VWS V14.00,2013-03-02 09:17:00,
2013-03-02 02:18:00,24.4,6.6,0.00,NW,317,0.0,0.0,46,0.00,,---,0.00,VWS V14.00,2013-03-02 09:18:00,
2013-03-02 02:19:00,24.6,6.3,0.00,ESE,107,0.0,0.0,45,0.00,,---,0.00,VWS V14.00,2013-03-02 09:19:00,
2013-03-02 02:20:00,24.6,6.3,0.00,ESE,107,0.0,0.0,45,0.00,,---,0.00,VWS V14.00,2013-03-02 09:20:00,
2013-03-02 02:21:00,24.3,6.5,0.00,NW,317,0.0,0.0,46,0.00,,---,0.00,VWS V14.00,2013-03-02 09:21:00,
2013-03-02 02:22:00,24.6,6.3,0.00,East,99,0.0,0.0,45,0.00,,---,0.00,VWS V14.00,2013-03-02 09:22:00,
2013-03-02 02:23:00,24.3,6.5,0.00,NW,310,3.1,3.6,46,0.00,,---,0.00,VWS V14.00,2013-03-02 09:23:00,
2013-03-02 02:24:00,24.6,6.3,0.00,East,100,0.0,0.0,45,0.00,,---,0.00,VWS V14.00,2013-03-02 09:24:00,
2013-03-02 02:25:00,24.6,6.3,0.00,East,96,0.0,0.0,45,0.00,,---,0.00,VWS V14.00,2013-03-02 09:25:00,
2013-03-02 02:26:00,24.3,6.9,0.00,NW,310,0.0,0.0,47,0.00,,---,0.00,VWS V14.00,2013-03-02 09:26:00,
2013-03-02 02:27:00,24.4,6.2,0.00,East,100,0.0,0.0,45,0.00,,---,0.00,VWS V14.00,2013-03-02 09:27:00,
2013-03-02 02:28:00,24.3,6.9,0.00,NW,310,0.0,0.0,47,0.00,,---,0.00,VWS V14.00,2013-03-02 09:28:00,
2013-03-02 02:29:00,24.4,6.2,0.00,East,99,0.0,0.0,45,0.00,,---,0.00,VWS V14.00,2013-03-02 09:29:00,
2013-03-02 02:30:00,24.4,6.2,0.00,East,98,0.0,0.0,45,0.00,,---,0.00,VWS V14.00,2013-03-02 09:30:00,
2013-03-02 02:31:00,24.1,6.8,0.00,WNW,298,0.0,0.0,47,0.00,,---,0.00,VWS V14.00,2013-03-02 09:31:00,
2013-03-02 02:32:00,24.4,6.2,0.00,East,93,0.0,0.0,45,0.00,,---,0.00,VWS V14.00,2013-03-02 09:32:00,
2013-03-02 02:33:00,24.1,6.8,0.00,NW,306,0.0,0.0,47,0.00,,---,0.00,VWS V14.00,2013-03-02 09:33:00,
2013-03-02 02:34:00,24.4,6.2,0.00,NNE,23,2.7,2.7,45,0.00,,---,0.00,VWS V14.00,2013-03-02 09:34:00,
2013-03-02 02:35:00,24.4,6.2,0.00,NNE,24,0.0,0.0,45,0.00,,---,0.00,VWS V14.00,2013-03-02 09:35:00,
2013-03-02 02:36:00,24.1,6.8,0.00,NW,310,0.0,0.0,47,0.00,,---,0.00,VWS V14.00,2013-03-02 09:36:00,
2013-03-02 02:37:00,24.4,6.2,0.00,WNW,302,0.0,0.0,45,0.00,,---,0.00,VWS V14.00,2013-03-02 09:37:00,
2013-03-02 02:38:00,24.1,6.8,0.00,NW,306,0.0,0.0,47,0.00,,---,0.00,VWS V14.00,2013-03-02 09:38:00,
2013-03-02 02:39:00,24.4,6.6,0.00,NW,304,3.1,3.6,46,0.00,,---,0.00,VWS V14.00,2013-03-02 09:39:00,
2013-03-02 02:40:00,24.4,6.6,0.00,NW,304,2.2,2.2,46,0.00,,---,0.00,VWS V14.00,2013-03-02 09:40:00,
2013-03-02 02:41:00,23.9,6.6,0.00,NW,311,0.0,0.0,47,0.00,,---,0.00,VWS V14.00,2013-03-02 09:41:00,
2013-03-02 02:42:00,24.4,6.6,0.00,NW,304,0.0,0.0,46,0.00,,---,0.00,VWS V14.00,2013-03-02 09:42:00,
2013-03-02 02:43:00,23.9,6.6,0.00,NW,311,0.0,0.0,47,0.00,,---,0.00,VWS V14.00,2013-03-02 09:43:00,
2013-03-02 02:44:00,24.4,6.6,0.00,WNW,302,0.0,3.6,46,0.00,,---,0.00,VWS V14.00,2013-03-02 09:44:00,
2013-03-02 02:45:00,24.4,6.6,0.00,WNW,302,0.0,0.0,46,0.00,,---,0.00,VWS V14.00,2013-03-02 09:45:00,
2013-03-02 02:46:00,23.9,6.6,0.00,WNW,303,0.0,0.0,47,0.00,,---,0.00,VWS V14.00,2013-03-02 09:46:00,
2013-03-02 02:47:00,23.9,6.6,0.00,NW,310,0.0,0.0,47,0.00,,---,0.00,VWS V14.00,2013-03-02 09:47:00,
2013-03-02 02:48:00,24.4,6.6,0.00,NW,317,0.0,0.0,46,0.00,,---,0.00,VWS V14.00,2013-03-02 09:48:00,
2013-03-02 02:49:00,23.7,6.4,0.00,WNW,302,0.0,0.0,47,0.00,,---,0.00,VWS V14.00,2013-03-02 09:49:00,
2013-03-02 02:50:00,24.4,6.6,0.00,NW,317,0.0,0.0,46,0.00,,---,0.00,VWS V14.00,2013-03-02 09:50:00,
2013-03-02 02:51:00,23.7,6.4,0.00,NW,310,0.0,0.0,47,0.00,,---,0.00,VWS V14.00,2013-03-02 09:51:00,
2013-03-02 02:52:00,23.7,6.4,0.00,NW,310,0.0,0.0,47,0.00,,---,0.00,VWS V14.00,2013-03-02 09:52:00,
2013-03-02 02:53:00,24.4,6.6,0.00,NW,317,0.0,0.0,46,0.00,,---,0.00,VWS V14.00,2013-03-02 09:53:00,
2013-03-02 02:54:00,23.7,6.4,0.00,NW,310,0.0,0.0,47,0.00,,---,0.00,VWS V14.00,2013-03-02 09:54:00,
2013-03-02 02:55:00,24.4,6.6,0.00,NW,317,0.0,0.0,46,0.00,,---,0.00,VWS V14.00,2013-03-02 09:55:00,
2013-03-02 02:56:00,23.7,6.4,0.00,WNW,302,0.0,0.0,47,0.00,,---,0.00,VWS V14.00,2013-03-02 09:56:00,
2013-03-02 02:57:00,23.7,6.4,0.00,NW,311,0.0,0.0,47,0.00,,---,0.00,VWS V14.00,2013-03-02 09:57:00,
2013-03-02 02:58:00,24.4,6.6,0.00,NW,317,0.0,0.0,46,0.00,,---,0.00,VWS V14.00,2013-03-02 09:58:00,
2013-03-02 02:59:00,23.7,6.4,0.00,NW,310,0.0,0.0,47,0.00,,---,0.00,VWS V14.00,2013-03-02 09:59:00,
2013-03-02 03:00:00,24.4,6.6,0.00,NW,317,0.0,0.0,46,0.00,,---,0.00,VWS V14.00,2013-03-02 10:00:00,
2013-03-02 03:01:00,23.5,6.3,0.00,NW,310,0.0,0.0,47,0.00,,---,0.00,VWS V14.00,2013-03-02 10:01:00,
2013-03-02 03:02:00,23.5,6.3,0.00,NW,311,0.0,0.0,47,0.00,,---,0.00,VWS V14.00,2013-03-02 10:02:00,
2013-03-02 03:03:00,24.4,6.6,0.00,NW,317,0.0,0.0,46,0.00,,---,0.00,VWS V14.00,2013-03-02 10:03:00,
2013-03-02 03:04:00,23.5,6.3,0.00,NW,310,0.0,0.0,47,0.00,,---,0.00,VWS V14.00,2013-03-02 10:04:00,
2013-03-02 03:05:00,24.4,6.6,0.00,NW,317,0.0,0.0,46,0.00,,---,0.00,VWS V14.00,2013-03-02 10:05:00,
2013-03-02 03:06:00,24.4,6.6,0.00,NW,317,0.0,0.0,46,0.00,,---,0.00,VWS V14.00,2013-03-02 10:06:00,
2013-03-02 03:07:00,23.5,6.3,0.00,NW,310,0.0,0.0,47,0.00,,---,0.00,VWS V14.00,2013-03-02 10:07:00,
2013-03-02 03:08:00,23.5,6.3,0.00,NW,310,0.0,0.0,47,0.00,,---,0.00,VWS V14.00,2013-03-02 10:08:00,
2013-03-02 03:09:00,24.3,6.5,0.00,NW,317,0.0,0.0,46,0.00,,---,0.00,VWS V14.00,2013-03-02 10:09:00,
2013-03-02 03:10:00,24.3,6.5,0.00,NW,310,3.6,3.6,46,0.00,,---,0.00,VWS V14.00,2013-03-02 10:10:00,
2013-03-02 03:11:00,24.3,6.5,0.00,NW,310,3.6,3.6,46,0.00,,---,0.00,VWS V14.00,2013-03-02 10:11:00,
2013-03-02 03:12:00,23.5,6.3,0.00,NW,310,0.0,0.0,47,0.00,,---,0.00,VWS V14.00,2013-03-02 10:12:00,
2013-03-02 03:13:00,23.5,6.3,0.00,NW,310,0.0,0.0,47,0.00,,---,0.00,VWS V14.00,2013-03-02 10:13:00,
2013-03-02 03:14:00,24.3,6.9,0.00,NW,306,0.0,0.0,47,0.00,,---,0.00,VWS V14.00,2013-03-02 10:14:00,
2013-03-02 03:15:00,24.3,6.9,0.00,NW,310,0.0,0.0,47,0.00,,---,0.00,VWS V14.00,2013-03-02 10:15:00,
2013-03-02 03:16:00,24.3,6.9,0.00,NW,310,0.0,0.0,47,0.00,,---,0.00,VWS V14.00,2013-03-02 10:16:00,
2013-03-02 03:17:00,24.3,6.9,0.00,NW,310,0.0,0.0,47,0.00,,---,0.00,VWS V14.00,2013-03-02 10:17:00,
2013-03-02 03:18:00,23.5,6.8,0.00,NW,310,0.0,0.0,48,0.00,,---,0.00,VWS V14.00,2013-03-02 10:18:00,
2013-03-02 03:19:00,24.1,6.8,0.00,NW,310,0.0,0.0,47,0.00,,---,0.00,VWS V14.00,2013-03-02 10:19:00,
2013-03-02 03:20:00,23.5,6.8,0.00,NW,310,0.0,0.0,48,0.00,,---,0.00,VWS V14.00,2013-03-02 10:20:00,
2013-03-02 03:21:00,24.1,6.8,0.00,NW,310,0.0,0.0,47,0.00,,---,0.00,VWS V14.00,2013-03-02 10:21:00,
2013-03-02 03:22:00,24.1,6.8,0.00,NW,310,0.0,0.0,47,0.00,,---,0.00,VWS V14.00,2013-03-02 10:22:00,
2013-03-02 03:23:00,23.4,6.6,0.00,NW,310,0.0,0.0,48,0.00,,---,0.00,VWS V14.00,2013-03-02 10:23:00,
2013-03-02 03:24:00,23.4,6.6,0.00,NW,311,0.0,0.0,48,0.00,,---,0.00,VWS V14.00,2013-03-02 10:24:00,
2013-03-02 03:25:00,24.1,6.8,0.00,NW,310,0.0,0.0,47,0.00,,---,0.00,VWS V14.00,2013-03-02 10:25:00,
2013-03-02 03:26:00,24.1,6.8,0.00,NW,310,0.0,0.0,47,0.00,,---,0.00,VWS V14.00,2013-03-02 10:26:00,
2013-03-02 03:27:00,24.1,6.8,0.00,NW,307,0.0,0.0,47,0.00,,---,0.00,VWS V14.00,2013-03-02 10:27:00,
2013-03-02 03:28:00,23.4,6.6,0.00,NW,310,0.0,0.0,48,0.00,,---,0.00,VWS V14.00,2013-03-02 10:28:00,
2013-03-02 03:29:00,23.4,6.6,0.00,NW,310,0.0,0.0,48,0.00,,---,0.00,VWS V14.00,2013-03-02 10:29:00,
2013-03-02 03:30:00,23.9,6.6,0.00,NW,309,0.0,0.0,47,0.00,,---,0.00,VWS V14.00,2013-03-02 10:30:00,
2013-03-02 03:31:00,23.9,6.6,0.00,NW,309,0.0,0.0,47,0.00,,---,0.00,VWS V14.00,2013-03-02 10:31:00,
2013-03-02 03:32:00,23.9,6.6,0.00,NW,311,0.0,0.0,47,0.00,,---,0.00,VWS V14.00,2013-03-02 10:32:00,
2013-03-02 03:33:00,23.4,6.6,0.00,NW,310,0.0,2.7,48,0.00,,---,0.00,VWS V14.00,2013-03-02 10:33:00,
2013-03-02 03:34:00,23.4,6.6,0.00,NW,310,0.0,0.0,48,0.00,,---,0.00,VWS V14.00,2013-03-02 10:34:00,
2013-03-02 03:35:00,23.4,6.6,0.00,NW,310,0.0,0.0,48,0.00,,---,0.00,VWS V14.00,2013-03-02 10:35:00,
2013-03-02 03:36:00,23.9,6.6,0.00,NW,310,0.0,0.0,47,0.00,,---,0.00,VWS V14.00,2013-03-02 10:36:00,
2013-03-02 03:37:00,23.7,6.4,0.00,NW,306,0.0,0.0,47,0.00,,---,0.00,VWS V14.00,2013-03-02 10:37:00,
2013-03-02 03:38:00,23.4,6.6,0.00,NW,310,0.0,0.0,48,0.00,,---,0.00,VWS V14.00,2013-03-02 10:38:00,
2013-03-02 03:39:00,23.4,6.6,0.00,NW,310,0.0,0.0,48,0.00,,---,0.00,VWS V14.00,2013-03-02 10:39:00,
2013-03-02 03:40:00,23.4,6.6,0.00,NW,310,0.0,0.0,48,0.00,,---,0.00,VWS V14.00,2013-03-02 10:40:00,
2013-03-02 03:41:00,23.7,6.4,0.00,NW,310,0.0,0.0,47,0.00,,---,0.00,VWS V14.00,2013-03-02 10:41:00,
2013-03-02 03:42:00,23.7,6.4,0.00,NW,308,0.0,0.0,47,0.00,,---,0.00,VWS V14.00,2013-03-02 10:42:00,
2013-03-02 03:43:00,23.4,6.6,0.00,NW,310,0.0,0.0,48,0.00,,---,0.00,VWS V14.00,2013-03-02 10:43:00,
2013-03-02 03:44:00,23.4,6.6,0.00,NW,310,0.0,0.0,48,0.00,,---,0.00,VWS V14.00,2013-03-02 10:44:00,
2013-03-02 03:45:00,23.4,6.6,0.00,NW,310,0.0,0.0,48,0.00,,---,0.00,VWS V14.00,2013-03-02 10:45:00,
2013-03-02 03:46:00,23.7,6.4,0.00,NW,310,0.0,0.0,47,0.00,,---,0.00,VWS V14.00,2013-03-02 10:46:00,
2013-03-02 03:47:00,23.7,6.4,0.00,NW,308,0.0,0.0,47,0.00,,---,0.00,VWS V14.00,2013-03-02 10:47:00,
2013-03-02 03:48:00,23.2,6.9,0.00,NW,310,0.0,0.0,49,0.00,,---,0.00,VWS V14.00,2013-03-02 10:48:00,
2013-03-02 03:49:00,23.2,6.9,0.00,NW,310,0.0,0.0,49,0.00,,---,0.00,VWS V14.00,2013-03-02 10:49:00,
2013-03-02 03:50:00,23.2,6.9,0.00,NW,311,0.0,0.0,49,0.00,,---,0.00,VWS V14.00,2013-03-02 10:50:00,
2013-03-02 03:51:00,23.5,6.3,0.00,NW,310,0.0,0.0,47,0.00,,---,0.00,VWS V14.00,2013-03-02 10:51:00,
2013-03-02 03:52:00,23.5,6.3,0.00,NW,311,0.0,0.0,47,0.00,,---,0.00,VWS V14.00,2013-03-02 10:52:00,
2013-03-02 03:53:00,23.2,6.9,0.00,NW,306,0.0,0.0,49,0.00,,---,0.00,VWS V14.00,2013-03-02 10:53:00,
2013-03-02 03:54:00,23.2,6.9,0.00,NW,311,0.0,0.0,49,0.00,,---,0.00,VWS V14.00,2013-03-02 10:54:00,
2013-03-02 03:55:00,23.2,6.9,0.00,NW,311,0.0,0.0,49,0.00,,---,0.00,VWS V14.00,2013-03-02 10:55:00,
2013-03-02 03:56:00,23.5,6.3,0.00,NW,310,0.0,0.0,47,0.00,,---,0.00,VWS V14.00,2013-03-02 10:56:00,
2013-03-02 03:57:00,23.5,6.3,0.00,NW,311,0.0,0.0,47,0.00,,---,0.00,VWS V14.00,2013-03-02 10:57:00,
2013-03-02 03:58:00,23.2,6.9,0.00,NW,311,0.0,0.0,49,0.00,,---,0.00,VWS V14.00,2013-03-02 10:58:00,
2013-03-02 03:59:00,23.2,6.9,0.00,NW,311,0.0,0.0,49,0.00,,---,0.00,VWS V14.00,2013-03-02 10:59:00,
2013-03-02 04:00:00,23.2,6.9,0.00,NW,311,0.0,0.0,49,0.00,,---,0.00,VWS V14.00,2013-03-02 11:00:00,
2013-03-02 04:01:00,23.5,6.3,0.00,NW,311,0.0,0.0,47,0.00,,---,0.00,VWS V14.00,2013-03-02 11:01:00,
2013-03-02 04:02:00,23.5,6.3,0.00,NW,310,0.0,0.0,47,0.00,,---,0.00,VWS V14.00,2013-03-02 11:02:00,
2013-03-02 04:03:00,23.2,6.9,0.00,NW,311,0.0,0.0,49,0.00,,---,0.00,VWS V14.00,2013-03-02 11:03:00,
2013-03-02 04:04:00,23.2,6.9,0.00,NW,311,0.0,0.0,49,0.00,,---,0.00,VWS V14.00,2013-03-02 11:04:00,
2013-03-02 04:05:00,23.2,6.9,0.00,NW,309,0.0,0.0,49,0.00,,---,0.00,VWS V14.00,2013-03-02 11:05:00,
2013-03-02 04:06:00,23.5,6.8,0.00,NW,310,0.0,0.0,48,0.00,,---,0.00,VWS V14.00,2013-03-02 11:06:00,
2013-03-02 04:07:00,23.2,6.9,0.00,NW,306,0.0,0.0,49,0.00,,---,0.00,VWS V14.00,2013-03-02 11:07:00,
2013-03-02 04:08:00,23.5,6.8,0.00,NW,310,0.0,0.0,48,0.00,,---,0.00,VWS V14.00,2013-03-02 11:08:00,
2013-03-02 04:09:00,23.2,6.9,0.00,NW,311,0.0,0.0,49,0.00,,---,0.00,VWS V14.00,2013-03-02 11:09:00,
2013-03-02 04:10:00,23.2,6.9,0.00,WNW,301,0.0,0.0,49,0.00,,---,0.00,VWS V14.00,2013-03-02 11:10:00,
2013-03-02 04:11:00,23.4,6.6,0.00,NW,310,0.0,0.0,48,0.00,,---,0.00,VWS V14.00,2013-03-02 11:11:00,
2013-03-02 04:12:00,23.2,6.9,0.00,WNW,301,0.0,0.0,49,0.00,,---,0.00,VWS V14.00,2013-03-02 11:12:00,
2013-03-02 04:13:00,23.4,6.6,0.00,NW,310,0.0,0.0,48,0.00,,---,0.00,VWS V14.00,2013-03-02 11:13:00,
2013-03-02 04:14:00,23.2,6.9,0.00,NW,310,0.0,0.0,49,0.00,,---,0.00,VWS V14.00,2013-03-02 11:14:00,
2013-03-02 04:15:00,23.2,6.9,0.00,NW,311,0.0,0.0,49,0.00,,---,0.00,VWS V14.00,2013-03-02 11:15:00,
2013-03-02 04:16:00,23.4,6.6,0.00,NW,310,0.0,0.0,48,0.00,,---,0.00,VWS V14.00,2013-03-02 11:16:00,
2013-03-02 04:17:00,23.4,6.6,0.00,NW,310,0.0,0.0,48,0.00,,---,0.00,VWS V14.00,2013-03-02 11:17:00,
2013-03-02 04:18:00,23.4,6.6,0.00,NW,310,0.0,0.0,48,0.00,,---,0.00,VWS V14.00,2013-03-02 11:18:00,
2013-03-02 04:19:00,23.2,6.9,0.00,NW,304,0.0,2.2,49,0.00,,---,0.00,VWS V14.00,2013-03-02 11:19:00,
2013-03-02 04:20:00,23.2,6.9,0.00,NW,305,0.0,0.0,49,0.00,,---,0.00,VWS V14.00,2013-03-02 11:20:00,
2013-03-02 04:21:00,23.4,6.6,0.00,NW,310,0.0,2.7,48,0.00,,---,0.00,VWS V14.00,2013-03-02 11:21:00,
2013-03-02 04:22:00,23.4,6.6,0.00,NW,310,0.0,2.7,48,0.00,,---,0.00,VWS V14.00,2013-03-02 11:22:00,
2013-03-02 04:23:00,23.4,6.6,0.00,NW,310,0.0,0.0,48,0.00,,---,0.00,VWS V14.00,2013-03-02 11:23:00,
2013-03-02 04:24:00,23.2,6.9,0.00,WNW,303,0.0,0.0,49,0.00,,---,0.00,VWS V14.00,2013-03-02 11:24:00,
2013-03-02 04:25:00,23.2,6.9,0.00,NW,305,0.0,0.0,49,0.00,,---,0.00,VWS V14.00,2013-03-02 11:25:00,
2013-03-02 04:26:00,23.0,6.7,0.00,WNW,296,0.0,0.0,49,0.00,,---,0.00,VWS V14.00,2013-03-02 11:26:00,
2013-03-02 04:27:00,23.4,6.6,0.00,NW,310,0.0,0.0,48,0.00,,---,0.00,VWS V14.00,2013-03-02 11:27:00,
2013-03-02 04:28:00,23.4,6.6,0.00,NW,310,0.0,0.0,48,0.00,,---,0.00,VWS V14.00,2013-03-02 11:28:00,
2013-03-02 04:29:00,23.0,6.7,0.00,WNW,299,0.0,0.0,49,0.00,,---,0.00,VWS V14.00,2013-03-02 11:29:00,
2013-03-02 04:30:00,23.0,6.7,0.00,NW,305,0.0,0.0,49,0.00,,---,0.00,VWS V14.00,2013-03-02 11:30:00,
2013-03-02 04:31:00,23.0,6.7,0.00,NW,305,0.0,0.0,49,0.00,,---,0.00,VWS V14.00,2013-03-02 11:31:00,
2013-03-02 04:32:00,23.4,6.6,0.00,NW,310,0.0,0.0,48,0.00,,---,0.00,VWS V14.00,2013-03-02 11:32:00,
2013-03-02 04:33:00,23.4,6.6,0.00,NW,310,0.0,0.0,48,0.00,,---,0.00,VWS V14.00,2013-03-02 11:33:00,
2013-03-02 04:34:00,23.0,6.7,0.00,WNW,301,0.0,0.0,49,0.00,,---,0.00,VWS V14.00,2013-03-02 11:34:00,
2013-03-02 04:35:00,23.0,6.7,0.00,NW,305,0.0,0.0,49,0.00,,---,0.00,VWS V14.00,2013-03-02 11:35:00,
2013-03-02 04:36:00,23.0,6.7,0.00,NW,305,0.0,2.2,49,0.00,,---,0.00,VWS V14.00,2013-03-02 11:36:00,
2013-03-02 04:37:00,23.2,6.9,0.00,NW,310,0.0,0.0,49,0.00,,---,0.00,VWS V14.00,2013-03-02 11:37:00,
2013-03-02 04:38:00,23.2,6.9,0.00,NW,310,0.0,0.0,49,0.00,,---,0.00,VWS V14.00,2013-03-02 11:38:00,
2013-03-02 04:39:00,23.0,6.7,0.00,NW,305,0.0,0.0,49,0.00,,---,0.00,VWS V14.00,2013-03-02 11:39:00,
2013-03-02 04:40:00,23.0,6.7,0.00,NW,305,0.0,0.0,49,0.00,,---,0.00,VWS V14.00,2013-03-02 11:40:00,
2013-03-02 04:41:00,23.0,6.7,0.00,WNW,295,0.0,0.0,49,0.00,,---,0.00,VWS V14.00,2013-03-02 11:41:00,
2013-03-02 04:42:00,23.2,6.9,0.00,NW,306,0.0,0.0,49,0.00,,---,0.00,VWS V14.00,2013-03-02 11:42:00,
2013-03-02 04:43:00,23.2,6.9,0.00,NW,311,0.0,0.0,49,0.00,,---,0.00,VWS V14.00,2013-03-02 11:43:00,
2013-03-02 04:44:00,23.0,7.1,0.00,NW,305,0.0,0.0,50,0.00,,---,0.00,VWS V14.00,2013-03-02 11:44:00,
2013-03-02 04:45:00,23.0,7.1,0.00,NW,305,0.0,0.0,50,0.00,,---,0.00,VWS V14.00,2013-03-02 11:45:00,
2013-03-02 04:46:00,23.0,7.1,0.00,NW,304,0.0,0.0,50,0.00,,---,0.00,VWS V14.00,2013-03-02 11:46:00,
2013-03-02 04:47:00,23.2,6.9,0.00,NW,311,0.0,0.0,49,0.00,,---,0.00,VWS V14.00,2013-03-02 11:47:00,
2013-03-02 04:48:00,23.2,6.9,0.00,NW,311,0.0,0.0,49,0.00,,---,0.00,VWS V14.00,2013-03-02 11:48:00,
2013-03-02 04:49:00,23.0,7.1,0.00,WNW,301,0.0,0.0,50,0.00,,---,0.00,VWS V14.00,2013-03-02 11:49:00,
2013-03-02 04:50:00,23.0,7.1,0.00,NW,305,0.0,0.0,50,0.00,,---,0.00,VWS V14.00,2013-03-02 11:50:00,
2013-03-02 04:51:00,23.0,7.1,0.00,NW,305,0.0,0.0,50,0.00,,---,0.00,VWS V14.00,2013-03-02 11:51:00,
2013-03-02 04:52:00,23.2,6.9,0.00,NW,310,0.0,0.0,49,0.00,,---,0.00,VWS V14.00,2013-03-02 11:52:00,
2013-03-02 04:53:00,23.2,6.9,0.00,NW,311,0.0,0.0,49,0.00,,---,0.00,VWS V14.00,2013-03-02 11:53:00,
2013-03-02 04:54:00,23.2,6.9,0.00,NW,309,0.0,0.0,49,0.00,,---,0.00,VWS V14.00,2013-03-02 11:54:00,
2013-03-02 04:55:00,23.0,7.1,0.00,NW,304,0.0,0.0,50,0.00,,---,0.00,VWS V14.00,2013-03-02 11:55:00,
2013-03-02 04:56:00,23.0,7.1,0.00,NW,305,0.0,0.0,50,0.00,,---,0.00,VWS V14.00,2013-03-02 11:56:00,
2013-03-02 04:57:00,23.2,6.9,0.00,NW,310,0.0,0.0,49,0.00,,---,0.00,VWS V14.00,2013-03-02 11:57:00,
2013-03-02 04:58:00,23.2,6.9,0.00,WNW,299,0.0,0.0,49,0.00,,---,0.00,VWS V14.00,2013-03-02 11:58:00,
2013-03-02 04:59:00,23.2,6.9,0.00,NW,310,0.0,0.0,49,0.00,,---,0.00,VWS V14.00,2013-03-02 11:59:00,
2013-03-02 05:00:00,23.0,7.1,0.00,NW,305,0.0,0.0,50,0.00,,---,0.00,VWS V14.00,2013-03-02 12:00:00,
2013-03-02 05:01:00,23.0,7.1,0.00,NW,305,0.0,0.0,50,0.00,,---,0.00,VWS V14.00,2013-03-02 12:01:00,
2013-03-02 05:02:00,23.2,6.9,0.00,NW,308,0.0,0.0,49,0.00,,---,0.00,VWS V14.00,2013-03-02 12:02:00,
2013-03-02 05:03:00,23.2,6.9,0.00,NW,311,0.0,0.0,49,0.00,,---,0.00,VWS V14.00,2013-03-02 12:03:00,
2013-03-02 05:04:00,23.2,6.9,0.00,NW,310,0.0,0.0,49,0.00,,---,0.00,VWS V14.00,2013-03-02 12:04:00,
2013-03-02 05:05:00,23.0,6.7,0.00,NW,304,0.0,0.0,49,0.00,,---,0.00,VWS V14.00,2013-03-02 12:05:00,
2013-03-02 05:06:00,23.0,6.7,0.00,NW,305,0.0,0.0,49,0.00,,---,0.00,VWS V14.00,2013-03-02 12:06:00,
2013-03-02 05:07:00,23.2,6.9,0.00,NW,308,0.0,2.2,49,0.00,,---,0.00,VWS V14.00,2013-03-02 12:07:00,
2013-03-02 05:08:00,23.2,6.9,0.00,NW,307,0.0,0.0,49,0.00,,---,0.00,VWS V14.00,2013-03-02 12:08:00,
2013-03-02 05:09:00,23.2,6.9,0.00,WNW,295,0.0,0.0,49,0.00,,---,0.00,VWS V14.00,2013-03-02 12:09:00,
2013-03-02 05:10:00,22.8,6.5,0.00,NW,306,0.0,0.0,49,0.00,,---,0.00,VWS V14.00,2013-03-02 12:10:00,
2013-03-02 05:11:00,22.8,6.5,0.00,NW,306,0.0,0.0,49,0.00,,---,0.00,VWS V14.00,2013-03-02 12:11:00,
2013-03-02 05:12:00,23.2,6.9,0.00,WNW,302,0.0,0.0,49,0.00,,---,0.00,VWS V14.00,2013-03-02 12:12:00,
2013-03-02 05:13:00,23.2,6.9,0.00,NW,305,0.0,0.0,49,0.00,,---,0.00,VWS V14.00,2013-03-02 12:13:00,
2013-03-02 05:14:00,23.0,6.7,0.00,NW,305,0.0,0.0,49,0.00,,---,0.00,VWS V14.00,2013-03-02 12:14:00,
2013-03-02 05:15:00,22.8,6.5,0.00,NW,306,0.0,0.0,49,0.00,,---,0.00,VWS V14.00,2013-03-02 12:15:00,
2013-03-02 05:16:00,22.8,6.5,0.00,NW,306,0.0,0.0,49,0.00,,---,0.00,VWS V14.00,2013-03-02 12:16:00,
2013-03-02 05:17:00,23.0,6.7,0.00,WNW,295,0.0,0.0,49,0.00,,---,0.00,VWS V14.00,2013-03-02 12:17:00,
2013-03-02 05:18:00,23.0,6.7,0.00,WNW,299,0.0,0.0,49,0.00,,---,0.00,VWS V14.00,2013-03-02 12:18:00,
2013-03-02 05:19:00,23.0,6.7,0.00,NW,305,0.0,0.0,49,0.00,,---,0.00,VWS V14.00,2013-03-02 12:19:00,
2013-03-02 05:20:00,22.8,6.5,0.00,NW,306,0.0,0.0,49,0.00,,---,0.00,VWS V14.00,2013-03-02 12:20:00,
2013-03-02 05:21:00,22.8,6.5,0.00,NW,306,0.0,0.0,49,0.00,,---,0.00,VWS V14.00,2013-03-02 12:21:00,
2013-03-02 05:22:00,23.0,6.7,0.00,NW,304,0.0,0.0,49,0.00,,---,0.00,VWS V14.00,2013-03-02 12:22:00,
2013-03-02 05:23:00,23.0,6.7,0.00,WNW,301,0.0,0.0,49,0.00,,---,0.00,VWS V14.00,2013-03-02 12:23:00,
2013-03-02 05:24:00,23.0,6.7,0.00,NW,305,0.0,0.0,49,0.00,,---,0.00,VWS V14.00,2013-03-02 12:24:00,
2013-03-02 05:25:00,23.0,6.7,0.00,NW,305,0.0,0.0,49,0.00,,---,0.00,VWS V14.00,2013-03-02 12:25:00,
2013-03-02 05:26:00,22.8,6.5,0.00,NW,306,0.0,0.0,49,0.00,,---,0.00,VWS V14.00,2013-03-02 12:26:00,
2013-03-02 05:27:00,23.0,6.7,0.00,NW,305,0.0,0.0,49,0.00,,---,0.00,VWS V14.00,2013-03-02 12:27:00,
2013-03-02 05:28:00,23.0,6.7,0.00,NW,305,0.0,0.0,49,0.00,,---,0.00,VWS V14.00,2013-03-02 12:28:00,
2013-03-02 05:29:00,23.0,6.7,0.00,NW,305,0.0,0.0,49,0.00,,---,0.00,VWS V14.00,2013-03-02 12:29:00,
2013-03-02 05:30:00,23.0,7.1,0.00,NW,305,0.0,0.0,50,0.00,,---,0.00,VWS V14.00,2013-03-02 12:30:00,
2013-03-02 05:31:00,22.8,6.5,0.00,NW,306,0.0,0.0,49,0.00,,---,0.00,VWS V14.00,2013-03-02 12:31:00,
2013-03-02 05:32:00,23.0,7.1,0.00,NW,305,0.0,0.0,50,0.00,,---,0.00,VWS V14.00,2013-03-02 12:32:00,
2013-03-02 05:33:00,23.0,7.1,0.00,WNW,302,0.0,0.0,50,0.00,,---,0.00,VWS V14.00,2013-03-02 12:33:00,
2013-03-02 05:34:00,23.0,7.1,0.00,NW,304,0.0,0.0,50,0.00,,---,0.00,VWS V14.00,2013-03-02 12:34:00,
2013-03-02 05:35:00,23.0,7.1,0.00,NW,304,0.0,0.0,50,0.00,,---,0.00,VWS V14.00,2013-03-02 12:35:00,
2013-03-02 05:36:00,22.6,6.4,0.00,WNW,295,0.0,0.0,49,0.00,,---,0.00,VWS V14.00,2013-03-02 12:36:00,
2013-03-02 05:37:00,23.0,7.1,0.00,NW,304,0.0,0.0,50,0.00,,---,0.00,VWS V14.00,2013-03-02 12:37:00,
2013-03-02 05:38:00,23.0,7.1,0.00,NW,304,0.0,0.0,50,0.00,,---,0.00,VWS V14.00,2013-03-02 12:38:00,
2013-03-02 05:39:00,23.0,7.1,0.00,NW,305,0.0,0.0,50,0.00,,---,0.00,VWS V14.00,2013-03-02 12:39:00,
2013-03-02 05:40:00,23.0,7.1,0.00,NW,305,0.0,0.0,50,0.00,,---,0.00,VWS V14.00,2013-03-02 12:40:00,
2013-03-02 05:41:00,22.6,6.4,0.00,WNW,297,0.0,0.0,49,0.00,,---,0.00,VWS V14.00,2013-03-02 12:41:00,
2013-03-02 05:42:00,23.0,7.1,0.00,NW,305,0.0,0.0,50,0.00,,---,0.00,VWS V14.00,2013-03-02 12:42:00,
2013-03-02 05:43:00,22.6,6.4,0.00,NW,306,0.0,0.0,49,0.00,,---,0.00,VWS V14.00,2013-03-02 12:43:00,
2013-03-02 05:44:00,23.0,7.1,0.00,NW,304,0.0,0.0,50,0.00,,---,0.00,VWS V14.00,2013-03-02 12:44:00,
2013-03-02 05:45:00,23.0,7.1,0.00,NW,304,0.0,0.0,50,0.00,,---,0.00,VWS V14.00,2013-03-02 12:45:00,
2013-03-02 05:46:00,22.6,6.4,0.00,NW,306,0.0,0.0,49,0.00,,---,0.00,VWS V14.00,2013-03-02 12:46:00,
2013-03-02 05:47:00,23.0,7.1,0.00,NW,304,0.0,0.0,50,0.00,,---,0.00,VWS V14.00,2013-03-02 12:47:00,
2013-03-02 05:48:00,22.6,6.4,0.00,NW,306,0.0,0.0,49,0.00,,---,0.00,VWS V14.00,2013-03-02 12:48:00,
2013-03-02 05:49:00,23.0,7.1,0.00,NW,305,0.0,0.0,50,0.00,,---,0.00,VWS V14.00,2013-03-02 12:49:00,
2013-03-02 05:50:00,23.0,7.1,0.00,NW,304,0.0,0.0,50,0.00,,---,0.00,VWS V14.00,2013-03-02 12:50:00,
2013-03-02 05:51:00,22.5,6.2,0.00,NW,306,0.0,0.0,49,0.00,,---,0.00,VWS V14.00,2013-03-02 12:51:00,
2013-03-02 05:52:00,23.0,6.7,0.00,NW,304,0.0,3.6,49,0.00,,---,0.00,VWS V14.00,2013-03-02 12:52:00,
2013-03-02 05:53:00,22.5,6.2,0.00,NW,306,0.0,0.0,49,0.00,,---,0.00,VWS V14.00,2013-03-02 12:53:00,
2013-03-02 05:54:00,23.0,6.7,0.00,NW,305,0.0,0.0,49,0.00,,---,0.00,VWS V14.00,2013-03-02 12:54:00,
2013-03-02 05:55:00,23.0,6.7,0.00,NW,305,0.0,0.0,49,0.00,,---,0.00,VWS V14.00,2013-03-02 12:55:00,
2013-03-02 05:56:00,22.5,6.2,0.00,NW,306,0.0,0.0,49,0.00,,---,0.00,VWS V14.00,2013-03-02 12:56:00,
2013-03-02 05:57:00,22.5,5.8,0.00,NW,306,0.0,0.0,48,0.00,,---,0.00,VWS V14.00,2013-03-02 12:57:00,
2013-03-02 05:58:00,22.8,6.5,0.00,NW,306,0.0,0.0,49,0.00,,---,0.00,VWS V14.00,2013-03-02 12:58:00,
2013-03-02 05:59:00,22.8,6.5,0.00,NW,306,0.0,0.0,49,0.00,,---,0.00,VWS V14.00,2013-03-02 12:59:00,
2013-03-02 06:00:00,22.8,6.5,0.00,NW,306,0.0,0.0,49,0.00,,---,0.00,VWS V14.00,2013-03-02 13:00:00,
2013-03-02 06:01:00,22.5,5.8,0.00,WNW,301,0.0,0.0,48,0.00,,---,0.00,VWS V14.00,2013-03-02 13:01:00,
2013-03-02 06:02:00,22.5,5.8,0.00,WNW,301,0.0,0.0,48,0.00,,---,0.00,VWS V14.00,2013-03-02 13:02:00,
2013-03-02 06:03:00,22.8,6.5,0.00,NW,306,0.0,0.0,49,0.00,,---,0.00,VWS V14.00,2013-03-02 13:03:00,
2013-03-02 06:04:00,22.8,6.5,0.00,NW,306,0.0,0.0,49,0.00,,---,0.00,VWS V14.00,2013-03-02 13:04:00,
2013-03-02 06:05:00,22.8,6.5,0.00,NW,306,0.0,0.0,49,0.00,,---,0.00,VWS V14.00,2013-03-02 13:05:00,
2013-03-02 06:06:00,22.5,5.8,0.00,NW,306,0.0,0.0,48,0.00,,---,0.00,VWS V14.00,2013-03-02 13:06:00,
2013-03-02 06:07:00,22.5,5.8,0.00,NW,306,0.0,0.0,48,0.00,,---,0.00,VWS V14.00,2013-03-02 13:07:00,
2013-03-02 06:08:00,22.8,6.5,0.00,NW,306,0.0,0.0,49,0.00,,---,0.00,VWS V14.00,2013-03-02 13:08:00,
2013-03-02 06:09:00,22.8,6.5,0.00,NW,306,0.0,0.0,49,0.00,,---,0.00,VWS V14.00,2013-03-02 13:09:00,
2013-03-02 06:10:00,22.8,6.5,0.00,NW,306,0.0,0.0,49,0.00,,---,0.00,VWS V14.00,2013-03-02 13:10:00,
2013-03-02 06:11:00,22.5,6.2,0.00,NW,306,0.0,0.0,49,0.00,,---,0.00,VWS V14.00,2013-03-02 13:11:00,
2013-03-02 06:12:00,22.5,6.2,0.00,WNW,303,0.0,0.0,49,0.00,,---,0.00,VWS V14.00,2013-03-02 13:12:00,
2013-03-02 06:13:00,22.8,6.5,0.00,NW,306,0.0,0.0,49,0.00,,---,0.00,VWS V14.00,2013-03-02 13:13:00,
2013-03-02 06:14:00,22.8,6.5,0.00,NW,306,0.0,0.0,49,0.00,,---,0.00,VWS V14.00,2013-03-02 13:14:00,
2013-03-02 06:15:00,22.8,6.5,0.00,NW,306,0.0,0.0,49,0.00,,---,0.00,VWS V14.00,2013-03-02 13:15:00,
2013-03-02 06:16:00,22.3,5.6,0.00,WNW,297,0.0,0.0,48,0.00,,---,0.00,VWS V14.00,2013-03-02 13:16:00,
2013-03-02 06:17:00,22.3,5.6,0.00,NW,306,0.0,0.0,48,0.00,,---,0.00,VWS V14.00,2013-03-02 13:17:00,
2013-03-02 06:18:00,22.8,6.5,0.00,WNW,298,0.0,0.0,49,0.00,,---,0.00,VWS V14.00,2013-03-02 13:18:00,
2013-03-02 06:19:00,22.3,5.6,0.00,NW,306,0.0,0.0,48,0.00,,---,0.00,VWS V14.00,2013-03-02 13:19:00,
2013-03-02 06:20:00,22.8,6.5,0.00,NW,306,0.0,0.0,49,0.00,,---,0.00,VWS V14.00,2013-03-02 13:20:00,
2013-03-02 06:21:00,22.3,5.6,0.00,NW,306,0.0,0.0,48,0.00,,---,0.00,VWS V14.00,2013-03-02 13:21:00,
2013-03-02 06:22:00,22.3,6.0,0.00,NW,306,0.0,0.0,49,0.00,,---,0.00,VWS V14.00,2013-03-02 13:22:00,
2013-03-02 06:23:00,22.6,6.4,0.00,NW,306,0.0,0.0,49,0.00,,---,0.00,VWS V14.00,2013-03-02 13:23:00,
2013-03-02 06:24:00,22.3,6.0,0.00,WNW,295,0.0,0.0,49,0.00,,---,0.00,VWS V14.00,2013-03-02 13:24:00,
2013-03-02 06:25:00,22.6,6.4,0.00,WNW,295,0.0,0.0,49,0.00,,---,0.00,VWS V14.00,2013-03-02 13:25:00,
2013-03-02 06:26:00,22.3,6.0,0.00,NW,306,0.0,0.0,49,0.00,,---,0.00,VWS V14.00,2013-03-02 13:26:00,
2013-03-02 06:27:00,22.3,6.0,0.00,NW,306,0.0,0.0,49,0.00,,---,0.00,VWS V14.00,2013-03-02 13:27:00,
2013-03-02 06:28:00,22.6,6.4,0.00,WNW,303,0.0,0.0,49,0.00,,---,0.00,VWS V14.00,2013-03-02 13:28:00,
2013-03-02 06:29:00,22.3,6.0,0.00,NW,306,0.0,0.0,49,0.00,,---,0.00,VWS V14.00,2013-03-02 13:29:00,
2013-03-02 06:30:00,22.6,6.4,0.00,WNW,301,0.0,0.0,49,0.00,,---,0.00,VWS V14.00,2013-03-02 13:30:00,
2013-03-02 06:31:00,22.5,6.6,0.00,NW,306,0.0,0.0,50,0.00,,---,0.00,VWS V14.00,2013-03-02 13:31:00,
2013-03-02 06:32:00,22.5,6.6,0.00,NW,306,0.0,0.0,50,0.00,,---,0.00,VWS V14.00,2013-03-02 13:32:00,
2013-03-02 06:33:00,22.5,6.6,0.00,NW,306,0.0,0.0,50,0.00,,---,0.00,VWS V14.00,2013-03-02 13:33:00,
2013-03-02 06:34:00,22.6,6.4,0.00,WNW,301,0.0,0.0,49,0.00,,---,0.00,VWS V14.00,2013-03-02 13:34:00,
2013-03-02 06:35:00,22.6,6.4,0.00,NW,306,0.0,0.0,49,0.00,,---,0.00,VWS V14.00,2013-03-02 13:35:00,
2013-03-02 06:36:00,22.6,6.4,0.00,WNW,296,0.0,0.0,49,0.00,,---,0.00,VWS V14.00,2013-03-02 13:36:00,
2013-03-02 06:37:00,22.5,6.6,0.00,NW,306,0.0,0.0,50,0.00,,---,0.00,VWS V14.00,2013-03-02 13:37:00,
2013-03-02 06:38:00,22.5,6.6,0.00,NW,306,0.0,0.0,50,0.00,,---,0.00,VWS V14.00,2013-03-02 13:38:00,
2013-03-02 06:39:00,22.6,6.4,0.00,NW,306,0.0,0.0,49,0.00,,---,0.00,VWS V14.00,2013-03-02 13:39:00,
2013-03-02 06:40:00,22.5,6.2,0.00,NW,306,0.0,0.0,49,0.00,,---,0.00,VWS V14.00,2013-03-02 13:40:00,
2013-03-02 06:41:00,22.5,6.2,0.00,NW,306,0.0,0.0,49,0.00,,---,0.00,VWS V14.00,2013-03-02 13:41:00,
2013-03-02 06:42:00,22.5,6.6,0.00,NW,306,0.0,0.0,50,0.00,,---,0.00,VWS V14.00,2013-03-02 13:42:00,
2013-03-02 06:43:00,22.5,6.6,0.00,NW,306,0.0,0.0,50,0.00,,---,0.00,VWS V14.00,2013-03-02 13:43:00,
2013-03-02 06:44:00,22.5,6.2,0.00,NW,306,0.0,0.0,49,0.00,,---,0.00,VWS V14.00,2013-03-02 13:44:00,
2013-03-02 06:45:00,22.5,6.2,0.00,NW,306,0.0,0.0,49,0.00,,---,0.00,VWS V14.00,2013-03-02 13:45:00,
2013-03-02 06:46:00,22.5,5.8,0.00,NW,306,0.0,0.0,48,0.00,,---,0.00,VWS V14.00,2013-03-02 13:46:00,
2013-03-02 06:47:00,22.6,6.8,0.00,WNW,301,0.0,0.0,50,0.00,,---,0.00,VWS V14.00,2013-03-02 13:47:00,
2013-03-02 06:48:00,22.6,6.8,0.00,NW,306,0.0,0.0,50,0.00,,---,0.00,VWS V14.00,2013-03-02 13:48:00,
2013-03-02 06:49:00,22.5,5.8,0.00,WNW,300,0.0,0.0,48,0.00,,---,0.00,VWS V14.00,2013-03-02 13:49:00,
2013-03-02 06:50:00,22.5,5.8,0.00,NW,306,0.0,0.0,48,0.00,,---,0.00,VWS V14.00,2013-03-02 13:50:00,
2013-03-02 06:51:00,22.5,5.8,0.00,WNW,298,0.0,0.0,48,0.00,,---,0.00,VWS V14.00,2013-03-02 13:51:00,
2013-03-02 06:52:00,22.6,7.2,0.00,WNW,295,0.0,0.0,51,0.00,,---,0.00,VWS V14.00,2013-03-02 13:52:00,
2013-03-02 06:53:00,22.8,7.4,0.00,NW,306,0.0,0.0,51,0.00,,---,0.00,VWS V14.00,2013-03-02 13:53:00,
2013-03-02 06:54:00,22.5,5.8,0.00,WNW,295,0.0,0.0,48,0.00,,---,0.00,VWS V14.00,2013-03-02 13:54:00,
2013-03-02 06:55:00,22.5,5.8,0.00,NW,306,0.0,0.0,48,0.00,,---,0.00,VWS V14.00,2013-03-02 13:55:00,
2013-03-02 06:56:00,22.5,5.8,0.00,NW,306,0.0,0.0,48,0.00,,---,0.00,VWS V14.00,2013-03-02 13:56:00,
2013-03-02 06:57:00,22.8,7.4,0.00,WNW,299,0.0,0.0,51,0.00,,---,0.00,VWS V14.00,2013-03-02 13:57:00,
2013-03-02 06:58:00,22.8,7.4,0.00,NW,306,0.0,0.0,51,0.00,,---,0.00,VWS V14.00,2013-03-02 13:58:00,
2013-03-02 06:59:00,22.5,6.2,0.00,NW,306,0.0,0.0,49,0.00,,---,0.00,VWS V14.00,2013-03-02 13:59:00,
2013-03-02 07:00:00,22.5,6.2,0.00,NW,306,0.0,0.0,49,0.00,,---,0.00,VWS V14.00,2013-03-02 14:00:00,
2013-03-02 07:01:00,22.5,6.2,0.00,WNW,303,0.0,0.0,49,0.00,,---,0.00,VWS V14.00,2013-03-02 14:01:00,
2013-03-02 07:02:00,23.0,7.6,0.00,NW,305,0.0,0.0,51,0.00,,---,0.00,VWS V14.00,2013-03-02 14:02:00,
2013-03-02 07:03:00,23.0,7.6,0.00,NW,306,0.0,0.0,51,0.00,,---,0.00,VWS V14.00,2013-03-02 14:03:00,
2013-03-02 07:04:00,22.3,6.0,0.00,WNW,297,0.0,0.0,49,0.00,,---,0.00,VWS V14.00,2013-03-02 14:04:00,
2013-03-02 07:05:00,22.3,5.6,0.00,WNW,303,0.0,0.0,48,0.00,,---,0.00,VWS V14.00,2013-03-02 14:05:00,
2013-03-02 07:06:00,22.3,5.6,0.00,WNW,303,0.0,0.0,48,0.00,,---,0.00,VWS V14.00,2013-03-02 14:06:00,
2013-03-02 07:07:00,23.2,7.8,0.00,NW,306,0.0,0.0,51,0.00,,---,0.00,VWS V14.00,2013-03-02 14:07:00,
2013-03-02 07:08:00,23.2,7.8,0.00,NW,306,0.0,0.0,51,0.00,,---,0.00,VWS V14.00,2013-03-02 14:08:00,
2013-03-02 07:09:00,22.3,5.6,0.00,WNW,295,0.0,0.0,48,0.00,,---,0.00,VWS V14.00,2013-03-02 14:09:00,
2013-03-02 07:10:00,23.4,8.4,0.00,NW,306,0.0,0.0,52,0.00,,---,0.00,VWS V14.00,2013-03-02 14:10:00,
2013-03-02 07:11:00,22.3,6.0,0.00,NW,306,0.0,0.0,49,0.00,,---,0.00,VWS V14.00,2013-03-02 14:11:00,
2013-03-02 07:12:00,23.5,8.5,0.00,SW,219,0.0,0.0,52,0.00,,---,0.00,VWS V14.00,2013-03-02 14:12:00,
2013-03-02 07:13:00,23.7,8.7,0.00,SW,221,0.0,0.0,52,0.00,,---,0.00,VWS V14.00,2013-03-02 14:13:00,
2013-03-02 07:14:00,23.9,8.9,0.00,SSW,212,0.0,0.0,52,0.00,,---,0.00,VWS V14.00,2013-03-02 14:14:00,
2013-03-02 07:15:00,22.3,6.0,0.00,NW,306,0.0,0.0,49,0.00,,---,0.00,VWS V14.00,2013-03-02 14:15:00,
2013-03-02 07:16:00,22.3,6.0,0.00,NW,306,0.0,0.0,49,0.00,,---,0.00,VWS V14.00,2013-03-02 14:16:00,
2013-03-02 07:17:00,24.1,9.0,0.00,West,278,0.0,0.0,52,0.00,,---,0.00,VWS V14.00,2013-03-02 14:17:00,
2013-03-02 07:18:00,24.3,9.2,0.00,West,278,0.0,0.0,52,0.00,,---,0.00,VWS V14.00,2013-03-02 14:18:00,
2013-03-02 07:19:00,24.3,9.2,0.00,West,275,0.0,0.0,52,0.00,,---,0.00,VWS V14.00,2013-03-02 14:19:00,
2013-03-02 07:20:00,22.5,6.6,0.00,NW,306,0.0,0.0,50,0.00,,---,0.00,VWS V14.00,2013-03-02 14:20:00,
2013-03-02 07:21:00,22.5,6.6,0.00,NW,306,0.0,0.0,50,0.00,,---,0.00,VWS V14.00,2013-03-02 14:21:00,
2013-03-02 07:22:00,24.4,9.4,0.00,NE,38,0.0,0.0,52,0.00,,---,0.00,VWS V14.00,2013-03-02 14:22:00,
2013-03-02 07:23:00,24.4,9.4,0.00,NE,38,0.0,0.0,52,0.00,,---,0.00,VWS V14.00,2013-03-02 14:23:00,
2013-03-02 07:24:00,24.4,9.4,0.00,NE,38,0.0,0.0,52,0.00,,---,0.00,VWS V14.00,2013-03-02 14:24:00,
2013-03-02 07:25:00,22.5,6.6,0.00,NW,306,0.0,0.0,50,0.00,,---,0.00,VWS V14.00,2013-03-02 14:25:00,
2013-03-02 07:26:00,22.5,6.6,0.00,NW,306,0.0,0.0,50,0.00,,---,0.00,VWS V14.00,2013-03-02 14:26:00,
2013-03-02 07:27:00,24.8,9.7,0.00,NNE,33,0.0,0.0,52,0.00,,---,0.00,VWS V14.00,2013-03-02 14:27:00,
2013-03-02 07:28:00,24.8,9.7,0.00,NE,34,0.0,0.0,52,0.00,,---,0.00,VWS V14.00,2013-03-02 14:28:00,
2013-03-02 07:29:00,25.0,9.9,0.00,NE,34,0.0,0.0,52,0.00,,---,0.00,VWS V14.00,2013-03-02 14:29:00,
2013-03-02 07:30:00,22.5,6.6,0.00,NW,306,0.0,0.0,50,0.00,,---,0.00,VWS V14.00,2013-03-02 14:30:00,
2013-03-02 07:31:00,22.5,6.6,0.00,NW,306,0.0,0.0,50,0.00,,---,0.00,VWS V14.00,2013-03-02 14:31:00,
2013-03-02 07:32:00,25.2,10.0,0.00,West,261,0.0,0.0,52,0.00,,---,0.00,VWS V14.00,2013-03-02 14:32:00,
2013-03-02 07:33:00,25.3,10.2,0.00,WSW,252,0.0,0.0,52,0.00,,---,0.00,VWS V14.00,2013-03-02 14:33:00,
2013-03-02 07:34:00,25.3,10.2,0.00,WSW,257,0.0,0.0,52,0.00,,---,0.00,VWS V14.00,2013-03-02 14:34:00,
2013-03-02 07:35:00,22.6,6.8,0.00,NW,306,0.0,0.0,50,0.00,,---,0.00,VWS V14.00,2013-03-02 14:35:00,
2013-03-02 07:36:00,22.6,6.8,0.00,NW,306,0.0,0.0,50,0.00,,---,0.00,VWS V14.00,2013-03-02 14:36:00,
2013-03-02 07:37:00,25.5,10.4,0.00,West,278,0.0,0.0,52,0.00,,---,0.00,VWS V14.00,2013-03-02 14:37:00,
2013-03-02 07:38:00,25.7,10.5,0.00,West,278,0.0,0.0,52,0.00,,---,0.00,VWS V14.00,2013-03-02 14:38:00,
2013-03-02 07:39:00,25.7,10.5,0.00,West,278,0.0,0.0,52,0.00,,---,0.00,VWS V14.00,2013-03-02 14:39:00,
2013-03-02 07:40:00,22.6,7.2,0.00,WNW,297,0.0,0.0,51,0.00,,---,0.00,VWS V14.00,2013-03-02 14:40:00,
2013-03-02 07:41:00,22.6,7.2,0.00,WNW,301,0.0,0.0,51,0.00,,---,0.00,VWS V14.00,2013-03-02 14:41:00,
2013-03-02 07:42:00,26.1,10.9,0.00,West,278,0.0,0.0,52,0.00,,---,0.00,VWS V14.00,2013-03-02 14:42:00,
2013-03-02 07:43:00,26.2,11.0,0.00,West,275,0.0,0.0,52,0.00,,---,0.00,VWS V14.00,2013-03-02 14:43:00,
2013-03-02 07:44:00,26.2,11.0,0.00,West,259,0.0,0.0,52,0.00,,---,0.00,VWS V14.00,2013-03-02 14:44:00,
2013-03-02 07:45:00,22.8,7.4,0.00,WNW,302,0.0,0.0,51,0.00,,---,0.00,VWS V14.00,2013-03-02 14:45:00,
2013-03-02 07:46:00,22.8,7.4,0.00,NW,306,0.0,0.0,51,0.00,,---,0.00,VWS V14.00,2013-03-02 14:46:00,
2013-03-02 07:47:00,26.6,11.4,0.00,SW,234,0.0,0.0,52,0.00,,---,0.00,VWS V14.00,2013-03-02 14:47:00,
2013-03-02 07:48:00,26.8,11.5,0.00,SW,234,0.0,0.0,52,0.00,,---,0.00,VWS V14.00,2013-03-02 14:48:00,
2013-03-02 07:49:00,27.0,11.7,0.00,SW,234,0.0,0.0,52,0.00,,---,0.00,VWS V14.00,2013-03-02 14:49:00,
2013-03-02 07:50:00,23.0,7.6,0.00,NW,306,0.0,0.0,51,0.00,,---,0.00,VWS V14.00,2013-03-02 14:50:00,
2013-03-02 07:51:00,23.0,7.6,0.00,NW,306,0.0,0.0,51,0.00,,---,0.00,VWS V14.00,2013-03-02 14:51:00,
2013-03-02 07:52:00,27.1,11.9,0.00,SW,230,0.0,0.0,52,0.00,,---,0.00,VWS V14.00,2013-03-02 14:52:00,
2013-03-02 07:53:00,27.7,11.9,0.00,SW,231,0.0,0.0,51,0.00,,---,0.00,VWS V14.00,2013-03-02 14:53:00,
2013-03-02 07:54:00,28.6,12.8,0.00,SW,224,0.0,0.0,51,0.00,,---,0.00,VWS V14.00,2013-03-02 14:54:00,
2013-03-02 07:55:00,23.2,7.8,0.00,NW,306,0.0,0.0,51,0.00,,---,0.00,VWS V14.00,2013-03-02 14:55:00,
2013-03-02 07:56:00,23.2,7.8,0.00,NW,306,0.0,0.0,51,0.00,,---,0.00,VWS V14.00,2013-03-02 14:56:00,
2013-03-02 07:57:00,28.6,12.8,0.00,SW,230,0.0,0.0,51,0.00,,---,0.00,VWS V14.00,2013-03-02 14:57:00,
2013-03-02 07:58:00,28.6,12.3,0.00,SW,219,0.0,0.0,50,0.00,,---,0.00,VWS V14.00,2013-03-02 14:58:00,
2013-03-02 07:59:00,28.6,12.3,0.00,SW,219,0.0,0.0,50,0.00,,---,0.00,VWS V14.00,2013-03-02 14:59:00,
2013-03-02 08:00:00,28.6,12.8,0.00,SW,220,0.0,0.0,51,0.00,,---,0.00,VWS V14.00,2013-03-02 15:00:00,
2013-03-02 08:01:00,23.5,8.5,0.00,SW,219,0.0,0.0,52,0.00,,---,0.00,VWS V14.00,2013-03-02 15:01:00,
2013-03-02 08:02:00,28.6,12.8,0.00,SSW,200,0.0,0.0,51,0.00,,---,0.00,VWS V14.00,2013-03-02 15:02:00,
2013-03-02 08:03:00,28.8,12.9,0.00,SSW,197,0.0,0.0,51,0.00,,---,0.00,VWS V14.00,2013-03-02 15:03:00,
2013-03-02 08:04:00,28.8,12.9,0.00,SSW,197,0.0,0.0,51,0.00,,---,0.00,VWS V14.00,2013-03-02 15:04:00,
2013-03-02 08:05:00,28.9,13.1,0.00,SSW,197,0.0,0.0,51,0.00,,---,0.00,VWS V14.00,2013-03-02 15:05:00,
2013-03-02 08:06:00,24.1,9.0,0.00,West,278,0.0,0.0,52,0.00,,---,0.00,VWS V14.00,2013-03-02 15:06:00,
2013-03-02 08:07:00,29.1,13.3,0.00,SSW,197,0.0,0.0,51,0.00,,---,0.00,VWS V14.00,2013-03-02 15:07:00,
2013-03-02 08:08:00,29.3,13.4,0.00,ESE,104,2.7,4.0,51,0.00,,---,0.00,VWS V14.00,2013-03-02 15:08:00,
2013-03-02 08:09:00,29.5,13.6,0.00,ESE,116,6.3,6.3,51,0.00,,---,0.00,VWS V14.00,2013-03-02 15:09:00,
2013-03-02 08:10:00,29.5,13.6,0.00,ESE,116,0.0,6.3,51,0.00,,---,0.00,VWS V14.00,2013-03-02 15:10:00,
2013-03-02 08:11:00,24.4,9.4,0.00,NE,38,0.0,0.0,52,0.00,,---,0.00,VWS V14.00,2013-03-02 15:11:00,
2013-03-02 08:12:00,29.7,13.8,0.00,ESE,112,0.0,0.0,51,0.00,,---,0.00,VWS V14.00,2013-03-02 15:12:00,
2013-03-02 08:13:00,29.8,13.9,0.00,ESE,112,0.0,0.0,51,0.00,,---,0.00,VWS V14.00,2013-03-02 15:13:00,
2013-03-02 08:14:00,30.0,14.1,0.00,ESE,116,0.0,0.0,51,0.00,,---,0.00,VWS V14.00,2013-03-02 15:14:00,
2013-03-02 08:15:00,30.2,13.8,0.00,ESE,116,0.0,0.0,50,0.00,,---,0.00,VWS V14.00,2013-03-02 15:15:00,
2013-03-02 08:16:00,24.8,9.7,0.00,NNE,33,0.0,0.0,52,0.00,,---,0.00,VWS V14.00,2013-03-02 15:16:00,
2013-03-02 08:17:00,24.8,9.7,0.00,NE,34,0.0,0.0,52,0.00,,---,0.00,VWS V14.00,2013-03-02 15:17:00,
2013-03-02 08:18:00,30.6,14.1,0.00,ESE,115,0.0,2.2,50,0.00,,---,0.00,VWS V14.00,2013-03-02 15:18:00,
2013-03-02 08:19:00,30.6,14.1,0.00,ESE,116,0.0,3.1,50,0.00,,---,0.00,VWS V14.00,2013-03-02 15:19:00,
2013-03-02 08:20:00,30.7,14.3,0.00,ESE,116,0.0,0.0,50,0.00,,---,0.00,VWS V14.00,2013-03-02 15:20:00,
2013-03-02 08:21:00,25.2,10.0,0.00,West,262,0.0,0.0,52,0.00,,---,0.00,VWS V14.00,2013-03-02 15:21:00,
2013-03-02 08:22:00,25.3,10.2,0.00,WSW,252,0.0,0.0,52,0.00,,---,0.00,VWS V14.00,2013-03-02 15:22:00,
2013-03-02 08:23:00,31.1,14.6,0.00,ESE,116,0.0,3.1,50,0.00,,---,0.00,VWS V14.00,2013-03-02 15:23:00,
2013-03-02 08:24:00,31.3,14.8,0.00,ESE,117,0.0,0.0,50,0.00,,---,0.00,VWS V14.00,2013-03-02 15:24:00,
2013-03-02 08:25:00,31.3,14.8,0.00,ESE,116,2.7,2.7,50,0.00,,---,0.00,VWS V14.00,2013-03-02 15:25:00,
2013-03-02 08:26:00,25.5,10.4,0.00,West,278,0.0,0.0,52,0.00,,---,0.00,VWS V14.00,2013-03-02 15:26:00,
2013-03-02 08:27:00,25.7,10.5,0.00,West,278,0.0,0.0,52,0.00,,---,0.00,VWS V14.00,2013-03-02 15:27:00,
2013-03-02 08:28:00,31.6,14.7,0.00,ESE,113,0.0,0.0,49,0.00,,---,0.00,VWS V14.00,2013-03-02 15:28:00,
2013-03-02 08:29:00,31.8,14.9,0.00,ESE,109,0.0,3.1,49,0.00,,---,0.00,VWS V14.00,2013-03-02 15:29:00,
2013-03-02 08:30:00,32.0,15.0,0.00,ESE,115,0.0,2.2,49,0.00,,---,0.00,VWS V14.00,2013-03-02 15:30:00,
2013-03-02 08:31:00,26.1,10.9,0.00,West,277,0.0,0.0,52,0.00,,---,0.00,VWS V14.00,2013-03-02 15:31:00,
2013-03-02 08:32:00,26.2,11.0,0.00,West,275,0.0,0.0,52,0.00,,---,0.00,VWS V14.00,2013-03-02 15:32:00,
2013-03-02 08:33:00,32.4,15.4,0.00,ESE,123,2.7,2.7,49,0.00,,---,0.00,VWS V14.00,2013-03-02 15:33:00,
2013-03-02 08:34:00,32.5,15.5,0.00,ESE,123,2.2,3.1,49,0.00,,---,0.00,VWS V14.00,2013-03-02 15:34:00,
2013-03-02 08:35:00,32.5,15.5,0.00,ESE,122,2.2,2.2,49,0.00,,---,0.00,VWS V14.00,2013-03-02 15:35:00,
2013-03-02 08:36:00,26.6,11.4,0.00,SW,234,0.0,0.0,52,0.00,,---,0.00,VWS V14.00,2013-03-02 15:36:00,
2013-03-02 08:37:00,26.8,11.5,0.00,SW,234,0.0,0.0,52,0.00,,---,0.00,VWS V14.00,2013-03-02 15:37:00,
2013-03-02 08:38:00,32.9,15.9,0.00,ESE,110,2.2,5.8,49,0.00,,---,0.00,VWS V14.00,2013-03-02 15:38:00,
2013-03-02 08:39:00,33.1,15.5,0.00,ESE,120,0.0,2.2,48,0.00,,---,0.00,VWS V14.00,2013-03-02 15:39:00,
2013-03-02 08:40:00,33.1,15.5,0.00,WSW,254,0.0,2.2,48,0.00,,---,0.00,VWS V14.00,2013-03-02 15:40:00,
2013-03-02 08:41:00,27.3,12.0,0.00,SW,231,0.0,0.0,52,0.00,,---,0.00,VWS V14.00,2013-03-02 15:41:00,
2013-03-02 08:42:00,27.7,11.9,0.00,SW,231,0.0,0.0,51,0.00,,---,0.00,VWS V14.00,2013-03-02 15:42:00,
2013-03-02 08:43:00,33.4,15.9,0.00,ESE,122,0.0,2.7,48,0.00,,---,0.00,VWS V14.00,2013-03-02 15:43:00,
2013-03-02 08:44:00,33.6,16.0,0.00,ESE,122,0.0,0.0,48,0.00,,---,0.00,VWS V14.00,2013-03-02 15:44:00,
2013-03-02 08:45:00,33.8,16.2,0.00,ENE,73,0.0,3.1,48,0.00,,---,0.00,VWS V14.00,2013-03-02 15:45:00,
2013-03-02 08:46:00,28.6,12.8,0.00,SW,220,0.0,0.0,51,0.00,,---,0.00,VWS V14.00,2013-03-02 15:46:00,
2013-03-02 08:47:00,28.6,12.3,0.00,SW,219,0.0,0.0,50,0.00,,---,0.00,VWS V14.00,2013-03-02 15:47:00,
2013-03-02 08:48:00,34.2,16.0,0.00,East,96,4.9,4.9,47,0.00,,---,0.00,VWS V14.00,2013-03-02 15:48:00,
2013-03-02 08:49:00,34.2,16.0,0.00,ESE,105,2.7,4.9,47,0.00,,---,0.00,VWS V14.00,2013-03-02 15:49:00,
2013-03-02 08:50:00,34.3,16.2,0.00,ESE,105,0.0,3.1,47,0.00,,---,0.00,VWS V14.00,2013-03-02 15:50:00,
2013-03-02 08:51:00,28.8,12.9,0.00,SSW,200,0.0,0.0,51,0.00,,---,0.00,VWS V14.00,2013-03-02 15:51:00,
2013-03-02 08:52:00,28.8,12.9,0.00,SSW,197,0.0,0.0,51,0.00,,---,0.00,VWS V14.00,2013-03-02 15:52:00,
2013-03-02 08:53:00,34.7,16.5,0.00,SE,126,2.2,3.1,47,0.00,,---,0.00,VWS V14.00,2013-03-02 15:53:00,
2013-03-02 08:54:00,34.9,16.2,0.00,SE,126,0.0,2.2,46,0.00,,---,0.00,VWS V14.00,2013-03-02 15:54:00,
2013-03-02 08:55:00,34.9,16.2,0.00,SW,235,0.0,0.0,46,0.00,,---,0.00,VWS V14.00,2013-03-02 15:55:00,
2013-03-02 08:56:00,35.1,16.4,0.00,WSW,256,0.0,3.6,46,0.00,,---,0.00,VWS V14.00,2013-03-02 15:56:00,
2013-03-02 08:57:00,29.3,13.4,0.00,ESE,104,4.0,4.0,51,0.00,,---,0.00,VWS V14.00,2013-03-02 15:57:00,
2013-03-02 08:58:00,29.5,13.6,0.00,ESE,112,2.2,2.7,51,0.00,,---,0.00,VWS V14.00,2013-03-02 15:58:00,
2013-03-02 08:59:00,35.4,16.2,0.00,SSE,160,0.0,0.0,45,0.00,,---,0.00,VWS V14.00,2013-03-02 15:59:00,
2013-03-02 09:00:00,35.6,15.9,0.00,South,182,0.0,0.0,44,0.00,,---,0.00,VWS V14.00,2013-03-02 16:00:00,
2013-03-02 09:01:00,35.8,16.0,0.00,South,182,0.0,0.0,44,0.00,,---,0.00,VWS V14.00,2013-03-02 16:01:00,
2013-03-02 09:02:00,29.8,13.9,0.00,ESE,116,0.0,0.0,51,0.00,,---,0.00,VWS V14.00,2013-03-02 16:02:00,
2013-03-02 09:03:00,30.0,14.1,0.00,ESE,116,0.0,0.0,51,0.00,,---,0.00,VWS V14.00,2013-03-02 16:03:00,
2013-03-02 09:04:00,36.1,16.3,0.00,SSE,149,3.1,3.1,44,0.00,,---,0.00,VWS V14.00,2013-03-02 16:04:00,
2013-03-02 09:05:00,36.1,16.3,0.00,WSW,251,0.0,4.5,44,0.00,,---,0.00,VWS V14.00,2013-03-02 16:05:00,
2013-03-02 09:06:00,36.3,16.5,0.00,East,83,6.3,6.3,44,0.00,,---,0.00,VWS V14.00,2013-03-02 16:06:00,
2013-03-02 09:07:00,30.6,14.1,0.00,ESE,115,0.0,2.2,50,0.00,,---,0.00,VWS V14.00,2013-03-02 16:07:00,
2013-03-02 09:08:00,30.6,14.1,0.00,ESE,116,0.0,3.1,50,0.00,,---,0.00,VWS V14.00,2013-03-02 16:08:00,
2013-03-02 09:09:00,36.7,16.8,0.00,NW,311,2.2,4.0,44,0.00,,---,0.00,VWS V14.00,2013-03-02 16:09:00,
2013-03-02 09:10:00,36.7,16.8,0.00,West,264,0.0,2.2,44,0.00,,---,0.00,VWS V14.00,2013-03-02 16:10:00,
2013-03-02 09:11:00,36.9,17.0,0.00,East,85,4.0,4.0,44,0.00,,---,0.00,VWS V14.00,2013-03-02 16:11:00,
2013-03-02 09:12:00,31.1,14.6,0.00,ESE,117,0.0,0.0,50,0.00,,---,0.00,VWS V14.00,2013-03-02 16:12:00,
2013-03-02 09:13:00,31.3,14.8,0.00,ESE,117,0.0,0.0,50,0.00,,---,0.00,VWS V14.00,2013-03-02 16:13:00,
2013-03-02 09:14:00,37.2,17.3,0.00,SE,145,2.7,2.7,44,0.00,,---,0.00,VWS V14.00,2013-03-02 16:14:00,
2013-03-02 09:15:00,37.4,17.0,0.00,ESE,122,2.7,3.6,43,0.00,,---,0.00,VWS V14.00,2013-03-02 16:15:00,
2013-03-02 09:16:00,37.4,17.0,0.00,SE,124,0.0,2.7,43,0.00,,---,0.00,VWS V14.00,2013-03-02 16:16:00,
2013-03-02 09:17:00,31.6,14.7,0.00,ESE,113,2.2,2.2,49,0.00,,---,0.00,VWS V14.00,2013-03-02 16:17:00,
2013-03-02 09:18:00,31.8,14.9,0.00,ESE,113,2.2,2.2,49,0.00,,---,0.00,VWS V14.00,2013-03-02 16:18:00,
2013-03-02 09:19:00,37.8,17.3,0.00,ESE,112,2.7,4.9,43,0.00,,---,0.00,VWS V14.00,2013-03-02 16:19:00,
2013-03-02 09:20:00,37.9,17.5,0.00,East,97,3.6,5.4,43,0.00,,---,0.00,VWS V14.00,2013-03-02 16:20:00,
2013-03-02 09:21:00,37.9,17.5,0.00,East,96,3.1,3.6,43,0.00,,---,0.00,VWS V14.00,2013-03-02 16:21:00,
2013-03-02 09:22:00,32.4,15.4,0.00,ESE,123,2.7,2.7,49,0.00,,---,0.00,VWS V14.00,2013-03-02 16:22:00,
2013-03-02 09:23:00,32.5,15.5,0.00,ESE,123,2.2,3.1,49,0.00,,---,0.00,VWS V14.00,2013-03-02 16:23:00,
2013-03-02 09:24:00,38.5,17.9,0.00,ESE,111,0.0,0.0,43,0.00,,---,0.00,VWS V14.00,2013-03-02 16:24:00,
2013-03-02 09:25:00,38.7,18.1,0.00,ESE,112,0.0,0.0,43,0.00,,---,0.00,VWS V14.00,2013-03-02 16:25:00,
2013-03-02 09:26:00,38.7,18.1,0.00,ESE,112,0.0,0.0,43,0.00,,---,0.00,VWS V14.00,2013-03-02 16:26:00,
2013-03-02 09:27:00,32.9,15.9,0.00,ESE,110,0.0,2.2,49,0.00,,---,0.00,VWS V14.00,2013-03-02 16:27:00,
2013-03-02 09:28:00,33.1,15.5,0.00,ESE,121,0.0,0.0,48,0.00,,---,0.00,VWS V14.00,2013-03-02 16:28:00,
2013-03-02 09:29:00,39.2,18.0,0.00,SE,140,0.0,4.0,42,0.00,,---,0.00,VWS V14.00,2013-03-02 16:29:00,
2013-03-02 09:30:00,39.2,18.0,0.00,SE,132,3.1,3.1,42,0.00,,---,0.00,VWS V14.00,2013-03-02 16:30:00,
2013-03-02 09:31:00,39.4,18.2,0.00,ESE,120,0.0,4.0,42,0.00,,---,0.00,VWS V14.00,2013-03-02 16:31:00,
2013-03-02 09:32:00,33.6,16.0,0.00,ESE,122,0.0,0.0,48,0.00,,---,0.00,VWS V14.00,2013-03-02 16:32:00,
2013-03-02 09:33:00,33.6,16.0,0.00,ESE,122,0.0,0.0,48,0.00,,---,0.00,VWS V14.00,2013-03-02 16:33:00,
2013-03-02 09:34:00,39.6,18.4,0.00,ESE,122,0.0,0.0,42,0.00,,---,0.00,VWS V14.00,2013-03-02 16:34:00,
2013-03-02 09:35:00,39.7,18.5,0.00,SE,125,0.0,0.0,42,0.00,,---,0.00,VWS V14.00,2013-03-02 16:35:00,
2013-03-02 09:36:00,39.7,18.5,0.00,SE,133,3.1,3.1,42,0.00,,---,0.00,VWS V14.00,2013-03-02 16:36:00,
2013-03-02 09:37:00,34.2,16.0,0.00,East,98,2.7,4.9,47,0.00,,---,0.00,VWS V14.00,2013-03-02 16:37:00,
2013-03-02 09:38:00,34.2,16.0,0.00,East,101,3.1,3.1,47,0.00,,---,0.00,VWS V14.00,2013-03-02 16:38:00,
2013-03-02 09:39:00,40.1,18.3,0.00,South,183,0.0,0.0,41,0.00,,---,0.00,VWS V14.00,2013-03-02 16:39:00,
2013-03-02 09:40:00,40.3,18.5,0.00,South,183,0.0,2.2,41,0.00,,---,0.00,VWS V14.00,2013-03-02 16:40:00,
2013-03-02 09:41:00,40.3,18.5,0.00,SW,220,2.2,3.1,41,0.00,,---,0.00,VWS V14.00,2013-03-02 16:41:00,
2013-03-02 09:42:00,34.7,16.0,0.00,SE,126,0.0,2.2,46,0.00,,---,0.00,VWS V14.00,2013-03-02 16:42:00,
2013-03-02 09:43:00,34.9,16.2,0.00,ESE,122,0.0,0.0,46,0.00,,---,0.00,VWS V14.00,2013-03-02 16:43:00,
2013-03-02 09:44:00,40.6,18.8,0.00,SE,140,2.2,3.6,41,0.00,,---,0.00,VWS V14.00,2013-03-02 16:44:00,
2013-03-02 09:45:00,40.6,18.8,0.00,SE,134,3.1,3.1,41,0.00,,---,0.00,VWS V14.00,2013-03-02 16:45:00,
2013-03-02 09:46:00,40.8,19.0,0.00,SE,127,5.8,5.8,41,0.00,,---,0.00,VWS V14.00,2013-03-02 16:46:00,
2013-03-02 09:47:00,35.4,16.2,0.00,SSE,158,0.0,0.0,45,0.00,,---,0.00,VWS V14.00,2013-03-02 16:47:00,
2013-03-02 09:48:00,35.4,16.2,0.00,South,180,0.0,0.0,45,0.00,,---,0.00,VWS V14.00,2013-03-02 16:48:00,
2013-03-02 09:49:00,41.2,18.7,0.00,SE,141,0.0,2.7,40,0.00,,---,0.00,VWS V14.00,2013-03-02 16:49:00,
2013-03-02 09:50:00,41.2,18.7,0.00,SSW,213,0.0,0.0,40,0.00,,---,0.00,VWS V14.00,2013-03-02 16:50:00,
2013-03-02 09:51:00,41.2,18.7,0.00,SSW,213,0.0,0.0,40,0.00,,---,0.00,VWS V14.00,2013-03-02 16:51:00,
2013-03-02 09:52:00,36.1,16.4,0.00,SSE,168,0.0,0.0,44,0.00,,---,0.00,VWS V14.00,2013-03-02 16:52:00,
2013-03-02 09:53:00,36.1,16.4,0.00,SSE,149,3.1,3.1,44,0.00,,---,0.00,VWS V14.00,2013-03-02 16:53:00,
2013-03-02 09:54:00,41.4,18.9,0.00,SSW,192,0.0,2.2,40,0.00,,---,0.00,VWS V14.00,2013-03-02 16:54:00,
2013-03-02 09:55:00,41.5,19.0,0.00,ESE,105,5.4,5.4,40,0.00,,---,0.00,VWS V14.00,2013-03-02 16:55:00,
2013-03-02 09:56:00,41.5,19.0,0.00,ESE,111,2.2,5.4,40,0.00,,---,0.00,VWS V14.00,2013-03-02 16:56:00,
2013-03-02 09:57:00,36.7,16.8,0.00,SW,216,0.0,4.0,44,0.00,,---,0.00,VWS V14.00,2013-03-02 16:57:00,
2013-03-02 09:58:00,36.7,16.8,0.00,NW,311,2.2,4.0,44,0.00,,---,0.00,VWS V14.00,2013-03-02 16:58:00,
2013-03-02 09:59:00,41.7,19.2,0.00,ESE,115,0.0,0.0,40,0.00,,---,0.00,VWS V14.00,2013-03-02 16:59:00,
2013-03-02 10:00:00,41.7,19.2,0.00,ESE,102,2.7,5.4,40,0.00,,---,0.00,VWS V14.00,2013-03-02 17:00:00,
2013-03-02 10:01:00,41.9,19.4,0.00,ESE,122,0.0,3.6,40,0.00,,---,0.00,VWS V14.00,2013-03-02 17:01:00,
2013-03-02 10:02:00,41.9,19.4,0.00,ESE,108,2.7,2.7,40,0.00,,---,0.00,VWS V14.00,2013-03-02 17:02:00,
2013-03-02 10:03:00,37.2,17.3,0.00,SE,145,2.7,2.7,44,0.00,,---,0.00,VWS V14.00,2013-03-02 17:03:00,
2013-03-02 10:04:00,42.1,19.5,0.00,SE,130,0.0,3.1,40,0.00,,---,0.00,VWS V14.00,2013-03-02 17:04:00,
2013-03-02 10:05:00,42.1,19.5,0.00,SE,138,0.0,5.4,40,0.00,,---,0.00,VWS V14.00,2013-03-02 17:05:00,
2013-03-02 10:06:00,42.3,19.7,0.00,SE,138,0.0,0.0,40,0.00,,---,0.00,VWS V14.00,2013-03-02 17:06:00,
2013-03-02 10:07:00,42.3,19.7,0.00,SE,139,0.0,0.0,40,0.00,,---,0.00,VWS V14.00,2013-03-02 17:07:00,
2013-03-02 10:08:00,37.8,17.3,0.00,ESE,112,2.7,4.9,43,0.00,,---,0.00,VWS V14.00,2013-03-02 17:08:00,
2013-03-02 10:09:00,42.3,19.7,0.00,SE,140,0.0,2.2,40,0.00,,---,0.00,VWS V14.00,2013-03-02 17:09:00,
2013-03-02 10:10:00,42.4,19.8,0.00,ESE,117,0.0,3.6,40,0.00,,---,0.00,VWS V14.00,2013-03-02 17:10:00,
2013-03-02 10:11:00,42.4,19.8,0.00,South,177,0.0,0.0,40,0.00,,---,0.00,VWS V14.00,2013-03-02 17:11:00,
2013-03-02 10:12:00,42.4,19.8,0.00,ESE,121,0.0,2.7,40,0.00,,---,0.00,VWS V14.00,2013-03-02 17:12:00,
2013-03-02 10:13:00,38.5,17.9,0.00,ESE,111,0.0,0.0,43,0.00,,---,0.00,VWS V14.00,2013-03-02 17:13:00,
2013-03-02 10:14:00,42.6,20.0,0.00,ESE,122,0.0,2.7,40,0.00,,---,0.00,VWS V14.00,2013-03-02 17:14:00,
2013-03-02 10:15:00,42.6,20.0,0.00,ESE,120,0.0,2.7,40,0.00,,---,0.00,VWS V14.00,2013-03-02 17:15:00,
2013-03-02 10:16:00,42.6,20.0,0.00,ESE,111,0.0,0.0,40,0.00,,---,0.00,VWS V14.00,2013-03-02 17:16:00,
2013-03-02 10:17:00,42.8,19.6,0.00,ESE,108,3.6,3.6,39,0.00,,---,0.00,VWS V14.00,2013-03-02 17:17:00,
2013-03-02 10:18:00,39.2,18.0,0.00,SSE,148,0.0,0.0,42,0.00,,---,0.00,VWS V14.00,2013-03-02 17:18:00,
2013-03-02 10:19:00,39.2,18.0,0.00,SSE,148,2.2,2.2,42,0.00,,---,0.00,VWS V14.00,2013-03-02 17:19:00,
2013-03-02 10:20:00,42.8,19.6,0.00,SE,127,3.1,3.1,39,0.00,,---,0.00,VWS V14.00,2013-03-02 17:20:00,
2013-03-02 10:21:00,43.0,19.7,0.00,SE,127,0.0,3.1,39,0.00,,---,0.00,VWS V14.00,2013-03-02 17:21:00,
2013-03-02 10:22:00,43.0,19.7,0.00,SE,127,0.0,0.0,39,0.00,,---,0.00,VWS V14.00,2013-03-02 17:22:00,
2013-03-02 10:23:00,39.6,18.4,0.00,ESE,122,0.0,0.0,42,0.00,,---,0.00,VWS V14.00,2013-03-02 17:23:00,
2013-03-02 10:24:00,39.7,18.5,0.00,SE,125,0.0,0.0,42,0.00,,---,0.00,VWS V14.00,2013-03-02 17:24:00,
2013-03-02 10:25:00,43.2,19.9,0.00,East,91,3.1,3.6,39,0.00,,---,0.00,VWS V14.00,2013-03-02 17:25:00,
2013-03-02 10:26:00,43.2,19.9,0.00,ESE,104,2.2,3.1,39,0.00,,---,0.00,VWS V14.00,2013-03-02 17:26:00,
2013-03-02 10:27:00,43.3,20.1,0.00,SSW,208,0.0,2.2,39,0.00,,---,0.00,VWS V14.00,2013-03-02 17:27:00,
2013-03-02 10:28:00,40.1,18.3,0.00,South,183,0.0,0.0,41,0.00,,---,0.00,VWS V14.00,2013-03-02 17:28:00,
2013-03-02 10:29:00,40.3,18.5,0.00,South,184,0.0,0.0,41,0.00,,---,0.00,VWS V14.00,2013-03-02 17:29:00,
2013-03-02 10:30:00,43.3,20.1,0.00,ESE,111,3.1,3.1,39,0.00,,---,0.00,VWS V14.00,2013-03-02 17:30:00,
2013-03-02 10:31:00,43.5,20.2,0.00,ESE,113,3.1,3.6,39,0.00,,---,0.00,VWS V14.00,2013-03-02 17:31:00,
2013-03-02 10:32:00,43.5,20.2,0.00,ENE,63,0.0,3.1,39,0.00,,---,0.00,VWS V14.00,2013-03-02 17:32:00,
2013-03-02 10:33:00,40.6,18.8,0.00,SE,140,2.2,2.7,41,0.00,,---,0.00,VWS V14.00,2013-03-02 17:33:00,
2013-03-02 10:34:00,40.8,19.0,0.00,SE,135,0.0,3.1,41,0.00,,---,0.00,VWS V14.00,2013-03-02 17:34:00,
2013-03-02 10:35:00,43.7,20.4,0.00,ESE,108,0.0,0.0,39,0.00,,---,0.00,VWS V14.00,2013-03-02 17:35:00,
2013-03-02 10:36:00,43.7,20.4,0.00,ESE,108,0.0,0.0,39,0.00,,---,0.00,VWS V14.00,2013-03-02 17:36:00,
2013-03-02 10:37:00,43.7,20.4,0.00,ESE,103,2.2,3.6,39,0.00,,---,0.00,VWS V14.00,2013-03-02 17:37:00,
2013-03-02 10:38:00,41.2,18.7,0.00,SE,141,0.0,0.0,40,0.00,,---,0.00,VWS V14.00,2013-03-02 17:38:00,
2013-03-02 10:39:00,41.2,18.7,0.00,SSW,213,0.0,0.0,40,0.00,,---,0.00,VWS V14.00,2013-03-02 17:39:00,
2013-03-02 10:40:00,43.9,20.5,0.00,SW,222,0.0,0.0,39,0.00,,---,0.00,VWS V14.00,2013-03-02 17:40:00,
2013-03-02 10:41:00,43.9,20.5,0.00,SW,222,0.0,0.0,39,0.00,,---,0.00,VWS V14.00,2013-03-02 17:41:00,
2013-03-02 10:42:00,43.9,20.5,0.00,SW,222,0.0,0.0,39,0.00,,---,0.00,VWS V14.00,2013-03-02 17:42:00,
2013-03-02 10:43:00,41.5,19.0,0.00,SSW,192,0.0,0.0,40,0.00,,---,0.00,VWS V14.00,2013-03-02 17:43:00,
2013-03-02 10:44:00,41.5,19.0,0.00,ESE,105,5.4,5.4,40,0.00,,---,0.00,VWS V14.00,2013-03-02 17:44:00,
2013-03-02 10:45:00,44.1,20.1,0.00,ESE,110,0.0,0.0,38,0.04,,---,0.04,VWS V14.00,2013-03-02 17:45:00,
2013-03-02 10:46:00,44.1,20.1,0.00,ESE,110,0.0,0.0,38,0.04,,---,0.04,VWS V14.00,2013-03-02 17:46:00,
2013-03-02 10:47:00,44.1,20.1,0.00,South,181,0.0,0.0,38,0.04,,---,0.04,VWS V14.00,2013-03-02 17:47:00,
2013-03-02 10:48:00,41.7,19.2,0.00,ESE,115,0.0,0.0,40,0.00,,---,0.00,VWS V14.00,2013-03-02 17:48:00,
2013-03-02 10:49:00,41.9,19.4,0.00,ESE,102,2.7,2.7,40,0.00,,---,0.00,VWS V14.00,2013-03-02 17:49:00,
2013-03-02 10:50:00,44.2,20.3,0.00,SW,222,0.0,0.0,38,0.04,,---,0.04,VWS V14.00,2013-03-02 17:50:00,
2013-03-02 10:51:00,44.2,20.3,0.00,SW,222,0.0,0.0,38,0.04,,---,0.04,VWS V14.00,2013-03-02 17:51:00,
2013-03-02 10:52:00,44.2,20.3,0.00,South,182,0.0,0.0,38,0.04,,---,0.04,VWS V14.00,2013-03-02 17:52:00,
2013-03-02 10:53:00,42.1,19.5,0.00,SE,141,3.1,3.1,40,0.00,,---,0.00,VWS V14.00,2013-03-02 17:53:00,
2013-03-02 10:54:00,42.3,19.7,0.00,SE,138,0.0,0.0,40,0.00,,---,0.00,VWS V14.00,2013-03-02 17:54:00,
2013-03-02 10:55:00,44.2,20.3,0.00,ESE,105,4.9,4.9,38,0.04,,---,0.04,VWS V14.00,2013-03-02 17:55:00,
2013-03-02 10:56:00,44.2,20.3,0.00,ESE,111,2.7,4.9,38,0.04,,---,0.04,VWS V14.00,2013-03-02 17:56:00,
2013-03-02 10:57:00,44.2,20.3,0.00,ESE,115,4.0,4.0,38,0.04,,---,0.04,VWS V14.00,2013-03-02 17:57:00,
2013-03-02 10:58:00,42.4,19.8,0.00,SE,125,3.6,3.6,40,0.00,,---,0.00,VWS V14.00,2013-03-02 17:58:00,
2013-03-02 10:59:00,42.4,19.8,0.00,South,189,0.0,0.0,40,0.00,,---,0.00,VWS V14.00,2013-03-02 17:59:00,
2013-03-02 11:00:00,44.4,20.4,0.00,ESE,106,2.7,2.7,38,0.04,,---,0.04,VWS V14.00,2013-03-02 18:00:00,
2013-03-02 11:01:00,44.4,20.4,0.00,ESE,103,2.2,3.1,38,0.04,,---,0.04,VWS V14.00,2013-03-02 18:01:00,
2013-03-02 11:02:00,44.6,20.6,0.00,ESE,102,0.0,2.2,38,0.04,,---,0.04,VWS V14.00,2013-03-02 18:02:00,
2013-03-02 11:03:00,42.6,20.0,0.00,ESE,120,2.7,2.7,40,0.00,,---,0.00,VWS V14.00,2013-03-02 18:03:00,
2013-03-02 11:04:00,42.6,20.0,0.00,ESE,120,0.0,0.0,40,0.00,,---,0.00,VWS V14.00,2013-03-02 18:04:00,
2013-03-02 11:05:00,42.6,20.0,0.00,ESE,111,0.0,0.0,40,0.00,,---,0.00,VWS V14.00,2013-03-02 18:05:00,
2013-03-02 11:06:00,44.6,20.6,0.00,East,93,0.0,2.7,38,0.04,,---,0.04,VWS V14.00,2013-03-02 18:06:00,
2013-03-02 11:07:00,44.6,20.6,0.00,NE,52,2.2,2.2,38,0.04,,---,0.04,VWS V14.00,2013-03-02 18:07:00,
2013-03-02 11:08:00,42.8,19.6,0.00,SE,139,0.0,0.0,39,0.00,,---,0.00,VWS V14.00,2013-03-02 18:08:00,
2013-03-02 11:09:00,42.8,19.6,0.00,SE,127,0.0,3.1,39,0.00,,---,0.00,VWS V14.00,2013-03-02 18:09:00,
2013-03-02 11:10:00,43.0,19.7,0.00,SE,127,0.0,3.1,39,0.00,,---,0.00,VWS V14.00,2013-03-02 18:10:00,
2013-03-02 11:11:00,44.8,20.7,0.00,East,81,0.0,4.9,38,0.04,,---,0.04,VWS V14.00,2013-03-02 18:11:00,
2013-03-02 11:12:00,44.8,20.7,0.00,East,81,0.0,0.0,38,0.04,,---,0.04,VWS V14.00,2013-03-02 18:12:00,
2013-03-02 11:13:00,43.0,19.7,0.00,SE,131,3.6,3.6,39,0.00,,---,0.00,VWS V14.00,2013-03-02 18:13:00,
2013-03-02 11:14:00,43.2,19.9,0.00,ESE,105,2.2,3.1,39,0.00,,---,0.00,VWS V14.00,2013-03-02 18:14:00,
2013-03-02 11:15:00,43.2,19.9,0.00,ESE,105,2.2,3.1,39,0.00,,---,0.00,VWS V14.00,2013-03-02 18:15:00,
2013-03-02 11:16:00,45.0,20.9,0.00,East,96,2.7,3.1,38,0.04,,---,0.04,VWS V14.00,2013-03-02 18:16:00,
2013-03-02 11:17:00,45.0,20.9,0.00,ESE,102,3.6,4.0,38,0.04,,---,0.04,VWS V14.00,2013-03-02 18:17:00,
2013-03-02 11:18:00,43.3,20.1,0.00,ESE,111,2.7,3.1,39,0.00,,---,0.00,VWS V14.00,2013-03-02 18:18:00,
2013-03-02 11:19:00,45.1,21.1,0.00,ESE,102,0.0,0.0,38,0.04,,---,0.04,VWS V14.00,2013-03-02 18:19:00,
2013-03-02 11:20:00,43.5,20.2,0.00,ESE,113,2.7,3.6,39,0.00,,---,0.00,VWS V14.00,2013-03-02 18:20:00,
2013-03-02 11:21:00,45.1,21.1,0.00,East,95,2.7,2.7,38,0.04,,---,0.04,VWS V14.00,2013-03-02 18:21:00,
2013-03-02 11:22:00,45.1,21.1,0.00,NE,56,2.7,3.1,38,0.04,,---,0.04,VWS V14.00,2013-03-02 18:22:00,
2013-03-02 11:23:00,45.1,21.1,0.00,ESE,107,0.0,4.0,38,0.04,,---,0.04,VWS V14.00,2013-03-02 18:23:00,
2013-03-02 11:24:00,43.7,20.4,0.00,ESE,108,0.0,0.0,39,0.00,,---,0.00,VWS V14.00,2013-03-02 18:24:00,
2013-03-02 11:25:00,43.7,20.4,0.00,ESE,108,0.0,0.0,39,0.00,,---,0.00,VWS V14.00,2013-03-02 18:25:00,
2013-03-02 11:26:00,45.3,21.2,0.00,ENE,58,0.0,3.1,38,0.04,,---,0.04,VWS V14.00,2013-03-02 18:26:00,
2013-03-02 11:27:00,45.3,21.2,0.00,ENE,58,2.2,2.2,38,0.04,,---,0.04,VWS V14.00,2013-03-02 18:27:00,
2013-03-02 11:28:00,45.3,21.2,0.00,East,80,2.7,2.7,38,0.04,,---,0.04,VWS V14.00,2013-03-02 18:28:00,
2013-03-02 11:29:00,43.9,20.5,0.00,SW,222,0.0,0.0,39,0.00,,---,0.00,VWS V14.00,2013-03-02 18:29:00,
2013-03-02 11:30:00,43.9,20.5,0.00,SW,222,0.0,0.0,39,0.00,,---,0.00,VWS V14.00,2013-03-02 18:30:00,
2013-03-02 11:31:00,45.3,21.2,0.00,ESE,109,3.1,4.9,38,0.04,,---,0.04,VWS V14.00,2013-03-02 18:31:00,
2013-03-02 11:32:00,45.5,21.4,0.00,East,82,2.2,3.1,38,0.04,,---,0.04,VWS V14.00,2013-03-02 18:32:00,
2013-03-02 11:33:00,45.5,21.4,0.00,South,181,0.0,2.2,38,0.04,,---,0.04,VWS V14.00,2013-03-02 18:33:00,
2013-03-02 11:34:00,44.1,20.1,0.00,ESE,110,0.0,0.0,38,0.04,,---,0.04,VWS V14.00,2013-03-02 18:34:00,
2013-03-02 11:35:00,44.1,20.1,0.00,ESE,110,0.0,0.0,38,0.04,,---,0.04,VWS V14.00,2013-03-02 18:35:00,
2013-03-02 11:36:00,45.7,21.5,0.00,East,82,5.4,5.4,38,0.04,,---,0.04,VWS V14.00,2013-03-02 18:36:00,
2013-03-02 11:37:00,45.7,21.5,0.00,East,81,0.0,5.4,38,0.04,,---,0.04,VWS V14.00,2013-03-02 18:37:00,
2013-03-02 11:38:00,45.7,21.5,0.00,West,275,0.0,4.9,38,0.04,,---,0.04,VWS V14.00,2013-03-02 18:38:00,
2013-03-02 11:39:00,44.2,20.3,0.00,SW,222,0.0,0.0,38,0.04,,---,0.04,VWS V14.00,2013-03-02 18:39:00,
2013-03-02 11:40:00,44.2,20.3,0.00,SW,222,0.0,0.0,38,0.04,,---,0.04,VWS V14.00,2013-03-02 18:40:00,
2013-03-02 11:41:00,45.9,21.7,0.00,ENE,60,2.2,5.8,38,0.04,,---,0.04,VWS V14.00,2013-03-02 18:41:00,
2013-03-02 11:42:00,45.9,21.7,0.00,NNW,330,2.7,4.9,38,0.04,,---,0.04,VWS V14.00,2013-03-02 18:42:00,
2013-03-02 11:43:00,45.9,21.1,0.00,NW,317,2.2,2.7,37,0.04,,---,0.04,VWS V14.00,2013-03-02 18:43:00,
2013-03-02 11:44:00,44.2,20.3,0.00,ESE,107,4.0,4.9,38,0.04,,---,0.04,VWS V14.00,2013-03-02 18:44:00,
2013-03-02 11:45:00,44.2,20.3,0.00,ESE,111,2.2,2.7,38,0.04,,---,0.04,VWS V14.00,2013-03-02 18:45:00,
2013-03-02 11:46:00,45.9,21.7,0.00,SE,124,4.0,6.3,38,0.00,,---,0.04,VWS V14.00,2013-03-02 18:46:00,
2013-03-02 11:47:00,45.9,21.7,0.00,SE,141,4.0,4.0,38,0.00,,---,0.04,VWS V14.00,2013-03-02 18:47:00,
2013-03-02 11:48:00,45.9,21.7,0.00,NNE,28,3.1,4.0,38,0.00,,---,0.04,VWS V14.00,2013-03-02 18:48:00,
2013-03-02 11:49:00,44.4,20.4,0.00,ESE,105,0.0,2.7,38,0.04,,---,0.04,VWS V14.00,2013-03-02 18:49:00,
2013-03-02 11:50:00,44.6,20.6,0.00,ESE,103,0.0,2.2,38,0.04,,---,0.04,VWS V14.00,2013-03-02 18:50:00,
2013-03-02 11:51:00,45.9,21.1,0.00,ESE,103,2.7,3.1,37,0.00,,---,0.04,VWS V14.00,2013-03-02 18:51:00,
2013-03-02 11:52:00,45.9,21.1,0.00,East,97,3.6,3.6,37,0.00,,---,0.04,VWS V14.00,2013-03-02 18:52:00,
2013-03-02 11:53:00,45.9,21.1,0.00,South,185,0.0,5.4,37,0.00,,---,0.04,VWS V14.00,2013-03-02 18:53:00,
2013-03-02 11:54:00,44.6,20.6,0.00,East,93,0.0,2.7,38,0.04,,---,0.04,VWS V14.00,2013-03-02 18:54:00,
2013-03-02 11:55:00,44.6,20.6,0.00,East,86,0.0,0.0,38,0.04,,---,0.04,VWS V14.00,2013-03-02 18:55:00,
2013-03-02 11:56:00,45.9,21.1,0.00,ESE,104,3.1,8.7,37,0.00,,---,0.04,VWS V14.00,2013-03-02 18:56:00,
2013-03-02 11:57:00,45.9,21.1,0.00,SSE,160,2.7,4.0,37,0.00,,---,0.04,VWS V14.00,2013-03-02 18:57:00,
2013-03-02 11:58:00,45.9,21.1,0.00,ESE,115,6.7,7.6,37,0.00,,---,0.04,VWS V14.00,2013-03-02 18:58:00,
2013-03-02 11:59:00,44.8,20.7,0.00,East,81,4.9,4.9,38,0.04,,---,0.04,VWS V14.00,2013-03-02 18:59:00,
2013-03-02 12:00:00,44.8,20.7,0.00,East,81,0.0,0.0,38,0.04,,---,0.04,VWS V14.00,2013-03-02 19:00:00,
2013-03-02 12:01:00,45.9,20.4,0.00,East,97,3.6,6.3,36,0.00,,---,0.04,VWS V14.00,2013-03-02 19:01:00,
2013-03-02 12:02:00,45.9,20.4,0.00,SSE,156,4.9,5.4,36,0.00,,---,0.04,VWS V14.00,2013-03-02 19:02:00,
2013-03-02 12:03:00,46.0,20.6,0.00,East,85,5.8,5.8,36,0.00,,---,0.04,VWS V14.00,2013-03-02 19:03:00,
2013-03-02 12:04:00,46.0,20.6,0.00,ESE,112,4.0,7.6,36,0.00,,---,0.04,VWS V14.00,2013-03-02 19:04:00,
2013-03-02 12:05:00,45.0,20.9,0.00,East,96,2.7,3.1,38,0.04,,---,0.04,VWS V14.00,2013-03-02 19:05:00,
2013-03-02 12:06:00,46.0,20.6,0.00,SE,139,6.3,6.3,36,0.00,,---,0.04,VWS V14.00,2013-03-02 19:06:00,
2013-03-02 12:07:00,46.0,20.6,0.00,East,87,3.6,6.3,36,0.00,,---,0.04,VWS V14.00,2013-03-02 19:07:00,
2013-03-02 12:08:00,46.0,20.6,0.00,East,88,3.6,5.4,36,0.00,,---,0.04,VWS V14.00,2013-03-02 19:08:00,
2013-03-02 12:09:00,46.0,20.6,0.00,SSE,147,8.3,8.3,36,0.00,,---,0.04,VWS V14.00,2013-03-02 19:09:00,
2013-03-02 12:10:00,45.1,21.1,0.00,ESE,114,3.1,3.1,38,0.04,,---,0.04,VWS V14.00,2013-03-02 19:10:00,
2013-03-02 12:11:00,46.0,20.6,0.00,NE,56,2.7,5.8,36,0.00,,---,0.04,VWS V14.00,2013-03-02 19:11:00,
2013-03-02 12:12:00,46.2,20.8,0.00,SE,146,3.6,5.8,36,0.00,,---,0.04,VWS V14.00,2013-03-02 19:12:00,
2013-03-02 12:13:00,46.2,20.8,0.00,SE,130,6.3,7.6,36,0.00,,---,0.04,VWS V14.00,2013-03-02 19:13:00,
2013-03-02 12:14:00,46.2,20.8,0.00,SE,132,4.0,8.1,36,0.00,,---,0.04,VWS V14.00,2013-03-02 19:14:00,
2013-03-02 12:15:00,45.3,21.2,0.00,ENE,58,0.0,3.1,38,0.04,,---,0.04,VWS V14.00,2013-03-02 19:15:00,
2013-03-02 12:16:00,46.2,20.1,0.00,ESE,108,3.6,4.5,35,0.00,,---,0.04,VWS V14.00,2013-03-02 19:16:00,
2013-03-02 12:17:00,46.4,20.2,0.00,East,82,3.1,5.8,35,0.00,,---,0.04,VWS V14.00,2013-03-02 19:17:00,
2013-03-02 12:18:00,46.4,20.2,0.00,SE,125,6.3,6.3,35,0.00,,---,0.04,VWS V14.00,2013-03-02 19:18:00,
2013-03-02 12:19:00,46.4,20.2,0.00,East,96,5.4,6.3,35,0.00,,---,0.04,VWS V14.00,2013-03-02 19:19:00,
2013-03-02 12:20:00,45.3,21.2,0.00,ESE,109,3.1,4.9,38,0.04,,---,0.04,VWS V14.00,2013-03-02 19:20:00,
2013-03-02 12:21:00,46.4,20.2,0.00,SE,138,3.6,4.0,35,0.00,,---,0.04,VWS V14.00,2013-03-02 19:21:00,
2013-03-02 12:22:00,46.6,20.4,0.00,SE,138,2.2,3.6,35,0.00,,---,0.04,VWS V14.00,2013-03-02 19:22:00,
2013-03-02 12:23:00,46.6,20.4,0.00,South,189,3.6,3.6,35,0.00,,---,0.04,VWS V14.00,2013-03-02 19:23:00,
2013-03-02 12:24:00,46.6,20.4,0.00,ESE,116,4.0,4.0,35,0.00,,---,0.04,VWS V14.00,2013-03-02 19:24:00,
2013-03-02 12:25:00,45.7,21.5,0.00,ENE,77,5.4,5.4,38,0.04,,---,0.04,VWS V14.00,2013-03-02 19:25:00,
2013-03-02 12:26:00,46.6,20.4,0.00,SSW,203,0.0,4.9,35,0.00,,---,0.04,VWS V14.00,2013-03-02 19:26:00,
2013-03-02 12:27:00,46.6,20.4,0.00,WNW,291,4.0,4.0,35,0.00,,---,0.04,VWS V14.00,2013-03-02 19:27:00,
2013-03-02 12:28:00,46.8,20.6,0.00,ESE,112,4.5,4.5,35,0.00,,---,0.04,VWS V14.00,2013-03-02 19:28:00,
2013-03-02 12:29:00,46.8,20.6,0.00,SE,130,0.0,5.4,35,0.00,,---,0.04,VWS V14.00,2013-03-02 19:29:00,
2013-03-02 12:30:00,45.9,21.7,0.00,NE,42,2.7,2.7,38,0.04,,---,0.04,VWS V14.00,2013-03-02 19:30:00,
2013-03-02 12:31:00,46.8,20.6,0.00,ESE,107,2.7,3.1,35,0.00,,---,0.04,VWS V14.00,2013-03-02 19:31:00,
2013-03-02 12:32:00,46.8,19.9,0.00,East,80,4.0,5.4,34,0.00,,---,0.04,VWS V14.00,2013-03-02 19:32:00,
2013-03-02 12:33:00,46.8,19.9,0.00,South,182,0.0,5.4,34,0.00,,---,0.04,VWS V14.00,2013-03-02 19:33:00,
2013-03-02 12:34:00,46.8,19.9,0.00,South,181,0.0,3.6,34,0.00,,---,0.04,VWS V14.00,2013-03-02 19:34:00,
2013-03-02 12:35:00,45.9,21.7,0.00,SE,124,4.0,4.0,38,0.00,,---,0.04,VWS V14.00,2013-03-02 19:35:00,
2013-03-02 12:36:00,46.8,19.9,0.00,ESE,120,2.7,4.0,34,0.00,,---,0.04,VWS V14.00,2013-03-02 19:36:00,
2013-03-02 12:37:00,46.8,19.9,0.00,ESE,114,3.6,3.6,34,0.00,,---,0.04,VWS V14.00,2013-03-02 19:37:00,
2013-03-02 12:38:00,46.8,19.9,0.00,SSW,193,0.0,4.0,34,0.00,,---,0.04,VWS V14.00,2013-03-02 19:38:00,
2013-03-02 12:39:00,46.8,19.2,0.00,SSW,207,0.0,2.2,33,0.00,,---,0.04,VWS V14.00,2013-03-02 19:39:00,
2013-03-02 12:40:00,45.9,21.1,0.00,ESE,115,3.1,3.1,37,0.00,,---,0.04,VWS V14.00,2013-03-02 19:40:00,
2013-03-02 12:41:00,45.9,21.1,0.00,East,97,3.6,3.6,37,0.00,,---,0.04,VWS V14.00,2013-03-02 19:41:00,
2013-03-02 12:42:00,46.6,19.0,0.00,SE,133,3.1,4.9,33,0.00,,---,0.04,VWS V14.00,2013-03-02 19:42:00,
2013-03-02 12:43:00,46.6,19.0,0.00,SW,223,0.0,3.1,33,0.00,,---,0.04,VWS V14.00,2013-03-02 19:43:00,
2013-03-02 12:44:00,46.6,18.3,0.00,SSW,200,0.0,4.5,32,0.00,,---,0.04,VWS V14.00,2013-03-02 19:44:00,
2013-03-02 12:45:00,45.9,21.1,0.00,East,101,0.0,4.0,37,0.00,,---,0.04,VWS V14.00,2013-03-02 19:45:00,
2013-03-02 12:46:00,45.9,21.1,0.00,SSE,160,2.7,4.0,37,0.00,,---,0.04,VWS V14.00,2013-03-02 19:46:00,
2013-03-02 12:47:00,46.4,18.2,0.00,SE,141,5.4,8.3,32,0.00,,---,0.04,VWS V14.00,2013-03-02 19:47:00,
2013-03-02 12:48:00,46.4,18.2,0.00,SW,218,2.7,7.2,32,0.00,,---,0.04,VWS V14.00,2013-03-02 19:48:00,
2013-03-02 12:49:00,46.2,17.3,0.00,SSW,197,0.0,4.0,31,0.00,,---,0.04,VWS V14.00,2013-03-02 19:49:00,
2013-03-02 12:50:00,45.9,20.4,0.00,ESE,105,3.6,5.4,36,0.00,,---,0.04,VWS V14.00,2013-03-02 19:50:00,
2013-03-02 12:51:00,45.9,20.4,0.00,East,79,5.8,5.8,36,0.00,,---,0.04,VWS V14.00,2013-03-02 19:51:00,
2013-03-02 12:52:00,46.2,18.0,0.00,SE,144,4.9,5.4,32,0.00,,---,0.04,VWS V14.00,2013-03-02 19:52:00,
2013-03-02 12:53:00,46.2,18.0,0.00,SE,145,3.1,4.9,32,0.00,,---,0.04,VWS V14.00,2013-03-02 19:53:00,
2013-03-02 12:54:00,46.0,17.9,0.00,SSE,168,0.0,3.6,32,0.00,,---,0.04,VWS V14.00,2013-03-02 19:54:00,
2013-03-02 12:55:00,46.0,20.6,0.00,SE,126,5.4,6.3,36,0.00,,---,0.04,VWS V14.00,2013-03-02 19:55:00,
2013-03-02 12:56:00,46.0,20.6,0.00,NE,43,5.4,5.4,36,0.00,,---,0.04,VWS V14.00,2013-03-02 19:56:00,
2013-03-02 12:57:00,46.0,17.9,0.00,East,98,8.1,8.1,32,0.00,,---,0.04,VWS V14.00,2013-03-02 19:57:00,
2013-03-02 12:58:00,46.0,17.9,0.00,SSE,152,3.6,8.1,32,0.00,,---,0.04,VWS V14.00,2013-03-02 19:58:00,
2013-03-02 12:59:00,46.0,17.9,0.00,SE,131,6.7,6.7,32,0.00,,---,0.04,VWS V14.00,2013-03-02 19:59:00,
2013-03-02 13:00:00,46.2,20.8,0.00,NE,35,5.8,5.8,36,0.00,,---,0.04,VWS V14.00,2013-03-02 20:00:00,
2013-03-02 13:01:00,46.2,20.8,0.00,ESE,117,5.8,5.8,36,0.00,,---,0.04,VWS V14.00,2013-03-02 20:01:00,
2013-03-02 13:02:00,45.9,17.7,0.00,SSE,153,3.6,5.4,32,0.00,,---,0.04,VWS V14.00,2013-03-02 20:02:00,
2013-03-02 13:03:00,45.9,17.7,0.00,East,80,3.6,3.6,32,0.00,,---,0.04,VWS V14.00,2013-03-02 20:03:00,
2013-03-02 13:04:00,45.9,17.7,0.00,SE,133,3.1,4.0,32,0.00,,---,0.04,VWS V14.00,2013-03-02 20:04:00,
2013-03-02 13:05:00,46.4,20.2,0.00,ESE,106,3.6,5.8,35,0.00,,---,0.04,VWS V14.00,2013-03-02 20:05:00,
2013-03-02 13:06:00,46.4,20.2,0.00,SE,130,3.1,3.1,35,0.00,,---,0.04,VWS V14.00,2013-03-02 20:06:00,
2013-03-02 13:07:00,45.9,17.7,0.00,SSE,147,5.4,5.4,32,0.00,,---,0.04,VWS V14.00,2013-03-02 20:07:00,
2013-03-02 13:08:00,45.9,17.7,0.00,ESE,109,2.7,5.4,32,0.00,,---,0.04,VWS V14.00,2013-03-02 20:08:00,
2013-03-02 13:09:00,45.9,17.7,0.00,ESE,107,5.8,5.8,32,0.00,,---,0.04,VWS V14.00,2013-03-02 20:09:00,
2013-03-02 13:10:00,45.9,18.4,0.00,ESE,118,3.6,5.8,33,0.00,,---,0.04,VWS V14.00,2013-03-02 20:10:00,
2013-03-02 13:11:00,46.6,20.4,0.00,SE,138,2.2,3.6,35,0.00,,---,0.04,VWS V14.00,2013-03-02 20:11:00,
2013-03-02 13:12:00,45.9,18.4,0.00,SE,135,3.1,6.3,33,0.00,,---,0.04,VWS V14.00,2013-03-02 20:12:00,
2013-03-02 13:13:00,45.9,18.4,0.00,SSE,151,3.6,3.6,33,0.00,,---,0.04,VWS V14.00,2013-03-02 20:13:00,
2013-03-02 13:14:00,45.9,17.7,0.00,South,178,0.0,3.6,32,0.00,,---,0.04,VWS V14.00,2013-03-02 20:14:00,
2013-03-02 13:15:00,45.9,18.4,0.00,ESE,116,3.6,3.6,33,0.00,,---,0.04,VWS V14.00,2013-03-02 20:15:00,
2013-03-02 13:16:00,46.6,20.4,0.00,WSW,241,2.7,4.0,35,0.00,,---,0.04,VWS V14.00,2013-03-02 20:16:00,
2013-03-02 13:17:00,45.9,18.4,0.00,SE,133,0.0,0.0,33,0.00,,---,0.04,VWS V14.00,2013-03-02 20:17:00,
2013-03-02 13:18:00,45.9,18.4,0.00,South,183,0.0,5.4,33,0.00,,---,0.04,VWS V14.00,2013-03-02 20:18:00,
2013-03-02 13:19:00,45.7,18.2,0.00,NE,48,2.2,3.6,33,0.00,,---,0.04,VWS V14.00,2013-03-02 20:19:00,
2013-03-02 13:20:00,45.7,18.2,0.00,ESE,102,3.6,6.7,33,0.00,,---,0.04,VWS V14.00,2013-03-02 20:20:00,
2013-03-02 13:21:00,46.8,19.9,0.00,East,80,4.0,4.0,34,0.00,,---,0.04,VWS V14.00,2013-03-02 20:21:00,
2013-03-02 13:22:00,46.8,19.9,0.00,South,182,0.0,5.4,34,0.00,,---,0.04,VWS V14.00,2013-03-02 20:22:00,
2013-03-02 13:23:00,45.7,18.2,0.00,SE,129,4.0,4.0,33,0.00,,---,0.04,VWS V14.00,2013-03-02 20:23:00,
2013-03-02 13:24:00,45.7,18.2,0.00,SSE,158,0.0,4.0,33,0.00,,---,0.04,VWS V14.00,2013-03-02 20:24:00,
2013-03-02 13:25:00,45.7,18.2,0.00,ESE,109,2.2,2.7,33,0.00,,---,0.04,VWS V14.00,2013-03-02 20:25:00,
2013-03-02 13:26:00,46.8,19.9,0.00,SE,137,4.0,4.0,34,0.00,,---,0.04,VWS V14.00,2013-03-02 20:26:00,
2013-03-02 13:27:00,46.8,19.9,0.00,ESE,113,3.1,4.0,34,0.00,,---,0.04,VWS V14.00,2013-03-02 20:27:00,
2013-03-02 13:28:00,45.7,18.2,0.00,ESE,104,4.0,4.0,33,0.00,,---,0.04,VWS V14.00,2013-03-02 20:28:00,
2013-03-02 13:29:00,45.7,18.2,0.00,ESE,121,5.8,6.3,33,0.00,,---,0.04,VWS V14.00,2013-03-02 20:29:00,
2013-03-02 13:30:00,45.7,18.2,0.00,East,101,4.0,5.8,33,0.00,,---,0.04,VWS V14.00,2013-03-02 20:30:00,
2013-03-02 13:31:00,46.6,19.0,0.00,SSW,202,3.1,3.1,33,0.00,,---,0.04,VWS V14.00,2013-03-02 20:31:00,
2013-03-02 13:32:00,46.6,19.0,0.00,SW,223,0.0,3.1,33,0.00,,---,0.04,VWS V14.00,2013-03-02 20:32:00,
2013-03-02 13:33:00,45.9,18.4,0.00,ESE,102,5.4,6.7,33,0.00,,---,0.04,VWS V14.00,2013-03-02 20:33:00,
2013-03-02 13:34:00,45.7,17.5,0.00,SSE,151,4.0,5.4,32,0.00,,---,0.04,VWS V14.00,2013-03-02 20:34:00,
2013-03-02 13:35:00,45.7,17.5,0.00,East,100,3.1,5.4,32,0.00,,---,0.04,VWS V14.00,2013-03-02 20:35:00,
2013-03-02 13:36:00,46.4,18.2,0.00,West,277,7.2,7.2,32,0.00,,---,0.04,VWS V14.00,2013-03-02 20:36:00,
2013-03-02 13:37:00,46.4,18.2,0.00,SW,218,2.7,7.2,32,0.00,,---,0.04,VWS V14.00,2013-03-02 20:37:00,
2013-03-02 13:38:00,45.7,17.5,0.00,SE,130,8.1,8.1,32,0.00,,---,0.04,VWS V14.00,2013-03-02 20:38:00,
2013-03-02 13:39:00,45.7,17.5,0.00,East,83,3.6,8.7,32,0.00,,---,0.04,VWS V14.00,2013-03-02 20:39:00,
2013-03-02 13:40:00,45.5,17.4,0.00,SE,136,6.3,6.3,32,0.00,,---,0.04,VWS V14.00,2013-03-02 20:40:00,
2013-03-02 13:41:00,46.2,18.0,0.00,SE,144,3.1,4.9,32,0.00,,---,0.04,VWS V14.00,2013-03-02 20:41:00,
2013-03-02 13:42:00,46.2,18.0,0.00,SE,145,3.1,4.9,32,0.00,,---,0.04,VWS V14.00,2013-03-02 20:42:00,
2013-03-02 13:43:00,45.5,17.4,0.00,SE,128,9.2,9.2,32,0.00,,---,0.04,VWS V14.00,2013-03-02 20:43:00,
2013-03-02 13:44:00,45.5,17.4,0.00,SE,136,4.9,9.2,32,0.00,,---,0.04,VWS V14.00,2013-03-02 20:44:00,
2013-03-02 13:45:00,45.5,17.4,0.00,East,84,5.4,6.3,32,0.00,,---,0.04,VWS V14.00,2013-03-02 20:45:00,
2013-03-02 13:46:00,45.5,17.4,0.00,SE,134,5.4,5.4,32,0.00,,---,0.04,VWS V14.00,2013-03-02 20:46:00,
2013-03-02 13:47:00,46.0,17.9,0.00,SSE,149,4.0,8.1,32,0.00,,---,0.04,VWS V14.00,2013-03-02 20:47:00,
2013-03-02 13:48:00,45.5,18.1,0.00,SE,144,6.7,6.7,33,0.00,,---,0.04,VWS V14.00,2013-03-02 20:48:00,
2013-03-02 13:49:00,45.3,17.2,0.00,ESE,115,4.0,6.7,32,0.00,,---,0.04,VWS V14.00,2013-03-02 20:49:00,
2013-03-02 13:50:00,45.3,17.2,0.00,SE,126,7.6,8.7,32,0.00,,---,0.04,VWS V14.00,2013-03-02 20:50:00,
2013-03-02 13:51:00,45.3,17.2,0.00,ESE,118,3.6,7.6,32,0.00,,---,0.04,VWS V14.00,2013-03-02 20:51:00,
2013-03-02 13:52:00,45.9,17.7,0.00,ESE,117,2.7,3.6,32,0.00,,---,0.04,VWS V14.00,2013-03-02 20:52:00,
2013-03-02 13:53:00,45.9,17.7,0.00,SE,133,3.1,3.1,32,0.00,,---,0.04,VWS V14.00,2013-03-02 20:53:00,
2013-03-02 13:54:00,45.3,17.2,0.00,SE,132,2.7,4.0,32,0.00,,---,0.04,VWS V14.00,2013-03-02 20:54:00,
2013-03-02 13:55:00,45.3,17.2,0.00,NNE,22,2.7,2.7,32,0.00,,---,0.04,VWS V14.00,2013-03-02 20:55:00,
2013-03-02 13:56:00,45.1,17.1,0.00,ESE,120,5.4,5.4,32,0.00,,---,0.04,VWS V14.00,2013-03-02 20:56:00,
2013-03-02 13:57:00,45.9,17.7,0.00,ESE,109,2.7,5.4,32,0.00,,---,0.04,VWS V14.00,2013-03-02 20:57:00,
2013-03-02 13:58:00,45.9,18.4,0.00,ESE,118,3.6,5.8,33,0.00,,---,0.04,VWS V14.00,2013-03-02 20:58:00,
2013-03-02 13:59:00,45.1,17.1,0.00,SSE,150,5.8,6.3,32,0.00,,---,0.04,VWS V14.00,2013-03-02 20:59:00,
2013-03-02 14:00:00,45.1,17.1,0.00,NE,36,0.0,5.8,32,0.00,,---,0.04,VWS V14.00,2013-03-02 21:00:00,
2013-03-02 14:01:00,45.1,17.1,0.00,NE,38,3.6,5.4,32,0.00,,---,0.04,VWS V14.00,2013-03-02 21:01:00,
2013-03-02 14:02:00,45.9,18.4,0.00,SE,139,3.6,3.6,33,0.00,,---,0.04,VWS V14.00,2013-03-02 21:02:00,
2013-03-02 14:03:00,45.0,16.9,0.00,ESE,105,3.1,4.9,32,0.00,,---,0.04,VWS V14.00,2013-03-02 21:03:00,
2013-03-02 14:04:00,45.9,18.4,0.00,ESE,116,3.6,3.6,33,0.00,,---,0.04,VWS V14.00,2013-03-02 21:04:00,
2013-03-02 14:05:00,45.0,17.6,0.00,ENE,73,3.6,5.4,33,0.00,,---,0.04,VWS V14.00,2013-03-02 21:05:00,
2013-03-02 14:06:00,44.8,17.5,0.00,East,85,4.0,4.0,33,0.00,,---,0.04,VWS V14.00,2013-03-02 21:06:00,
2013-03-02 14:07:00,45.9,18.4,0.00,South,183,0.0,5.4,33,0.00,,---,0.04,VWS V14.00,2013-03-02 21:07:00,
2013-03-02 14:08:00,44.8,17.5,0.00,SE,130,5.4,8.1,33,0.00,,---,0.04,VWS V14.00,2013-03-02 21:08:00,
2013-03-02 14:09:00,45.7,18.2,0.00,ESE,122,6.3,6.7,33,0.00,,---,0.04,VWS V14.00,2013-03-02 21:09:00,
2013-03-02 14:10:00,44.6,17.3,0.00,NNE,33,4.0,4.0,33,0.00,,---,0.04,VWS V14.00,2013-03-02 21:10:00,
2013-03-02 14:11:00,44.6,17.3,0.00,ESE,112,2.2,4.0,33,0.00,,---,0.04,VWS V14.00,2013-03-02 21:11:00,
2013-03-02 14:12:00,45.7,18.2,0.00,SE,128,2.7,4.0,33,0.00,,---,0.04,VWS V14.00,2013-03-02 21:12:00,
2013-03-02 14:13:00,44.6,17.3,0.00,East,91,5.4,7.6,33,0.00,,---,0.04,VWS V14.00,2013-03-02 21:13:00,
2013-03-02 14:14:00,45.7,18.2,0.00,ESE,109,2.2,2.7,33,0.00,,---,0.04,VWS V14.00,2013-03-02 21:14:00,
2013-03-02 14:15:00,44.4,17.1,0.00,SE,134,4.0,4.0,33,0.00,,---,0.04,VWS V14.00,2013-03-02 21:15:00,
2013-03-02 14:16:00,44.4,17.1,0.00,ESE,120,3.1,8.7,33,0.00,,---,0.04,VWS V14.00,2013-03-02 21:16:00,
2013-03-02 14:17:00,45.7,18.2,0.00,SE,133,5.4,6.3,33,0.00,,---,0.04,VWS V14.00,2013-03-02 21:17:00,
2013-03-02 14:18:00,44.4,17.1,0.00,East,100,3.6,5.8,33,0.00,,---,0.04,VWS V14.00,2013-03-02 21:18:00,
2013-03-02 14:19:00,45.7,18.2,0.00,East,101,4.0,4.0,33,0.00,,---,0.04,VWS V14.00,2013-03-02 21:19:00,
2013-03-02 14:20:00,44.4,17.1,0.00,ENE,63,2.2,3.1,33,0.00,,---,0.04,VWS V14.00,2013-03-02 21:20:00,
2013-03-02 14:21:00,44.2,17.0,0.00,ESE,115,3.1,3.6,33,0.00,,---,0.04,VWS V14.00,2013-03-02 21:21:00,
2013-03-02 14:22:00,45.9,18.4,0.00,ESE,102,5.4,6.7,33,0.00,,---,0.04,VWS V14.00,2013-03-02 21:22:00,
2013-03-02 14:23:00,44.2,17.0,0.00,SE,126,5.4,8.7,33,0.00,,---,0.04,VWS V14.00,2013-03-02 21:23:00,
2013-03-02 14:24:00,45.7,17.5,0.00,East,100,3.1,3.1,32,0.00,,---,0.04,VWS V14.00,2013-03-02 21:24:00,
2013-03-02 14:25:00,44.4,17.1,0.00,ESE,120,3.6,8.1,33,0.00,,---,0.04,VWS V14.00,2013-03-02 21:25:00,
2013-03-02 14:26:00,44.4,17.1,0.00,ESE,114,6.3,6.3,33,0.00,,---,0.04,VWS V14.00,2013-03-02 21:26:00,
2013-03-02 14:27:00,45.7,17.5,0.00,ESE,123,8.7,8.7,32,0.00,,---,0.04,VWS V14.00,2013-03-02 21:27:00,
2013-03-02 14:28:00,45.7,17.5,0.00,East,83,3.6,8.7,32,0.00,,---,0.04,VWS V14.00,2013-03-02 21:28:00,
2013-03-02 14:29:00,45.5,17.4,0.00,SE,136,6.3,6.3,32,0.00,,---,0.04,VWS V14.00,2013-03-02 21:29:00,
2013-03-02 14:30:00,44.6,17.3,0.00,SE,125,3.1,8.3,33,0.00,,---,0.04,VWS V14.00,2013-03-02 21:30:00,
2013-03-02 14:31:00,44.6,17.3,0.00,ENE,71,3.6,3.6,33,0.00,,---,0.04,VWS V14.00,2013-03-02 21:31:00,
2013-03-02 14:32:00,45.5,17.4,0.00,ESE,119,8.3,9.2,32,0.00,,---,0.04,VWS V14.00,2013-03-02 21:32:00,
2013-03-02 14:33:00,45.5,17.4,0.00,SE,125,5.4,9.2,32,0.00,,---,0.04,VWS V14.00,2013-03-02 21:33:00,
2013-03-02 14:34:00,45.5,17.4,0.00,East,85,3.1,5.4,32,0.00,,---,0.04,VWS V14.00,2013-03-02 21:34:00,
2013-03-02 14:35:00,44.8,17.5,0.00,East,93,3.6,7.6,33,0.00,,---,0.04,VWS V14.00,2013-03-02 21:35:00,
2013-03-02 14:36:00,45.0,17.6,0.00,NE,41,3.1,6.3,33,0.00,,---,0.04,VWS V14.00,2013-03-02 21:36:00,
2013-03-02 14:37:00,45.3,17.2,0.00,ESE,109,5.8,6.7,32,0.00,,---,0.04,VWS V14.00,2013-03-02 21:37:00,
2013-03-02 14:38:00,45.3,17.2,0.00,ESE,115,4.0,6.7,32,0.00,,---,0.04,VWS V14.00,2013-03-02 21:38:00,
2013-03-02 14:39:00,45.3,17.2,0.00,SSE,148,5.8,7.6,32,0.00,,---,0.04,VWS V14.00,2013-03-02 21:39:00,
2013-03-02 14:40:00,45.1,17.8,0.00,ENE,73,5.4,6.3,33,0.00,,---,0.04,VWS V14.00,2013-03-02 21:40:00,
2013-03-02 14:41:00,45.1,17.1,0.00,East,82,5.4,9.2,32,0.00,,---,0.04,VWS V14.00,2013-03-02 21:41:00,
2013-03-02 14:42:00,45.3,17.2,0.00,ESE,115,2.2,3.6,32,0.00,,---,0.04,VWS V14.00,2013-03-02 21:42:00,
2013-03-02 14:43:00,45.3,17.2,0.00,SE,132,2.7,2.7,32,0.00,,---,0.04,VWS V14.00,2013-03-02 21:43:00,
2013-03-02 14:44:00,45.3,17.2,0.00,ESE,120,3.6,3.6,32,0.00,,---,0.04,VWS V14.00,2013-03-02 21:44:00,
2013-03-02 14:45:00,45.3,17.2,0.00,SE,146,10.5,10.5,32,0.00,,---,0.04,VWS V14.00,2013-03-02 21:45:00,
2013-03-02 14:46:00,45.3,17.2,0.00,SE,127,4.0,10.5,32,0.00,,---,0.04,VWS V14.00,2013-03-02 21:46:00,
2013-03-02 14:47:00,45.1,17.1,0.00,NE,54,5.8,6.3,32,0.00,,---,0.04,VWS V14.00,2013-03-02 21:47:00,
2013-03-02 14:48:00,45.1,17.1,0.00,ENE,63,4.0,5.8,32,0.00,,---,0.04,VWS V14.00,2013-03-02 21:48:00,
2013-03-02 14:49:00,45.1,17.1,0.00,ESE,104,3.6,3.6,32,0.00,,---,0.04,VWS V14.00,2013-03-02 21:49:00,
2013-03-02 14:50:00,45.5,17.4,0.00,SSE,152,4.0,8.3,32,0.00,,---,0.04,VWS V14.00,2013-03-02 21:50:00,
2013-03-02 14:51:00,45.5,17.4,0.00,SSW,198,0.0,4.0,32,0.00,,---,0.04,VWS V14.00,2013-03-02 21:51:00,
2013-03-02 14:52:00,45.0,16.9,0.00,East,83,6.3,6.3,32,0.00,,---,0.04,VWS V14.00,2013-03-02 21:52:00,
2013-03-02 14:53:00,45.0,17.6,0.00,ESE,118,2.7,5.4,33,0.00,,---,0.04,VWS V14.00,2013-03-02 21:53:00,
2013-03-02 14:54:00,45.0,17.6,0.00,East,89,2.7,3.6,33,0.00,,---,0.04,VWS V14.00,2013-03-02 21:54:00,
2013-03-02 14:55:00,45.7,17.5,0.00,East,95,0.0,4.9,32,0.00,,---,0.04,VWS V14.00,2013-03-02 21:55:00,
2013-03-02 14:56:00,45.7,17.5,0.00,SE,145,4.0,4.0,32,0.00,,---,0.04,VWS V14.00,2013-03-02 21:56:00,
2013-03-02 14:57:00,44.8,17.5,0.00,East,83,4.5,5.4,33,0.00,,---,0.04,VWS V14.00,2013-03-02 21:57:00,
2013-03-02 14:58:00,44.8,17.5,0.00,NE,56,3.6,3.6,33,0.00,,---,0.04,VWS V14.00,2013-03-02 21:58:00,
2013-03-02 14:59:00,44.6,17.3,0.00,ESE,112,3.1,4.0,33,0.00,,---,0.04,VWS V14.00,2013-03-02 21:59:00,
2013-03-02 15:00:00,45.9,17.7,0.00,NNW,332,4.0,4.0,32,0.00,,---,0.04,VWS V14.00,2013-03-02 22:00:00,
2013-03-02 15:01:00,45.9,17.7,0.00,NW,311,2.7,4.0,32,0.00,,---,0.04,VWS V14.00,2013-03-02 22:01:00,
2013-03-02 15:02:00,46.0,17.9,0.00,NW,313,2.7,4.5,32,0.00,,---,0.04,VWS V14.00,2013-03-02 22:02:00,
2013-03-02 15:03:00,44.6,17.3,0.00,SSW,192,8.1,8.1,33,0.00,,---,0.04,VWS V14.00,2013-03-02 22:03:00,
2013-03-02 15:04:00,44.4,17.1,0.00,ENE,70,4.0,8.7,33,0.00,,---,0.04,VWS V14.00,2013-03-02 22:04:00,
2013-03-02 15:05:00,46.0,17.9,0.00,SSE,153,5.4,8.3,32,0.00,,---,0.04,VWS V14.00,2013-03-02 22:05:00,
2013-03-02 15:06:00,46.0,17.9,0.00,SE,124,2.7,5.4,32,0.00,,---,0.04,VWS V14.00,2013-03-02 22:06:00,
2013-03-02 15:07:00,44.4,17.1,0.00,East,101,3.6,6.3,33,0.00,,---,0.04,VWS V14.00,2013-03-02 22:07:00,
2013-03-02 15:08:00,44.4,17.1,0.00,East,101,3.6,6.3,33,0.00,,---,0.04,VWS V14.00,2013-03-02 22:08:00,
2013-03-02 15:09:00,44.2,17.0,0.00,ENE,69,2.7,3.6,33,0.00,,---,0.04,VWS V14.00,2013-03-02 22:09:00,
2013-03-02 15:10:00,46.2,18.0,0.00,NW,304,3.6,3.6,32,0.00,,---,0.04,VWS V14.00,2013-03-02 22:10:00,
2013-03-02 15:11:00,46.2,18.0,0.00,NW,320,5.4,5.4,32,0.00,,---,0.04,VWS V14.00,2013-03-02 22:11:00,
2013-03-02 15:12:00,46.2,17.3,0.00,SE,132,4.5,5.8,31,0.00,,---,0.04,VWS V14.00,2013-03-02 22:12:00,
2013-03-02 15:13:00,44.4,17.1,0.00,ESE,118,2.2,5.4,33,0.00,,---,0.04,VWS V14.00,2013-03-02 22:13:00,
2013-03-02 15:14:00,44.4,17.1,0.00,ESE,120,3.6,8.1,33,0.00,,---,0.04,VWS V14.00,2013-03-02 22:14:00,
2013-03-02 15:15:00,46.2,17.3,0.00,WNW,283,3.1,5.4,31,0.00,,---,0.04,VWS V14.00,2013-03-02 22:15:00,
2013-03-02 15:16:00,46.2,17.3,0.00,NNW,340,3.6,4.0,31,0.00,,---,0.04,VWS V14.00,2013-03-02 22:16:00,
2013-03-02 15:17:00,46.4,17.4,0.00,NE,40,4.0,6.3,31,0.00,,---,0.04,VWS V14.00,2013-03-02 22:17:00,
2013-03-02 15:18:00,44.6,17.3,0.00,SSE,168,5.4,5.4,33,0.00,,---,0.04,VWS V14.00,2013-03-02 22:18:00,
2013-03-02 15:19:00,44.6,17.3,0.00,ESE,118,2.7,8.3,33,0.00,,---,0.04,VWS V14.00,2013-03-02 22:19:00,
2013-03-02 15:20:00,46.4,17.4,0.00,SE,144,8.1,8.7,31,0.00,,---,0.04,VWS V14.00,2013-03-02 22:20:00,
2013-03-02 15:21:00,46.2,17.3,0.00,SW,216,2.2,8.7,31,0.00,,---,0.04,VWS V14.00,2013-03-02 22:21:00,
2013-03-02 15:22:00,46.2,17.3,0.00,ESE,102,2.7,3.1,31,0.00,,---,0.04,VWS V14.00,2013-03-02 22:22:00,
2013-03-02 15:23:00,44.8,17.5,0.00,South,185,4.0,5.8,33,0.00,,---,0.04,VWS V14.00,2013-03-02 22:23:00,
2013-03-02 15:24:00,44.8,17.5,0.00,East,99,5.8,5.8,33,0.00,,---,0.04,VWS V14.00,2013-03-02 22:24:00,
2013-03-02 15:25:00,45.0,17.6,0.00,NE,41,3.1,6.3,33,0.00,,---,0.04,VWS V14.00,2013-03-02 22:25:00,
2013-03-02 15:26:00,46.0,17.1,0.00,NW,312,0.0,2.7,31,0.00,,---,0.04,VWS V14.00,2013-03-02 22:26:00,
2013-03-02 15:27:00,46.0,17.1,0.00,West,277,2.2,4.0,31,0.00,,---,0.04,VWS V14.00,2013-03-02 22:27:00,
2013-03-02 15:28:00,45.0,17.6,0.00,NE,45,5.4,6.3,33,0.00,,---,0.04,VWS V14.00,2013-03-02 22:28:00,
2013-03-02 15:29:00,45.1,17.8,0.00,SE,143,9.2,9.2,33,0.00,,---,0.04,VWS V14.00,2013-03-02 22:29:00,
2013-03-02 15:30:00,45.1,17.1,0.00,SE,135,8.7,8.7,32,0.00,,---,0.04,VWS V14.00,2013-03-02 22:30:00,
2013-03-02 15:31:00,46.0,17.1,0.00,ESE,119,3.1,3.1,31,0.00,,---,0.04,VWS V14.00,2013-03-02 22:31:00,
2013-03-02 15:32:00,45.9,17.0,0.00,ESE,105,3.1,5.4,31,0.00,,---,0.04,VWS V14.00,2013-03-02 22:32:00,
2013-03-02 15:33:00,45.1,17.1,0.00,ESE,122,4.0,5.8,32,0.00,,---,0.04,VWS V14.00,2013-03-02 22:33:00,
2013-03-02 15:34:00,45.3,17.2,0.00,SE,146,10.5,10.5,32,0.00,,---,0.04,VWS V14.00,2013-03-02 22:34:00,
2013-03-02 15:35:00,45.3,17.2,0.00,ESE,104,5.4,8.1,32,0.00,,---,0.04,VWS V14.00,2013-03-02 22:35:00,
2013-03-02 15:36:00,45.9,17.0,0.00,ENE,74,4.9,7.6,31,0.00,,---,0.04,VWS V14.00,2013-03-02 22:36:00,
2013-03-02 15:37:00,45.9,17.0,0.00,East,100,2.7,4.9,31,0.00,,---,0.04,VWS V14.00,2013-03-02 22:37:00,
2013-03-02 15:38:00,45.5,17.4,0.00,SE,135,8.3,8.3,32,0.00,,---,0.04,VWS V14.00,2013-03-02 22:38:00,
2013-03-02 15:39:00,45.5,17.4,0.00,SSW,198,0.0,4.0,32,0.00,,---,0.04,VWS V14.00,2013-03-02 22:39:00,
2013-03-02 15:40:00,45.5,17.4,0.00,ESE,106,2.7,2.7,32,0.00,,---,0.04,VWS V14.00,2013-03-02 22:40:00,
2013-03-02 15:41:00,45.7,16.8,0.00,East,96,4.0,4.0,31,0.00,,---,0.04,VWS V14.00,2013-03-02 22:41:00,
2013-03-02 15:42:00,45.5,17.4,0.00,East,87,4.0,5.4,32,0.00,,---,0.04,VWS V14.00,2013-03-02 22:42:00,
2013-03-02 15:43:00,45.7,17.5,0.00,SE,131,3.1,3.6,32,0.00,,---,0.04,VWS V14.00,2013-03-02 22:43:00,
2013-03-02 15:44:00,45.7,17.5,0.00,SE,129,4.0,4.0,32,0.00,,---,0.04,VWS V14.00,2013-03-02 22:44:00,
2013-03-02 15:45:00,45.9,17.7,0.00,SE,138,2.7,4.0,32,0.00,,---,0.04,VWS V14.00,2013-03-02 22:45:00,
2013-03-02 15:46:00,45.5,17.4,0.00,SSE,167,0.0,3.1,32,0.00,,---,0.04,VWS V14.00,2013-03-02 22:46:00,
2013-03-02 15:47:00,45.3,17.2,0.00,ESE,123,2.7,4.0,32,0.00,,---,0.04,VWS V14.00,2013-03-02 22:47:00,
2013-03-02 15:48:00,45.9,17.7,0.00,ESE,103,0.0,0.0,32,0.00,,---,0.04,VWS V14.00,2013-03-02 22:48:00,
2013-03-02 15:49:00,45.9,17.7,0.00,NW,310,3.1,4.0,32,0.00,,---,0.04,VWS V14.00,2013-03-02 22:49:00,
2013-03-02 15:50:00,46.0,17.9,0.00,WNW,288,4.5,4.5,32,0.00,,---,0.04,VWS V14.00,2013-03-02 22:50:00,
2013-03-02 15:51:00,45.3,17.2,0.00,East,96,5.4,6.3,32,0.00,,---,0.04,VWS V14.00,2013-03-02 22:51:00,
2013-03-02 15:52:00,45.1,17.1,0.00,ESE,103,3.6,5.4,32,0.00,,---,0.04,VWS V14.00,2013-03-02 22:52:00,
2013-03-02 15:53:00,46.0,17.9,0.00,East,81,6.3,8.3,32,0.00,,---,0.04,VWS V14.00,2013-03-02 22:53:00,
2013-03-02 15:54:00,45.1,17.1,0.00,ESE,103,4.0,8.1,32,0.00,,---,0.04,VWS V14.00,2013-03-02 22:54:00,
2013-03-02 15:55:00,46.2,18.0,0.00,SSE,147,8.3,8.3,32,0.00,,---,0.04,VWS V14.00,2013-03-02 22:55:00,
2013-03-02 15:56:00,45.0,16.9,0.00,NE,50,2.7,4.9,32,0.00,,---,0.04,VWS V14.00,2013-03-02 22:56:00,
2013-03-02 15:57:00,44.8,16.7,0.00,ESE,106,3.6,5.4,32,0.00,,---,0.04,VWS V14.00,2013-03-02 22:57:00,
2013-03-02 15:58:00,46.2,18.0,0.00,NW,318,2.7,2.7,32,0.00,,---,0.04,VWS V14.00,2013-03-02 22:58:00,
2013-03-02 15:59:00,44.8,16.7,0.00,ESE,108,5.4,5.8,32,0.00,,---,0.04,VWS V14.00,2013-03-02 22:59:00,
2013-03-02 16:00:00,46.2,17.3,0.00,NW,316,2.7,5.8,31,0.00,,---,0.04,VWS V14.00,2013-03-02 23:00:00,
2013-03-02 16:01:00,46.2,17.3,0.00,NW,315,3.1,5.8,31,0.00,,---,0.04,VWS V14.00,2013-03-02 23:01:00,
2013-03-02 16:02:00,44.6,16.6,0.00,East,96,4.0,4.0,32,0.00,,---,0.04,VWS V14.00,2013-03-02 23:02:00,
2013-03-02 16:03:00,46.2,17.3,0.00,NNW,331,3.6,5.4,31,0.00,,---,0.04,VWS V14.00,2013-03-02 23:03:00,
2013-03-02 16:04:00,44.4,16.4,0.00,ESE,109,5.4,7.2,32,0.00,,---,0.04,VWS V14.00,2013-03-02 23:04:00,
2013-03-02 16:05:00,44.2,16.3,0.00,East,83,6.3,8.7,32,0.00,,---,0.04,VWS V14.00,2013-03-02 23:05:00,
2013-03-02 16:06:00,46.4,17.4,0.00,ENE,59,5.4,6.3,31,0.00,,---,0.04,VWS V14.00,2013-03-02 23:06:00,
2013-03-02 16:07:00,44.2,16.3,0.00,ENE,77,4.0,7.6,32,0.00,,---,0.04,VWS V14.00,2013-03-02 23:07:00,
2013-03-02 16:08:00,46.4,17.4,0.00,SE,143,8.7,8.7,31,0.00,,---,0.04,VWS V14.00,2013-03-02 23:08:00,
2013-03-02 16:09:00,44.1,16.1,0.00,East,100,4.9,5.4,32,0.00,,---,0.04,VWS V14.00,2013-03-02 23:09:00,
2013-03-02 16:10:00,43.9,15.9,0.00,East,90,3.1,4.9,32,0.00,,---,0.04,VWS V14.00,2013-03-02 23:10:00,
2013-03-02 16:11:00,46.2,17.3,0.00,South,170,0.0,3.1,31,0.00,,---,0.04,VWS V14.00,2013-03-02 23:11:00,
2013-03-02 16:12:00,43.7,15.8,0.00,ESE,109,4.0,5.4,32,0.00,,---,0.04,VWS V14.00,2013-03-02 23:12:00,
2013-03-02 16:13:00,46.0,17.1,0.00,NW,312,2.7,3.6,31,0.00,,---,0.04,VWS V14.00,2013-03-02 23:13:00,
2013-03-02 16:14:00,46.0,17.1,0.00,NW,315,2.7,3.6,31,0.00,,---,0.04,VWS V14.00,2013-03-02 23:14:00,
2013-03-02 16:15:00,43.7,15.8,0.00,ESE,109,3.1,7.2,32,0.00,,---,0.04,VWS V14.00,2013-03-02 23:15:00,
2013-03-02 16:16:00,46.0,17.1,0.00,West,277,2.2,4.0,31,0.00,,---,0.04,VWS V14.00,2013-03-02 23:16:00,
2013-03-02 16:17:00,43.5,16.3,0.00,ESE,115,5.4,6.3,33,0.00,,---,0.04,VWS V14.00,2013-03-02 23:17:00,
2013-03-02 16:18:00,46.0,17.9,0.00,WNW,283,4.9,4.9,32,0.00,,---,0.04,VWS V14.00,2013-03-02 23:18:00,
2013-03-02 16:19:00,46.0,17.9,0.00,WSW,244,0.0,0.0,32,0.00,,---,0.04,VWS V14.00,2013-03-02 23:19:00,
2013-03-02 16:20:00,43.3,16.2,0.00,East,96,3.1,5.4,33,0.00,,---,0.04,VWS V14.00,2013-03-02 23:20:00,
2013-03-02 16:21:00,45.9,17.0,0.00,ESE,111,5.8,5.8,31,0.00,,---,0.04,VWS V14.00,2013-03-02 23:21:00,
2013-03-02 16:22:00,43.2,16.0,0.00,ESE,122,4.0,4.0,33,0.00,,---,0.04,VWS V14.00,2013-03-02 23:22:00,
2013-03-02 16:23:00,45.9,17.0,0.00,SE,129,4.5,6.3,31,0.00,,---,0.04,VWS V14.00,2013-03-02 23:23:00,
2013-03-02 16:24:00,45.9,17.0,0.00,SE,141,5.8,5.8,31,0.00,,---,0.04,VWS V14.00,2013-03-02 23:24:00,
2013-03-02 16:25:00,43.0,15.9,0.00,East,93,3.6,5.8,33,0.00,,---,0.04,VWS V14.00,2013-03-02 23:25:00,
2013-03-02 16:26:00,45.9,17.0,0.00,East,100,2.7,2.7,31,0.00,,---,0.04,VWS V14.00,2013-03-02 23:26:00,
2013-03-02 16:27:00,43.0,15.9,0.00,East,83,2.2,4.0,33,0.00,,---,0.04,VWS V14.00,2013-03-02 23:27:00,
2013-03-02 16:28:00,45.7,16.8,0.00,South,185,4.0,5.4,31,0.00,,---,0.04,VWS V14.00,2013-03-02 23:28:00,
2013-03-02 16:29:00,45.7,16.8,0.00,SSE,156,0.0,2.7,31,0.00,,---,0.04,VWS V14.00,2013-03-02 23:29:00,
2013-03-02 16:30:00,42.8,15.7,0.00,ESE,119,2.7,5.8,33,0.00,,---,0.04,VWS V14.00,2013-03-02 23:30:00,
2013-03-02 16:31:00,45.5,17.4,0.00,East,87,4.0,4.0,32,0.00,,---,0.04,VWS V14.00,2013-03-02 23:31:00,
2013-03-02 16:32:00,42.8,15.7,0.00,SSE,151,0.0,3.1,33,0.00,,---,0.04,VWS V14.00,2013-03-02 23:32:00,
2013-03-02 16:33:00,45.5,16.6,0.00,East,80,3.1,3.1,31,0.00,,---,0.04,VWS V14.00,2013-03-02 23:33:00,
2013-03-02 16:34:00,45.5,16.6,0.00,ENE,78,2.2,3.1,31,0.00,,---,0.04,VWS V14.00,2013-03-02 23:34:00,
2013-03-02 16:35:00,42.4,16.1,0.00,SE,130,4.0,4.9,34,0.00,,---,0.04,VWS V14.00,2013-03-02 23:35:00,
2013-03-02 16:36:00,45.3,17.2,0.00,SE,131,5.8,5.8,32,0.00,,---,0.04,VWS V14.00,2013-03-02 23:36:00,
2013-03-02 16:37:00,42.4,16.1,0.00,NE,48,5.4,5.8,34,0.00,,---,0.04,VWS V14.00,2013-03-02 23:37:00,
2013-03-02 16:38:00,42.4,16.1,0.00,East,87,3.1,5.4,34,0.00,,---,0.04,VWS V14.00,2013-03-02 23:38:00,
2013-03-02 16:39:00,45.3,17.2,0.00,ESE,119,4.0,8.1,32,0.00,,---,0.04,VWS V14.00,2013-03-02 23:39:00,
2013-03-02 16:40:00,42.3,15.9,0.00,ESE,121,4.0,4.0,34,0.00,,---,0.04,VWS V14.00,2013-03-02 23:40:00,
2013-03-02 16:41:00,45.1,17.1,0.00,East,80,2.7,3.6,32,0.00,,---,0.04,VWS V14.00,2013-03-02 23:41:00,
2013-03-02 16:42:00,42.1,15.8,0.00,East,96,5.4,5.4,34,0.00,,---,0.04,VWS V14.00,2013-03-02 23:42:00,
2013-03-02 16:43:00,42.1,15.8,0.00,East,100,3.1,5.4,34,0.00,,---,0.04,VWS V14.00,2013-03-02 23:43:00,
2013-03-02 16:44:00,45.1,17.1,0.00,ENE,75,3.1,6.3,32,0.00,,---,0.04,VWS V14.00,2013-03-02 23:44:00,
2013-03-02 16:45:00,41.9,15.6,0.00,ESE,103,2.7,3.6,34,0.00,,---,0.04,VWS V14.00,2013-03-02 23:45:00,
2013-03-02 16:46:00,44.8,16.7,0.00,SE,130,3.1,5.8,32,0.00,,---,0.04,VWS V14.00,2013-03-02 23:46:00,
2013-03-02 16:47:00,41.9,15.6,0.00,ESE,104,0.0,0.0,34,0.00,,---,0.04,VWS V14.00,2013-03-02 23:47:00,
2013-03-02 16:48:00,41.7,15.4,0.00,SSE,157,4.0,4.0,34,0.00,,---,0.04,VWS V14.00,2013-03-02 23:48:00,
2013-03-02 16:49:00,44.6,16.6,0.00,ESE,104,3.6,5.8,32,0.00,,---,0.04,VWS V14.00,2013-03-02 23:49:00,
2013-03-02 16:50:00,41.7,15.4,0.00,East,93,0.0,4.0,34,0.00,,---,0.04,VWS V14.00,2013-03-02 23:50:00,
2013-03-02 16:51:00,44.6,16.6,0.00,SE,128,2.7,4.9,32,0.00,,---,0.04,VWS V14.00,2013-03-02 23:51:00,
2013-03-02 16:52:00,41.7,16.1,0.00,East,93,0.0,2.7,35,0.00,,---,0.04,VWS V14.00,2013-03-02 23:52:00,
2013-03-02 16:53:00,41.5,15.9,0.00,East,93,3.1,3.6,35,0.00,,---,0.04,VWS V14.00,2013-03-02 23:53:00,
2013-03-02 16:54:00,44.2,16.3,0.00,East,83,6.3,6.3,32,0.00,,---,0.04,VWS V14.00,2013-03-02 23:54:00,
2013-03-02 16:55:00,41.5,15.3,0.00,East,95,2.7,2.7,34,0.00,,---,0.04,VWS V14.00,2013-03-02 23:55:00,
2013-03-02 16:56:00,41.5,15.3,0.00,ESE,109,0.0,4.0,34,0.00,,---,0.04,VWS V14.00,2013-03-02 23:56:00,
2013-03-02 16:57:00,44.1,16.1,0.00,NE,44,4.9,7.6,32,0.00,,---,0.04,VWS V14.00,2013-03-02 23:57:00,
2013-03-02 16:58:00,41.4,15.1,0.00,ESE,110,0.0,0.0,34,0.00,,---,0.04,VWS V14.00,2013-03-02 23:58:00,
2013-03-02 16:59:00,43.9,15.9,0.00,NE,43,4.0,4.0,32,0.00,,---,0.04,VWS V14.00,2013-03-02 23:59:00,
2013-03-02 17:00:00,41.2,15.0,0.00,ESE,111,0.0,2.2,34,0.00,,---,0.04,VWS V14.00,2013-03-03 00:00:00,
2013-03-02 17:01:00,41.2,15.0,0.00,ESE,111,0.0,0.0,34,0.00,,---,0.04,VWS V14.00,2013-03-03 00:01:00,
2013-03-02 17:02:00,43.7,15.8,0.00,ESE,113,4.0,4.0,32,0.00,,---,0.04,VWS V14.00,2013-03-03 00:02:00,
2013-03-02 17:03:00,41.2,15.0,0.00,ESE,111,0.0,0.0,34,0.00,,---,0.04,VWS V14.00,2013-03-03 00:03:00,
2013-03-02 17:04:00,43.5,16.3,0.00,ESE,110,2.7,3.1,33,0.00,,---,0.04,VWS V14.00,2013-03-03 00:04:00,
2013-03-02 17:05:00,41.0,14.8,0.00,ESE,111,0.0,0.0,34,0.00,,---,0.04,VWS V14.00,2013-03-03 00:05:00,
2013-03-02 17:06:00,41.0,15.5,0.00,ESE,111,0.0,0.0,35,0.00,,---,0.04,VWS V14.00,2013-03-03 00:06:00,
2013-03-02 17:07:00,43.5,16.3,0.00,SE,125,3.6,8.1,33,0.00,,---,0.04,VWS V14.00,2013-03-03 00:07:00,
2013-03-02 17:08:00,41.0,15.5,0.00,ESE,111,0.0,0.0,35,0.00,,---,0.04,VWS V14.00,2013-03-03 00:08:00,
2013-03-02 17:09:00,43.3,16.2,0.00,East,97,2.7,3.1,33,0.00,,---,0.04,VWS V14.00,2013-03-03 00:09:00,
2013-03-02 17:10:00,40.8,15.3,0.00,ESE,111,0.0,3.1,35,0.00,,---,0.04,VWS V14.00,2013-03-03 00:10:00,
2013-03-02 17:11:00,40.8,15.3,0.00,ESE,118,2.7,3.1,35,0.00,,---,0.04,VWS V14.00,2013-03-03 00:11:00,
2013-03-02 17:12:00,43.2,16.0,0.00,East,101,2.7,2.7,33,0.00,,---,0.04,VWS V14.00,2013-03-03 00:12:00,
2013-03-02 17:13:00,40.6,15.1,0.00,NE,41,0.0,3.1,35,0.00,,---,0.04,VWS V14.00,2013-03-03 00:13:00,
2013-03-02 17:14:00,43.0,15.9,0.00,NE,44,4.0,4.9,33,0.00,,---,0.04,VWS V14.00,2013-03-03 00:14:00,
2013-03-02 17:15:00,43.0,15.9,0.00,ESE,121,3.1,5.8,33,0.00,,---,0.04,VWS V14.00,2013-03-03 00:15:00,
2013-03-02 17:16:00,40.6,15.1,0.00,East,82,0.0,0.0,35,0.00,,---,0.04,VWS V14.00,2013-03-03 00:16:00,
2013-03-02 17:17:00,42.8,15.7,0.00,ESE,112,2.2,4.0,33,0.00,,---,0.04,VWS V14.00,2013-03-03 00:17:00,
2013-03-02 17:18:00,40.5,15.0,0.00,ESE,114,2.2,5.8,35,0.00,,---,0.04,VWS V14.00,2013-03-03 00:18:00,
2013-03-02 17:19:00,42.8,15.7,0.00,ESE,119,0.0,2.7,33,0.00,,---,0.04,VWS V14.00,2013-03-03 00:19:00,
2013-03-02 17:20:00,42.8,15.7,0.00,SSE,157,2.7,2.7,33,0.00,,---,0.04,VWS V14.00,2013-03-03 00:20:00,
2013-03-02 17:21:00,40.3,14.8,0.00,ENE,63,0.0,3.6,35,0.00,,---,0.04,VWS V14.00,2013-03-03 00:21:00,
2013-03-02 17:22:00,42.6,16.2,0.00,ESE,120,4.9,5.8,34,0.00,,---,0.04,VWS V14.00,2013-03-03 00:22:00,
2013-03-02 17:23:00,40.3,14.8,0.00,East,86,0.0,2.7,35,0.00,,---,0.04,VWS V14.00,2013-03-03 00:23:00,
2013-03-02 17:24:00,42.4,16.1,0.00,ESE,117,3.1,4.0,34,0.00,,---,0.04,VWS V14.00,2013-03-03 00:24:00,
2013-03-02 17:25:00,42.4,16.1,0.00,ESE,117,3.6,3.6,34,0.00,,---,0.04,VWS V14.00,2013-03-03 00:25:00,
2013-03-02 17:26:00,40.1,14.7,0.00,ESE,116,0.0,0.0,35,0.00,,---,0.04,VWS V14.00,2013-03-03 00:26:00,
2013-03-02 17:27:00,42.4,16.1,0.00,ESE,103,3.6,5.8,34,0.00,,---,0.04,VWS V14.00,2013-03-03 00:27:00,
2013-03-02 17:28:00,39.9,14.5,0.00,ESE,116,0.0,0.0,35,0.00,,---,0.04,VWS V14.00,2013-03-03 00:28:00,
2013-03-02 17:29:00,42.3,15.9,0.00,East,95,0.0,4.0,34,0.00,,---,0.04,VWS V14.00,2013-03-03 00:29:00,
2013-03-02 17:30:00,42.3,15.9,0.00,East,94,2.7,2.7,34,0.00,,---,0.04,VWS V14.00,2013-03-03 00:30:00,
2013-03-02 17:31:00,39.9,14.5,0.00,ESE,116,0.0,0.0,35,0.00,,---,0.04,VWS V14.00,2013-03-03 00:31:00,
2013-03-02 17:32:00,42.1,15.8,0.00,SSW,201,2.2,3.1,34,0.00,,---,0.04,VWS V14.00,2013-03-03 00:32:00,
2013-03-02 17:33:00,39.7,14.3,0.00,ESE,116,0.0,0.0,35,0.00,,---,0.04,VWS V14.00,2013-03-03 00:33:00,
2013-03-02 17:34:00,39.7,14.3,0.00,East,97,3.1,3.1,35,0.00,,---,0.04,VWS V14.00,2013-03-03 00:34:00,
2013-03-02 17:35:00,41.9,15.6,0.00,ESE,104,0.0,2.7,34,0.00,,---,0.04,VWS V14.00,2013-03-03 00:35:00,
2013-03-02 17:36:00,39.6,14.2,0.00,ESE,110,0.0,2.7,35,0.00,,---,0.04,VWS V14.00,2013-03-03 00:36:00,
2013-03-02 17:37:00,41.7,15.4,0.00,SSE,157,2.7,4.0,34,0.00,,---,0.04,VWS V14.00,2013-03-03 00:37:00,
2013-03-02 17:38:00,39.6,14.2,0.00,ESE,110,0.0,0.0,35,0.00,,---,0.04,VWS V14.00,2013-03-03 00:38:00,
2013-03-02 17:39:00,39.4,14.0,0.00,ESE,111,0.0,0.0,35,0.00,,---,0.04,VWS V14.00,2013-03-03 00:39:00,
2013-03-02 17:40:00,41.7,15.4,0.00,East,93,0.0,0.0,34,0.00,,---,0.04,VWS V14.00,2013-03-03 00:40:00,
2013-03-02 17:41:00,39.4,14.0,0.00,East,88,0.0,3.1,35,0.00,,---,0.04,VWS V14.00,2013-03-03 00:41:00,
2013-03-02 17:42:00,41.5,15.3,0.00,East,88,0.0,3.1,34,0.00,,---,0.04,VWS V14.00,2013-03-03 00:42:00,
2013-03-02 17:43:00,39.2,13.9,0.00,East,94,0.0,0.0,35,0.00,,---,0.04,VWS V14.00,2013-03-03 00:43:00,
2013-03-02 17:44:00,39.2,13.9,0.00,NE,55,5.4,5.4,35,0.00,,---,0.04,VWS V14.00,2013-03-03 00:44:00,
2013-03-02 17:45:00,41.5,15.3,0.00,ESE,109,0.0,4.0,34,0.00,,---,0.04,VWS V14.00,2013-03-03 00:45:00,
2013-03-02 17:46:00,39.2,13.9,0.00,ESE,114,2.2,4.9,35,0.00,,---,0.04,VWS V14.00,2013-03-03 00:46:00,
2013-03-02 17:47:00,41.4,15.1,0.00,ESE,111,0.0,0.0,34,0.00,,---,0.04,VWS V14.00,2013-03-03 00:47:00,
2013-03-02 17:48:00,39.0,13.7,0.00,ESE,105,2.7,4.0,35,0.00,,---,0.04,VWS V14.00,2013-03-03 00:48:00,
2013-03-02 17:49:00,38.8,13.5,0.00,SE,124,4.9,4.9,35,0.00,,---,0.04,VWS V14.00,2013-03-03 00:49:00,
2013-03-02 17:50:00,41.2,15.0,0.00,ESE,111,0.0,0.0,34,0.00,,---,0.04,VWS V14.00,2013-03-03 00:50:00,
2013-03-02 17:51:00,38.8,14.2,0.00,ENE,70,5.4,5.4,36,0.00,,---,0.04,VWS V14.00,2013-03-03 00:51:00,
2013-03-02 17:52:00,41.2,15.0,0.00,ESE,111,0.0,0.0,34,0.00,,---,0.04,VWS V14.00,2013-03-03 00:52:00,
2013-03-02 17:53:00,41.2,15.0,0.00,ESE,111,0.0,0.0,34,0.00,,---,0.04,VWS V14.00,2013-03-03 00:53:00,
2013-03-02 17:54:00,38.7,14.0,0.00,SE,128,3.1,4.0,36,0.00,,---,0.04,VWS V14.00,2013-03-03 00:54:00,
2013-03-02 17:55:00,41.0,15.5,0.00,ESE,111,0.0,0.0,35,0.00,,---,0.04,VWS V14.00,2013-03-03 00:55:00,
2013-03-02 17:56:00,38.7,14.0,0.00,East,98,7.6,7.6,36,0.00,,---,0.04,VWS V14.00,2013-03-03 00:56:00,
2013-03-02 17:57:00,41.0,15.5,0.00,ESE,111,0.0,0.0,35,0.00,,---,0.04,VWS V14.00,2013-03-03 00:57:00,
2013-03-02 17:58:00,40.8,15.3,0.00,ESE,111,2.2,2.2,35,0.00,,---,0.04,VWS V14.00,2013-03-03 00:58:00,
2013-03-02 17:59:00,38.5,13.9,0.00,SE,139,3.1,3.6,36,0.00,,---,0.04,VWS V14.00,2013-03-03 00:59:00,
2013-03-02 18:00:00,40.8,15.3,0.00,ESE,118,0.0,2.7,35,0.00,,---,0.04,VWS V14.00,2013-03-03 01:00:00,
2013-03-02 18:01:00,38.5,13.9,0.00,ESE,118,4.9,5.8,36,0.00,,---,0.04,VWS V14.00,2013-03-03 01:01:00,
2013-03-02 18:02:00,40.6,15.1,0.00,East,81,0.0,2.7,35,0.00,,---,0.04,VWS V14.00,2013-03-03 01:02:00,
2013-03-02 18:03:00,40.6,15.1,0.00,East,81,0.0,0.0,35,0.00,,---,0.04,VWS V14.00,2013-03-03 01:03:00,
2013-03-02 18:04:00,38.3,13.7,0.00,SSE,153,3.1,3.6,36,0.00,,---,0.04,VWS V14.00,2013-03-03 01:04:00,
2013-03-02 18:05:00,40.5,15.0,0.00,East,82,0.0,0.0,35,0.00,,---,0.04,VWS V14.00,2013-03-03 01:05:00,
2013-03-02 18:06:00,38.1,13.5,0.00,SE,133,5.4,5.4,36,0.00,,---,0.04,VWS V14.00,2013-03-03 01:06:00,
2013-03-02 18:07:00,38.1,13.5,0.00,East,82,2.2,5.4,36,0.00,,---,0.04,VWS V14.00,2013-03-03 01:07:00,
2013-03-02 18:08:00,40.5,15.0,0.00,ESE,110,2.2,2.2,35,0.00,,---,0.04,VWS V14.00,2013-03-03 01:08:00,
2013-03-02 18:09:00,38.1,13.5,0.00,SE,130,5.8,5.8,36,0.00,,---,0.04,VWS V14.00,2013-03-03 01:09:00,
2013-03-02 18:10:00,40.3,14.8,0.00,ENE,63,2.2,2.2,35,0.00,,---,0.04,VWS V14.00,2013-03-03 01:10:00,
2013-03-02 18:11:00,37.9,13.4,0.00,ESE,107,2.7,4.0,36,0.00,,---,0.04,VWS V14.00,2013-03-03 01:11:00,
2013-03-02 18:12:00,37.9,13.4,0.00,ESE,117,3.6,3.6,36,0.00,,---,0.04,VWS V14.00,2013-03-03 01:12:00,
2013-03-02 18:13:00,40.3,14.8,0.00,East,91,0.0,0.0,35,0.00,,---,0.04,VWS V14.00,2013-03-03 01:13:00,
2013-03-02 18:14:00,37.9,13.4,0.00,East,100,5.4,7.2,36,0.00,,---,0.04,VWS V14.00,2013-03-03 01:14:00,
2013-03-02 18:15:00,39.9,14.5,0.00,ESE,116,0.0,0.0,35,0.00,,---,0.04,VWS V14.00,2013-03-03 01:15:00,
2013-03-02 18:16:00,39.9,14.5,0.00,ESE,116,0.0,0.0,35,0.00,,---,0.04,VWS V14.00,2013-03-03 01:16:00,
2013-03-02 18:17:00,37.8,13.2,0.00,ENE,78,3.6,3.6,36,0.00,,---,0.04,VWS V14.00,2013-03-03 01:17:00,
2013-03-02 18:18:00,39.9,14.5,0.00,ESE,116,0.0,0.0,35,0.00,,---,0.04,VWS V14.00,2013-03-03 01:18:00,
2013-03-02 18:19:00,37.6,13.1,0.00,SE,128,3.6,4.0,36,0.00,,---,0.04,VWS V14.00,2013-03-03 01:19:00,
2013-03-02 18:20:00,37.6,13.1,0.00,East,98,3.1,3.6,36,0.00,,---,0.04,VWS V14.00,2013-03-03 01:20:00,
2013-03-02 18:21:00,39.7,14.3,0.00,ESE,116,0.0,0.0,35,0.00,,---,0.04,VWS V14.00,2013-03-03 01:21:00,
2013-03-02 18:22:00,37.6,13.1,0.00,ESE,110,3.6,4.9,36,0.00,,---,0.04,VWS V14.00,2013-03-03 01:22:00,
2013-03-02 18:23:00,39.7,14.3,0.00,East,79,3.1,3.1,35,0.00,,---,0.04,VWS V14.00,2013-03-03 01:23:00,
2013-03-02 18:24:00,37.6,13.1,0.00,ESE,122,2.7,5.4,36,0.00,,---,0.04,VWS V14.00,2013-03-03 01:24:00,
2013-03-02 18:25:00,37.6,13.1,0.00,ESE,103,2.7,3.1,36,0.00,,---,0.04,VWS V14.00,2013-03-03 01:25:00,
2013-03-02 18:26:00,39.6,14.2,0.00,ESE,110,0.0,0.0,35,0.00,,---,0.04,VWS V14.00,2013-03-03 01:26:00,
2013-03-02 18:27:00,37.4,12.9,0.00,SE,124,4.9,6.7,36,0.00,,---,0.04,VWS V14.00,2013-03-03 01:27:00,
2013-03-02 18:28:00,39.4,14.0,0.00,ESE,111,0.0,0.0,35,0.00,,---,0.04,VWS V14.00,2013-03-03 01:28:00,
2013-03-02 18:29:00,37.4,12.9,0.00,ESE,114,4.0,6.3,36,0.00,,---,0.04,VWS V14.00,2013-03-03 01:29:00,
2013-03-02 18:30:00,37.4,12.9,0.00,ESE,123,4.0,5.8,36,0.00,,---,0.04,VWS V14.00,2013-03-03 01:30:00,
2013-03-02 18:31:00,39.4,14.0,0.00,East,92,0.0,2.7,35,0.00,,---,0.04,VWS V14.00,2013-03-03 01:31:00,
2013-03-02 18:32:00,37.2,12.7,0.00,ESE,118,3.6,4.0,36,0.00,,---,0.04,VWS V14.00,2013-03-03 01:32:00,
2013-03-02 18:33:00,39.2,13.9,0.00,ENE,62,0.0,5.4,35,0.00,,---,0.04,VWS V14.00,2013-03-03 01:33:00,
2013-03-02 18:34:00,37.2,12.7,0.00,North,2,0.0,4.9,36,0.00,,---,0.04,VWS V14.00,2013-03-03 01:34:00,
2013-03-02 18:35:00,37.2,12.7,0.00,North,4,2.2,2.2,36,0.00,,---,0.04,VWS V14.00,2013-03-03 01:35:00,
2013-03-02 18:36:00,39.0,13.7,0.00,ENE,75,3.1,3.1,35,0.00,,---,0.04,VWS V14.00,2013-03-03 01:36:00,
2013-03-02 18:37:00,37.0,12.6,0.00,ESE,113,3.6,4.9,36,0.00,,---,0.04,VWS V14.00,2013-03-03 01:37:00,
2013-03-02 18:38:00,38.8,13.5,0.00,SE,124,4.9,4.9,35,0.00,,---,0.04,VWS V14.00,2013-03-03 01:38:00,
2013-03-02 18:39:00,37.0,12.6,0.00,ESE,115,3.6,5.4,36,0.00,,---,0.04,VWS V14.00,2013-03-03 01:39:00,
2013-03-02 18:40:00,37.0,12.6,0.00,SE,129,0.0,3.6,36,0.00,,---,0.04,VWS V14.00,2013-03-03 01:40:00,
2013-03-02 18:41:00,38.8,14.2,0.00,SE,127,3.6,3.6,36,0.00,,---,0.04,VWS V14.00,2013-03-03 01:41:00,
2013-03-02 18:42:00,37.0,13.2,0.00,East,82,3.1,6.3,37,0.00,,---,0.04,VWS V14.00,2013-03-03 01:42:00,
2013-03-02 18:43:00,38.7,14.0,0.00,SE,131,3.1,3.1,36,0.00,,---,0.04,VWS V14.00,2013-03-03 01:43:00,
2013-03-02 18:44:00,36.9,12.4,0.00,ESE,111,2.7,4.0,36,0.00,,---,0.04,VWS V14.00,2013-03-03 01:44:00,
2013-03-02 18:45:00,36.9,12.4,0.00,ESE,109,0.0,3.1,36,0.00,,---,0.04,VWS V14.00,2013-03-03 01:45:00,
2013-03-02 18:46:00,38.5,13.9,0.00,East,96,3.1,3.1,36,0.00,,---,0.04,VWS V14.00,2013-03-03 01:46:00,
2013-03-02 18:47:00,36.9,12.4,0.00,East,99,3.6,5.8,36,0.00,,---,0.04,VWS V14.00,2013-03-03 01:47:00,
2013-03-02 18:48:00,38.5,13.9,0.00,ENE,68,3.6,3.6,36,0.00,,---,0.04,VWS V14.00,2013-03-03 01:48:00,
2013-03-02 18:49:00,38.5,13.9,0.00,ESE,108,4.9,5.8,36,0.00,,---,0.04,VWS V14.00,2013-03-03 01:49:00,
2013-03-02 18:50:00,36.9,12.4,0.00,East,97,3.6,5.4,36,0.00,,---,0.04,VWS V14.00,2013-03-03 01:50:00,
2013-03-02 18:51:00,38.3,13.7,0.00,ESE,104,3.6,3.6,36,0.00,,---,0.04,VWS V14.00,2013-03-03 01:51:00,
2013-03-02 18:52:00,36.7,12.3,0.00,ENE,73,4.0,5.8,36,0.00,,---,0.04,VWS V14.00,2013-03-03 01:52:00,
2013-03-02 18:53:00,38.1,13.5,0.00,ESE,106,5.4,5.4,36,0.00,,---,0.04,VWS V14.00,2013-03-03 01:53:00,
2013-03-02 18:54:00,38.1,13.5,0.00,ESE,103,4.0,4.0,36,0.00,,---,0.04,VWS V14.00,2013-03-03 01:54:00,
2013-03-02 18:55:00,36.7,12.3,0.00,ESE,114,2.7,4.5,36,0.00,,---,0.04,VWS V14.00,2013-03-03 01:55:00,
2013-03-02 18:56:00,38.1,13.5,0.00,ESE,105,4.0,4.0,36,0.00,,---,0.04,VWS V14.00,2013-03-03 01:56:00,
2013-03-02 18:57:00,36.7,12.3,0.00,ESE,118,2.7,2.7,36,0.00,,---,0.04,VWS V14.00,2013-03-03 01:57:00,
2013-03-02 18:58:00,38.1,13.5,0.00,East,83,4.9,5.8,36,0.00,,---,0.04,VWS V14.00,2013-03-03 01:58:00,
2013-03-02 18:59:00,37.9,13.4,0.00,SE,126,3.6,8.3,36,0.00,,---,0.04,VWS V14.00,2013-03-03 01:59:00,
2013-03-02 19:00:00,36.7,12.3,0.00,ESE,120,3.6,4.9,36,0.00,,---,0.04,VWS V14.00,2013-03-03 02:00:00,
2013-03-02 19:01:00,37.9,13.4,0.00,ESE,115,2.7,3.6,36,0.00,,---,0.04,VWS V14.00,2013-03-03 02:01:00,
2013-03-02 19:02:00,37.9,13.4,0.00,East,88,3.1,4.0,36,0.00,,---,0.04,VWS V14.00,2013-03-03 02:02:00,
2013-03-02 19:03:00,37.8,13.2,0.00,ENE,74,3.6,5.8,36,0.00,,---,0.04,VWS V14.00,2013-03-03 02:03:00,
2013-03-02 19:04:00,37.8,13.2,0.00,NE,44,3.6,3.6,36,0.00,,---,0.04,VWS V14.00,2013-03-03 02:04:00,
2013-03-02 19:05:00,36.5,12.1,0.00,East,84,2.7,3.1,36,0.00,,---,0.04,VWS V14.00,2013-03-03 02:05:00,
2013-03-02 19:06:00,37.8,13.2,0.00,ESE,106,2.7,3.6,36,0.00,,---,0.04,VWS V14.00,2013-03-03 02:06:00,
2013-03-02 19:07:00,37.6,13.1,0.00,ESE,112,4.0,4.0,36,0.00,,---,0.04,VWS V14.00,2013-03-03 02:07:00,
2013-03-02 19:08:00,37.6,13.1,0.00,SE,125,3.1,3.6,36,0.00,,---,0.04,VWS V14.00,2013-03-03 02:08:00,
2013-03-02 19:09:00,37.6,13.1,0.00,East,98,4.9,4.9,36,0.00,,---,0.04,VWS V14.00,2013-03-03 02:09:00,
2013-03-02 19:10:00,36.3,11.9,0.00,ESE,114,0.0,0.0,36,0.00,,---,0.04,VWS V14.00,2013-03-03 02:10:00,
2013-03-02 19:11:00,37.6,13.1,0.00,South,191,0.0,4.0,36,0.00,,---,0.04,VWS V14.00,2013-03-03 02:11:00,
2013-03-02 19:12:00,37.6,13.1,0.00,ESE,122,3.6,5.4,36,0.00,,---,0.04,VWS V14.00,2013-03-03 02:12:00,
2013-03-02 19:13:00,37.6,13.1,0.00,ESE,108,3.1,3.1,36,0.00,,---,0.04,VWS V14.00,2013-03-03 02:13:00,
2013-03-02 19:14:00,37.6,13.1,0.00,ESE,103,2.7,2.7,36,0.00,,---,0.04,VWS V14.00,2013-03-03 02:14:00,
2013-03-02 19:15:00,36.1,12.4,0.00,East,93,4.0,4.0,37,0.00,,---,0.04,VWS V14.00,2013-03-03 02:15:00,
2013-03-02 19:16:00,37.4,12.9,0.00,ENE,72,6.3,7.2,36,0.00,,---,0.04,VWS V14.00,2013-03-03 02:16:00,
2013-03-02 19:17:00,37.4,12.9,0.00,SSE,156,5.4,6.3,36,0.00,,---,0.04,VWS V14.00,2013-03-03 02:17:00,
2013-03-02 19:18:00,37.4,12.9,0.00,SE,146,2.7,5.8,36,0.00,,---,0.04,VWS V14.00,2013-03-03 02:18:00,
2013-03-02 19:19:00,37.4,12.9,0.00,ESE,122,4.0,4.0,36,0.00,,---,0.04,VWS V14.00,2013-03-03 02:19:00,
2013-03-02 19:20:00,36.1,12.4,0.00,ESE,109,0.0,0.0,37,0.00,,---,0.04,VWS V14.00,2013-03-03 02:20:00,
2013-03-02 19:21:00,37.2,12.7,0.00,SE,137,3.1,3.6,36,0.00,,---,0.04,VWS V14.00,2013-03-03 02:21:00,
2013-03-02 19:22:00,36.0,12.2,0.00,ESE,105,0.0,0.0,37,0.00,,---,0.04,VWS V14.00,2013-03-03 02:22:00,
2013-03-02 19:23:00,37.2,12.7,0.00,North,2,0.0,4.9,36,0.00,,---,0.04,VWS V14.00,2013-03-03 02:23:00,
2013-03-02 19:24:00,37.2,12.7,0.00,North,4,2.2,2.2,36,0.00,,---,0.04,VWS V14.00,2013-03-03 02:24:00,
2013-03-02 19:25:00,36.0,12.2,0.00,East,96,3.1,3.1,37,0.00,,---,0.04,VWS V14.00,2013-03-03 02:25:00,
2013-03-02 19:26:00,37.0,12.6,0.00,ESE,119,4.9,4.9,36,0.00,,---,0.04,VWS V14.00,2013-03-03 02:26:00,
2013-03-02 19:27:00,35.8,12.1,0.00,ESE,115,0.0,2.2,37,0.00,,---,0.04,VWS V14.00,2013-03-03 02:27:00,
2013-03-02 19:28:00,37.0,12.6,0.00,ESE,115,3.6,5.4,36,0.00,,---,0.04,VWS V14.00,2013-03-03 02:28:00,
2013-03-02 19:29:00,37.0,12.6,0.00,SE,129,0.0,0.0,36,0.00,,---,0.04,VWS V14.00,2013-03-03 02:29:00,
2013-03-02 19:30:00,35.8,12.1,0.00,ESE,103,4.0,5.8,37,0.00,,---,0.04,VWS V14.00,2013-03-03 02:30:00,
2013-03-02 19:31:00,36.9,12.4,0.00,East,98,4.0,4.0,36,0.00,,---,0.04,VWS V14.00,2013-03-03 02:31:00,
2013-03-02 19:32:00,35.8,12.1,0.00,ESE,102,5.8,6.3,37,0.00,,---,0.04,VWS V14.00,2013-03-03 02:32:00,
2013-03-02 19:33:00,36.9,12.4,0.00,ESE,111,2.7,2.7,36,0.00,,---,0.04,VWS V14.00,2013-03-03 02:33:00,
2013-03-02 19:34:00,36.9,12.4,0.00,ESE,109,0.0,0.0,36,0.00,,---,0.04,VWS V14.00,2013-03-03 02:34:00,
2013-03-02 19:35:00,35.6,11.9,0.00,SE,134,4.0,4.0,37,0.00,,---,0.04,VWS V14.00,2013-03-03 02:35:00,
2013-03-02 19:36:00,36.9,12.4,0.00,SE,127,3.1,5.4,36,0.00,,---,0.04,VWS V14.00,2013-03-03 02:36:00,
2013-03-02 19:37:00,35.6,11.9,0.00,ESE,113,2.2,4.9,37,0.00,,---,0.04,VWS V14.00,2013-03-03 02:37:00,
2013-03-02 19:38:00,36.9,12.4,0.00,ESE,118,2.7,2.7,36,0.00,,---,0.04,VWS V14.00,2013-03-03 02:38:00,
2013-03-02 19:39:00,36.9,12.4,0.00,East,79,3.6,4.5,36,0.00,,---,0.04,VWS V14.00,2013-03-03 02:39:00,
2013-03-02 19:40:00,35.6,11.9,0.00,ENE,77,0.0,4.9,37,0.00,,---,0.04,VWS V14.00,2013-03-03 02:40:00,
2013-03-02 19:41:00,36.7,12.3,0.00,SE,125,4.0,4.9,36,0.00,,---,0.04,VWS V14.00,2013-03-03 02:41:00,
2013-03-02 19:42:00,35.6,11.9,0.00,East,99,6.3,6.7,37,0.00,,---,0.04,VWS V14.00,2013-03-03 02:42:00,
2013-03-02 19:43:00,36.7,12.3,0.00,SE,130,2.7,2.7,36,0.00,,---,0.04,VWS V14.00,2013-03-03 02:43:00,
2013-03-02 19:44:00,36.7,12.3,0.00,SE,125,3.6,4.9,36,0.00,,---,0.04,VWS V14.00,2013-03-03 02:44:00,
2013-03-02 19:45:00,35.4,11.8,0.00,East,94,3.1,4.0,37,0.00,,---,0.04,VWS V14.00,2013-03-03 02:45:00,
2013-03-02 19:46:00,36.7,12.3,0.00,East,82,3.6,3.6,36,0.00,,---,0.04,VWS V14.00,2013-03-03 02:46:00,
2013-03-02 19:47:00,35.4,11.8,0.00,East,101,2.7,3.1,37,0.00,,---,0.04,VWS V14.00,2013-03-03 02:47:00,
2013-03-02 19:48:00,36.7,12.3,0.00,SE,138,0.0,0.0,36,0.00,,---,0.04,VWS V14.00,2013-03-03 02:48:00,
2013-03-02 19:49:00,36.7,12.3,0.00,SE,132,2.2,3.6,36,0.00,,---,0.04,VWS V14.00,2013-03-03 02:49:00,
2013-03-02 19:50:00,35.4,11.8,0.00,East,97,2.7,4.0,37,0.00,,---,0.04,VWS V14.00,2013-03-03 02:50:00,
2013-03-02 19:51:00,35.4,11.8,0.00,East,96,0.0,2.7,37,0.00,,---,0.04,VWS V14.00,2013-03-03 02:51:00,
2013-03-02 19:52:00,36.5,12.1,0.00,SSW,198,0.0,0.0,36,0.00,,---,0.04,VWS V14.00,2013-03-03 02:52:00,
2013-03-02 19:53:00,36.5,12.1,0.00,East,83,3.1,3.1,36,0.00,,---,0.04,VWS V14.00,2013-03-03 02:53:00,
2013-03-02 19:54:00,36.3,11.9,0.00,East,95,0.0,4.0,36,0.00,,---,0.04,VWS V14.00,2013-03-03 02:54:00,
2013-03-02 19:55:00,35.2,11.6,0.00,East,86,0.0,2.7,37,0.00,,---,0.04,VWS V14.00,2013-03-03 02:55:00,
2013-03-02 19:56:00,35.2,11.6,0.00,East,86,0.0,0.0,37,0.00,,---,0.04,VWS V14.00,2013-03-03 02:56:00,
2013-03-02 19:57:00,36.3,11.9,0.00,ESE,112,0.0,2.7,36,0.00,,---,0.04,VWS V14.00,2013-03-03 02:57:00,
2013-03-02 19:58:00,36.3,11.9,0.00,ESE,114,0.0,0.0,36,0.00,,---,0.04,VWS V14.00,2013-03-03 02:58:00,
2013-03-02 19:59:00,36.3,11.9,0.00,ESE,114,0.0,0.0,36,0.00,,---,0.04,VWS V14.00,2013-03-03 02:59:00,
2013-03-02 20:00:00,36.3,11.9,0.00,ESE,114,0.0,0.0,36,0.00,,---,0.04,VWS V14.00,2013-03-03 03:00:00,
2013-03-02 20:01:00,35.1,11.4,0.00,East,86,0.0,0.0,37,0.00,,---,0.04,VWS V14.00,2013-03-03 03:01:00,
2013-03-02 20:02:00,36.3,11.9,0.00,ESE,117,4.0,4.0,36,0.00,,---,0.04,VWS V14.00,2013-03-03 03:02:00,
2013-03-02 20:03:00,36.1,11.8,0.00,South,184,2.7,3.1,36,0.00,,---,0.04,VWS V14.00,2013-03-03 03:03:00,
2013-03-02 20:04:00,36.1,12.4,0.00,East,93,2.7,4.0,37,0.00,,---,0.04,VWS V14.00,2013-03-03 03:04:00,
2013-03-02 20:05:00,36.1,12.4,0.00,East,93,2.2,4.0,37,0.00,,---,0.04,VWS V14.00,2013-03-03 03:05:00,
2013-03-02 20:06:00,35.1,11.4,0.00,ESE,110,3.1,4.0,37,0.00,,---,0.04,VWS V14.00,2013-03-03 03:06:00,
2013-03-02 20:07:00,36.1,12.4,0.00,ESE,110,2.2,2.2,37,0.00,,---,0.04,VWS V14.00,2013-03-03 03:07:00,
2013-03-02 20:08:00,36.1,12.4,0.00,ESE,109,0.0,0.0,37,0.00,,---,0.04,VWS V14.00,2013-03-03 03:08:00,
2013-03-02 20:09:00,35.1,11.4,0.00,SE,126,2.2,3.1,37,0.00,,---,0.04,VWS V14.00,2013-03-03 03:09:00,
2013-03-02 20:10:00,36.1,12.4,0.00,ESE,105,0.0,0.0,37,0.00,,---,0.04,VWS V14.00,2013-03-03 03:10:00,
2013-03-02 20:11:00,35.1,11.4,0.00,SE,125,0.0,0.0,37,0.00,,---,0.04,VWS V14.00,2013-03-03 03:11:00,
2013-03-02 20:12:00,36.0,12.2,0.00,SE,137,0.0,2.7,37,0.00,,---,0.04,VWS V14.00,2013-03-03 03:12:00,
2013-03-02 20:13:00,36.0,12.2,0.00,SE,124,2.2,2.2,37,0.00,,---,0.04,VWS V14.00,2013-03-03 03:13:00,
2013-03-02 20:14:00,34.9,11.3,0.00,ESE,109,2.7,3.1,37,0.00,,---,0.04,VWS V14.00,2013-03-03 03:14:00,
2013-03-02 20:15:00,36.0,12.2,0.00,East,90,0.0,2.2,37,0.00,,---,0.04,VWS V14.00,2013-03-03 03:15:00,
2013-03-02 20:16:00,34.9,11.3,0.00,ESE,102,0.0,0.0,37,0.00,,---,0.04,VWS V14.00,2013-03-03 03:16:00,
2013-03-02 20:17:00,35.8,12.1,0.00,SE,139,2.7,3.1,37,0.00,,---,0.04,VWS V14.00,2013-03-03 03:17:00,
2013-03-02 20:18:00,35.8,12.1,0.00,East,79,5.4,5.4,37,0.00,,---,0.04,VWS V14.00,2013-03-03 03:18:00,
2013-03-02 20:19:00,34.9,11.3,0.00,ESE,105,0.0,0.0,37,0.00,,---,0.04,VWS V14.00,2013-03-03 03:19:00,
2013-03-02 20:20:00,35.8,12.1,0.00,East,92,4.9,4.9,37,0.00,,---,0.04,VWS V14.00,2013-03-03 03:20:00,
2013-03-02 20:21:00,34.9,11.3,0.00,SE,145,0.0,3.6,37,0.00,,---,0.04,VWS V14.00,2013-03-03 03:21:00,
2013-03-02 20:22:00,34.9,11.3,0.00,SE,145,0.0,0.0,37,0.00,,---,0.04,VWS V14.00,2013-03-03 03:22:00,
2013-03-02 20:23:00,35.8,12.1,0.00,East,91,4.0,4.9,37,0.00,,---,0.04,VWS V14.00,2013-03-03 03:23:00,
2013-03-02 20:24:00,34.7,11.1,0.00,SE,144,0.0,0.0,37,0.00,,---,0.04,VWS V14.00,2013-03-03 03:24:00,
2013-03-02 20:25:00,35.6,11.9,0.00,ESE,119,3.1,4.9,37,0.00,,---,0.04,VWS V14.00,2013-03-03 03:25:00,
2013-03-02 20:26:00,34.7,11.7,0.00,SE,144,0.0,0.0,38,0.00,,---,0.04,VWS V14.00,2013-03-03 03:26:00,
2013-03-02 20:27:00,34.7,11.1,0.00,SE,144,0.0,0.0,37,0.00,,---,0.04,VWS V14.00,2013-03-03 03:27:00,
2013-03-02 20:28:00,35.6,11.9,0.00,ESE,118,2.7,3.1,37,0.00,,---,0.04,VWS V14.00,2013-03-03 03:28:00,
2013-03-02 20:29:00,34.5,10.9,0.00,SSW,213,0.0,4.0,37,0.00,,---,0.04,VWS V14.00,2013-03-03 03:29:00,
2013-03-02 20:30:00,35.6,11.9,0.00,ESE,106,3.6,4.0,37,0.00,,---,0.04,VWS V14.00,2013-03-03 03:30:00,
2013-03-02 20:31:00,34.5,11.5,0.00,East,81,4.0,4.0,38,0.00,,---,0.04,VWS V14.00,2013-03-03 03:31:00,
2013-03-02 20:32:00,34.5,11.5,0.00,NE,55,5.8,5.8,38,0.00,,---,0.04,VWS V14.00,2013-03-03 03:32:00,
2013-03-02 20:33:00,35.4,11.8,0.00,ENE,75,0.0,2.2,37,0.00,,---,0.04,VWS V14.00,2013-03-03 03:33:00,
2013-03-02 20:34:00,34.5,11.5,0.00,East,100,2.2,8.3,38,0.00,,---,0.04,VWS V14.00,2013-03-03 03:34:00,
2013-03-02 20:35:00,35.4,11.8,0.00,NE,49,3.1,3.1,37,0.00,,---,0.04,VWS V14.00,2013-03-03 03:35:00,
2013-03-02 20:36:00,34.5,11.5,0.00,East,81,3.1,5.4,38,0.00,,---,0.04,VWS V14.00,2013-03-03 03:36:00,
2013-03-02 20:37:00,34.5,11.5,0.00,SE,126,3.1,3.6,38,0.00,,---,0.04,VWS V14.00,2013-03-03 03:37:00,
2013-03-02 20:38:00,35.4,11.8,0.00,ESE,106,4.0,4.0,37,0.00,,---,0.04,VWS V14.00,2013-03-03 03:38:00,
2013-03-02 20:39:00,34.3,11.4,0.00,ESE,112,2.2,3.6,38,0.00,,---,0.04,VWS V14.00,2013-03-03 03:39:00,
2013-03-02 20:40:00,35.2,11.6,0.00,East,99,0.0,0.0,37,0.00,,---,0.04,VWS V14.00,2013-03-03 03:40:00,
2013-03-02 20:41:00,34.3,11.4,0.00,SE,146,0.0,3.6,38,0.00,,---,0.04,VWS V14.00,2013-03-03 03:41:00,
2013-03-02 20:42:00,34.3,11.4,0.00,SSE,152,0.0,2.2,38,0.00,,---,0.04,VWS V14.00,2013-03-03 03:42:00,
2013-03-02 20:43:00,35.2,11.6,0.00,East,86,2.2,2.7,37,0.00,,---,0.04,VWS V14.00,2013-03-03 03:43:00,
2013-03-02 20:44:00,34.3,11.4,0.00,SSE,161,0.0,2.7,38,0.00,,---,0.04,VWS V14.00,2013-03-03 03:44:00,
2013-03-02 20:45:00,35.2,11.6,0.00,East,86,0.0,0.0,37,0.00,,---,0.04,VWS V14.00,2013-03-03 03:45:00,
2013-03-02 20:46:00,34.3,11.4,0.00,SE,131,3.6,3.6,38,0.00,,---,0.04,VWS V14.00,2013-03-03 03:46:00,
2013-03-02 20:47:00,34.3,11.4,0.00,ESE,117,0.0,6.3,38,0.00,,---,0.04,VWS V14.00,2013-03-03 03:47:00,
2013-03-02 20:48:00,35.2,11.6,0.00,East,86,0.0,0.0,37,0.00,,---,0.04,VWS V14.00,2013-03-03 03:48:00,
2013-03-02 20:49:00,34.3,11.4,0.00,SSE,160,2.2,2.2,38,0.00,,---,0.04,VWS V14.00,2013-03-03 03:49:00,
2013-03-02 20:50:00,35.1,11.4,0.00,East,86,0.0,0.0,37,0.00,,---,0.04,VWS V14.00,2013-03-03 03:50:00,
2013-03-02 20:51:00,35.1,11.4,0.00,East,96,0.0,0.0,37,0.00,,---,0.04,VWS V14.00,2013-03-03 03:51:00,
2013-03-02 20:52:00,34.2,11.2,0.00,East,92,3.1,5.8,38,0.00,,---,0.04,VWS V14.00,2013-03-03 03:52:00,
2013-03-02 20:53:00,35.1,11.4,0.00,East,91,3.1,3.1,37,0.00,,---,0.04,VWS V14.00,2013-03-03 03:53:00,
2013-03-02 20:54:00,34.2,11.2,0.00,East,98,0.0,3.6,38,0.00,,---,0.04,VWS V14.00,2013-03-03 03:54:00,
2013-03-02 20:55:00,35.1,11.4,0.00,ESE,109,0.0,3.1,37,0.00,,---,0.04,VWS V14.00,2013-03-03 03:55:00,
2013-03-02 20:56:00,35.1,11.4,0.00,East,96,2.2,2.2,37,0.00,,---,0.04,VWS V14.00,2013-03-03 03:56:00,
2013-03-02 20:57:00,34.0,11.1,0.00,ESE,122,0.0,0.0,38,0.00,,---,0.04,VWS V14.00,2013-03-03 03:57:00,
2013-03-02 20:58:00,35.1,11.4,0.00,SE,145,0.0,3.1,37,0.00,,---,0.04,VWS V14.00,2013-03-03 03:58:00,
2013-03-02 20:59:00,35.1,11.4,0.00,SE,145,0.0,3.1,37,0.00,,---,0.04,VWS V14.00,2013-03-03 03:59:00,
2013-03-02 21:00:00,35.1,11.4,0.00,East,96,3.1,3.1,37,0.00,,---,0.04,VWS V14.00,2013-03-03 04:00:00,
2013-03-02 21:01:00,34.9,11.3,0.00,ESE,111,0.0,3.6,37,0.00,,---,0.04,VWS V14.00,2013-03-03 04:01:00,
2013-03-02 21:02:00,34.0,11.1,0.00,ESE,121,3.1,3.6,38,0.00,,---,0.04,VWS V14.00,2013-03-03 04:02:00,
2013-03-02 21:03:00,34.9,11.3,0.00,ESE,102,2.2,2.7,37,0.00,,---,0.04,VWS V14.00,2013-03-03 04:03:00,
2013-03-02 21:04:00,34.9,11.3,0.00,ESE,103,0.0,0.0,37,0.00,,---,0.04,VWS V14.00,2013-03-03 04:04:00,
2013-03-02 21:05:00,34.9,11.3,0.00,East,101,0.0,0.0,37,0.00,,---,0.04,VWS V14.00,2013-03-03 04:05:00,
2013-03-02 21:06:00,34.9,11.3,0.00,ESE,104,0.0,0.0,37,0.00,,---,0.04,VWS V14.00,2013-03-03 04:06:00,
2013-03-02 21:07:00,34.0,11.1,0.00,ESE,103,0.0,3.1,38,0.00,,---,0.04,VWS V14.00,2013-03-03 04:07:00,
2013-03-02 21:08:00,34.0,11.1,0.00,ESE,103,0.0,2.7,38,0.00,,---,0.04,VWS V14.00,2013-03-03 04:08:00,
2013-03-02 21:09:00,34.9,11.3,0.00,SE,145,2.7,3.6,37,0.00,,---,0.04,VWS V14.00,2013-03-03 04:09:00,
2013-03-02 21:10:00,33.8,10.9,0.00,SE,131,0.0,3.6,38,0.00,,---,0.04,VWS V14.00,2013-03-03 04:10:00,
2013-03-02 21:11:00,34.9,11.3,0.00,SE,145,0.0,0.0,37,0.00,,---,0.04,VWS V14.00,2013-03-03 04:11:00,
2013-03-02 21:12:00,33.8,10.9,0.00,ESE,123,0.0,3.1,38,0.00,,---,0.04,VWS V14.00,2013-03-03 04:12:00,
2013-03-02 21:13:00,33.8,10.9,0.00,SE,124,0.0,0.0,38,0.00,,---,0.04,VWS V14.00,2013-03-03 04:13:00,
2013-03-02 21:14:00,34.7,11.1,0.00,SE,144,0.0,0.0,37,0.00,,---,0.04,VWS V14.00,2013-03-03 04:14:00,
2013-03-02 21:15:00,33.8,10.9,0.00,ESE,117,0.0,0.0,38,0.00,,---,0.04,VWS V14.00,2013-03-03 04:15:00,
2013-03-02 21:16:00,34.7,11.1,0.00,SE,144,0.0,0.0,37,0.00,,---,0.04,VWS V14.00,2013-03-03 04:16:00,
2013-03-02 21:17:00,34.7,11.7,0.00,ESE,113,3.6,3.6,38,0.00,,---,0.04,VWS V14.00,2013-03-03 04:17:00,
2013-03-02 21:18:00,33.8,10.9,0.00,SSE,154,0.0,0.0,38,0.00,,---,0.04,VWS V14.00,2013-03-03 04:18:00,
2013-03-02 21:19:00,34.5,10.9,0.00,ESE,103,3.1,3.1,37,0.00,,---,0.04,VWS V14.00,2013-03-03 04:19:00,
2013-03-02 21:20:00,33.6,11.3,0.00,SSW,193,0.0,0.0,39,0.00,,---,0.04,VWS V14.00,2013-03-03 04:20:00,
2013-03-02 21:21:00,34.5,11.5,0.00,SE,131,3.6,5.8,38,0.00,,---,0.04,VWS V14.00,2013-03-03 04:21:00,
2013-03-02 21:22:00,34.5,11.5,0.00,ENE,78,2.7,5.8,38,0.00,,---,0.04,VWS V14.00,2013-03-03 04:22:00,
2013-03-02 21:23:00,33.6,11.3,0.00,ESE,110,2.2,3.1,39,0.00,,---,0.04,VWS V14.00,2013-03-03 04:23:00,
2013-03-02 21:24:00,34.5,11.5,0.00,East,96,3.6,3.6,38,0.00,,---,0.04,VWS V14.00,2013-03-03 04:24:00,
2013-03-02 21:25:00,34.5,11.5,0.00,East,81,3.1,5.4,38,0.00,,---,0.04,VWS V14.00,2013-03-03 04:25:00,
2013-03-02 21:26:00,34.5,11.5,0.00,SE,130,2.7,3.1,38,0.00,,---,0.04,VWS V14.00,2013-03-03 04:26:00,
2013-03-02 21:27:00,34.3,11.4,0.00,NE,56,3.6,3.6,38,0.00,,---,0.04,VWS V14.00,2013-03-03 04:27:00,
2013-03-02 21:28:00,33.6,11.3,0.00,SE,130,0.0,0.0,39,0.00,,---,0.04,VWS V14.00,2013-03-03 04:28:00,
2013-03-02 21:29:00,34.3,11.4,0.00,South,189,0.0,0.0,38,0.00,,---,0.04,VWS V14.00,2013-03-03 04:29:00,
2013-03-02 21:30:00,34.3,11.4,0.00,SSE,149,2.7,3.6,38,0.00,,---,0.04,VWS V14.00,2013-03-03 04:30:00,
2013-03-02 21:31:00,34.3,11.4,0.00,SSE,152,0.0,0.0,38,0.00,,---,0.04,VWS V14.00,2013-03-03 04:31:00,
2013-03-02 21:32:00,34.3,11.4,0.00,SSE,159,2.2,2.7,38,0.00,,---,0.04,VWS V14.00,2013-03-03 04:32:00,
2013-03-02 21:33:00,33.4,11.2,0.00,East,92,2.2,2.2,39,0.00,,---,0.04,VWS V14.00,2013-03-03 04:33:00,
2013-03-02 21:34:00,34.3,11.4,0.00,SE,130,0.0,3.1,38,0.00,,---,0.04,VWS V14.00,2013-03-03 04:34:00,
2013-03-02 21:35:00,34.3,11.4,0.00,SE,131,3.6,3.6,38,0.00,,---,0.04,VWS V14.00,2013-03-03 04:35:00,
2013-03-02 21:36:00,34.3,11.4,0.00,SE,134,0.0,0.0,38,0.00,,---,0.04,VWS V14.00,2013-03-03 04:36:00,
2013-03-02 21:37:00,34.3,11.4,0.00,SE,132,0.0,0.0,38,0.00,,---,0.04,VWS V14.00,2013-03-03 04:37:00,
2013-03-02 21:38:00,33.3,11.0,0.00,SE,134,3.1,3.6,39,0.00,,---,0.04,VWS V14.00,2013-03-03 04:38:00,
2013-03-02 21:39:00,34.2,11.2,0.00,SE,125,2.7,3.6,38,0.00,,---,0.04,VWS V14.00,2013-03-03 04:39:00,
2013-03-02 21:40:00,34.2,11.2,0.00,SE,137,4.0,4.9,38,0.00,,---,0.04,VWS V14.00,2013-03-03 04:40:00,
2013-03-02 21:41:00,34.2,11.2,0.00,East,98,0.0,3.1,38,0.00,,---,0.04,VWS V14.00,2013-03-03 04:41:00,
2013-03-02 21:42:00,34.2,11.2,0.00,East,96,3.6,3.6,38,0.00,,---,0.04,VWS V14.00,2013-03-03 04:42:00,
2013-03-02 21:43:00,33.3,11.0,0.00,East,89,2.2,2.2,39,0.00,,---,0.04,VWS V14.00,2013-03-03 04:43:00,
2013-03-02 21:44:00,34.2,11.2,0.00,NE,51,3.1,3.1,38,0.00,,---,0.04,VWS V14.00,2013-03-03 04:44:00,
2013-03-02 21:45:00,34.2,11.2,0.00,East,88,0.0,0.0,38,0.00,,---,0.04,VWS V14.00,2013-03-03 04:45:00,
2013-03-02 21:46:00,34.0,11.1,0.00,ESE,121,0.0,0.0,38,0.00,,---,0.04,VWS V14.00,2013-03-03 04:46:00,
2013-03-02 21:47:00,34.0,11.1,0.00,ESE,120,2.2,2.2,38,0.00,,---,0.04,VWS V14.00,2013-03-03 04:47:00,
2013-03-02 21:48:00,33.1,10.8,0.00,ESE,122,2.7,3.1,39,0.00,,---,0.04,VWS V14.00,2013-03-03 04:48:00,
2013-03-02 21:49:00,34.0,11.1,0.00,ESE,109,2.2,2.2,38,0.00,,---,0.04,VWS V14.00,2013-03-03 04:49:00,
2013-03-02 21:50:00,34.0,11.1,0.00,ESE,108,2.7,2.7,38,0.00,,---,0.04,VWS V14.00,2013-03-03 04:50:00,
2013-03-02 21:51:00,33.1,10.8,0.00,ESE,120,2.2,2.2,39,0.00,,---,0.04,VWS V14.00,2013-03-03 04:51:00,
2013-03-02 21:52:00,34.0,11.1,0.00,ESE,120,0.0,3.1,38,0.00,,---,0.04,VWS V14.00,2013-03-03 04:52:00,
2013-03-02 21:53:00,33.1,10.8,0.00,ESE,110,0.0,2.7,39,0.00,,---,0.04,VWS V14.00,2013-03-03 04:53:00,
2013-03-02 21:54:00,34.0,11.1,0.00,ESE,116,2.2,3.1,38,0.00,,---,0.04,VWS V14.00,2013-03-03 04:54:00,
2013-03-02 21:55:00,34.0,11.1,0.00,ESE,104,2.7,2.7,38,0.00,,---,0.04,VWS V14.00,2013-03-03 04:55:00,
2013-03-02 21:56:00,33.1,10.8,0.00,NNW,333,0.0,3.1,39,0.00,,---,0.04,VWS V14.00,2013-03-03 04:56:00,
2013-03-02 21:57:00,34.0,11.1,0.00,ESE,103,0.0,2.7,38,0.00,,---,0.04,VWS V14.00,2013-03-03 04:57:00,
2013-03-02 21:58:00,33.1,10.8,0.00,NW,322,0.0,0.0,39,0.00,,---,0.04,VWS V14.00,2013-03-03 04:58:00,
2013-03-02 21:59:00,33.8,10.9,0.00,SSW,193,0.0,0.0,38,0.00,,---,0.04,VWS V14.00,2013-03-03 04:59:00,
2013-03-02 22:00:00,33.8,10.9,0.00,ESE,120,2.7,3.1,38,0.00,,---,0.04,VWS V14.00,2013-03-03 05:00:00,
2013-03-02 22:01:00,33.1,10.8,0.00,NNW,330,0.0,0.0,39,0.00,,---,0.04,VWS V14.00,2013-03-03 05:01:00,
2013-03-02 22:02:00,33.1,10.8,0.00,NNW,330,0.0,0.0,39,0.00,,---,0.04,VWS V14.00,2013-03-03 05:02:00,
2013-03-02 22:03:00,32.9,10.7,0.00,NNW,330,0.0,0.0,39,0.00,,---,0.04,VWS V14.00,2013-03-03 05:03:00,
2013-03-02 22:04:00,32.9,10.7,0.00,NNW,330,0.0,0.0,39,0.00,,---,0.04,VWS V14.00,2013-03-03 05:04:00,
2013-03-02 22:05:00,33.8,10.9,0.00,ESE,117,2.7,2.7,38,0.00,,---,0.04,VWS V14.00,2013-03-03 05:05:00,
2013-03-02 22:06:00,32.9,10.7,0.00,NW,309,0.0,0.0,39,0.00,,---,0.04,VWS V14.00,2013-03-03 05:06:00,
2013-03-02 22:07:00,32.9,10.7,0.00,NW,307,0.0,0.0,39,0.00,,---,0.04,VWS V14.00,2013-03-03 05:07:00,
2013-03-02 22:08:00,32.9,10.7,0.00,NW,307,0.0,0.0,39,0.00,,---,0.04,VWS V14.00,2013-03-03 05:08:00,
2013-03-02 22:09:00,32.9,10.7,0.00,NW,307,0.0,0.0,39,0.00,,---,0.04,VWS V14.00,2013-03-03 05:09:00,
2013-03-02 22:10:00,33.6,11.3,0.00,South,191,0.0,0.0,39,0.00,,---,0.04,VWS V14.00,2013-03-03 05:10:00,
2013-03-02 22:11:00,32.7,10.5,0.00,NW,306,0.0,0.0,39,0.00,,---,0.04,VWS V14.00,2013-03-03 05:11:00,
2013-03-02 22:12:00,32.7,10.5,0.00,NW,306,0.0,0.0,39,0.00,,---,0.04,VWS V14.00,2013-03-03 05:12:00,
2013-03-02 22:13:00,32.7,10.5,0.00,NW,307,0.0,0.0,39,0.00,,---,0.04,VWS V14.00,2013-03-03 05:13:00,
2013-03-02 22:14:00,32.7,10.5,0.00,NW,307,0.0,0.0,39,0.00,,---,0.04,VWS V14.00,2013-03-03 05:14:00,
2013-03-02 22:15:00,33.6,11.3,0.00,SE,130,0.0,0.0,39,0.00,,---,0.04,VWS V14.00,2013-03-03 05:15:00,
2013-03-02 22:16:00,33.6,11.3,0.00,SE,130,0.0,0.0,39,0.00,,---,0.04,VWS V14.00,2013-03-03 05:16:00,
2013-03-02 22:17:00,32.7,10.5,0.00,NW,307,0.0,0.0,39,0.00,,---,0.04,VWS V14.00,2013-03-03 05:17:00,
2013-03-02 22:18:00,32.7,10.5,0.00,NW,306,0.0,0.0,39,0.00,,---,0.04,VWS V14.00,2013-03-03 05:18:00,
2013-03-02 22:19:00,32.7,10.5,0.00,NW,307,0.0,0.0,39,0.00,,---,0.04,VWS V14.00,2013-03-03 05:19:00,
2013-03-02 22:20:00,33.4,11.2,0.00,East,92,0.0,2.2,39,0.00,,---,0.04,VWS V14.00,2013-03-03 05:20:00,
2013-03-02 22:21:00,33.4,11.2,0.00,East,92,0.0,0.0,39,0.00,,---,0.04,VWS V14.00,2013-03-03 05:21:00,
2013-03-02 22:22:00,32.5,9.8,0.00,NW,307,3.1,3.1,38,0.00,,---,0.04,VWS V14.00,2013-03-03 05:22:00,
2013-03-02 22:23:00,32.5,9.8,0.00,NW,305,4.0,4.0,38,0.00,,---,0.04,VWS V14.00,2013-03-03 05:23:00,
2013-03-02 22:24:00,32.5,9.8,0.00,WNW,296,2.2,4.0,38,0.00,,---,0.04,VWS V14.00,2013-03-03 05:24:00,
2013-03-02 22:25:00,33.4,11.2,0.00,ESE,103,3.6,3.6,39,0.00,,---,0.04,VWS V14.00,2013-03-03 05:25:00,
2013-03-02 22:26:00,33.3,11.0,0.00,ESE,109,3.1,3.6,39,0.00,,---,0.04,VWS V14.00,2013-03-03 05:26:00,
2013-03-02 22:27:00,32.7,9.9,0.00,NW,311,2.7,3.6,38,0.00,,---,0.04,VWS V14.00,2013-03-03 05:27:00,
2013-03-02 22:28:00,32.7,9.9,0.00,NW,313,0.0,2.7,38,0.00,,---,0.04,VWS V14.00,2013-03-03 05:28:00,
2013-03-02 22:29:00,32.7,9.9,0.00,NW,306,0.0,0.0,38,0.00,,---,0.04,VWS V14.00,2013-03-03 05:29:00,
2013-03-02 22:30:00,33.3,11.0,0.00,ESE,114,2.7,2.7,39,0.00,,---,0.04,VWS V14.00,2013-03-03 05:30:00,
2013-03-02 22:31:00,33.3,11.0,0.00,ESE,114,2.2,2.7,39,0.00,,---,0.04,VWS V14.00,2013-03-03 05:31:00,
2013-03-02 22:32:00,32.7,9.9,0.00,WNW,285,0.0,0.0,38,0.00,,---,0.04,VWS V14.00,2013-03-03 05:32:00,
2013-03-02 22:33:00,32.7,9.9,0.00,WNW,288,0.0,0.0,38,0.00,,---,0.04,VWS V14.00,2013-03-03 05:33:00,
2013-03-02 22:34:00,32.7,9.9,0.00,WNW,287,0.0,0.0,38,0.00,,---,0.04,VWS V14.00,2013-03-03 05:34:00,
2013-03-02 22:35:00,33.3,11.0,0.00,East,90,3.6,5.8,39,0.00,,---,0.04,VWS V14.00,2013-03-03 05:35:00,
2013-03-02 22:36:00,33.3,11.0,0.00,East,90,3.6,5.8,39,0.00,,---,0.04,VWS V14.00,2013-03-03 05:36:00,
2013-03-02 22:37:00,32.5,9.8,0.00,WNW,293,0.0,2.7,38,0.00,,---,0.04,VWS V14.00,2013-03-03 05:37:00,
2013-03-02 22:38:00,32.5,9.8,0.00,WNW,292,0.0,0.0,38,0.00,,---,0.04,VWS V14.00,2013-03-03 05:38:00,
2013-03-02 22:39:00,32.5,9.8,0.00,WNW,286,0.0,0.0,38,0.00,,---,0.04,VWS V14.00,2013-03-03 05:39:00,
2013-03-02 22:40:00,33.1,10.8,0.00,ESE,111,2.2,2.2,39,0.00,,---,0.04,VWS V14.00,2013-03-03 05:40:00,
2013-03-02 22:41:00,33.1,10.8,0.00,ESE,108,2.7,2.7,39,0.00,,---,0.04,VWS V14.00,2013-03-03 05:41:00,
2013-03-02 22:42:00,32.5,9.8,0.00,WSW,247,0.0,0.0,38,0.00,,---,0.04,VWS V14.00,2013-03-03 05:42:00,
2013-03-02 22:43:00,32.5,9.8,0.00,SSW,201,0.0,0.0,38,0.00,,---,0.04,VWS V14.00,2013-03-03 05:43:00,
2013-03-02 22:44:00,32.5,9.8,0.00,SSE,168,2.2,2.2,38,0.00,,---,0.04,VWS V14.00,2013-03-03 05:44:00,
2013-03-02 22:45:00,32.5,9.8,0.00,SSE,168,0.0,2.2,38,0.00,,---,0.04,VWS V14.00,2013-03-03 05:45:00,
2013-03-02 22:46:00,33.1,10.8,0.00,NNW,333,0.0,0.0,39,0.00,,---,0.04,VWS V14.00,2013-03-03 05:46:00,
2013-03-02 22:47:00,32.4,9.6,0.00,South,169,0.0,0.0,38,0.00,,---,0.04,VWS V14.00,2013-03-03 05:47:00,
2013-03-02 22:48:00,32.4,9.6,0.00,South,169,0.0,0.0,38,0.00,,---,0.04,VWS V14.00,2013-03-03 05:48:00,
2013-03-02 22:49:00,32.4,9.6,0.00,SSE,153,2.7,2.7,38,0.00,,---,0.04,VWS V14.00,2013-03-03 05:49:00,
2013-03-02 22:50:00,32.4,9.6,0.00,ESE,103,2.2,4.0,38,0.00,,---,0.04,VWS V14.00,2013-03-03 05:50:00,
2013-03-02 22:51:00,33.1,10.8,0.00,NNW,330,0.0,0.0,39,0.00,,---,0.04,VWS V14.00,2013-03-03 05:51:00,
2013-03-02 22:52:00,32.2,9.4,0.00,East,93,0.0,2.2,38,0.00,,---,0.04,VWS V14.00,2013-03-03 05:52:00,
2013-03-02 22:53:00,32.2,9.4,0.00,East,93,0.0,0.0,38,0.00,,---,0.04,VWS V14.00,2013-03-03 05:53:00,
2013-03-02 22:54:00,32.2,9.4,0.00,East,93,0.0,0.0,38,0.00,,---,0.04,VWS V14.00,2013-03-03 05:54:00,
2013-03-02 22:55:00,32.2,9.4,0.00,East,93,0.0,0.0,38,0.00,,---,0.04,VWS V14.00,2013-03-03 05:55:00,
2013-03-02 22:56:00,32.9,10.7,0.00,NW,307,0.0,0.0,39,0.00,,---,0.04,VWS V14.00,2013-03-03 05:56:00,
2013-03-02 22:57:00,32.2,9.4,0.00,East,93,0.0,0.0,38,0.00,,---,0.04,VWS V14.00,2013-03-03 05:57:00,
2013-03-02 22:58:00,32.2,9.4,0.00,East,95,4.0,4.0,38,0.00,,---,0.04,VWS V14.00,2013-03-03 05:58:00,
2013-03-02 22:59:00,32.0,9.3,0.00,East,95,0.0,4.0,38,0.00,,---,0.04,VWS V14.00,2013-03-03 05:59:00,
2013-03-02 23:00:00,32.0,9.3,0.00,East,95,0.0,0.0,38,0.00,,---,0.00,VWS V14.00,2013-03-03 06:00:00,
2013-03-02 23:01:00,32.7,10.5,0.00,NW,306,0.0,0.0,39,0.00,,---,0.04,VWS V14.00,2013-03-03 06:01:00,
2013-03-02 23:02:00,32.0,9.3,0.00,East,91,0.0,0.0,38,0.00,,---,0.00,VWS V14.00,2013-03-03 06:02:00,
2013-03-02 23:03:00,32.0,9.3,0.00,East,95,0.0,0.0,38,0.00,,---,0.00,VWS V14.00,2013-03-03 06:03:00,
2013-03-02 23:04:00,31.8,9.1,0.00,East,95,0.0,0.0,38,0.00,,---,0.00,VWS V14.00,2013-03-03 06:04:00,
2013-03-02 23:05:00,31.8,9.1,0.00,East,95,0.0,0.0,38,0.00,,---,0.00,VWS V14.00,2013-03-03 06:05:00,
2013-03-02 23:06:00,32.7,10.5,0.00,NW,307,0.0,0.0,39,0.00,,---,0.04,VWS V14.00,2013-03-03 06:06:00,
2013-03-02 23:07:00,31.8,9.1,0.00,East,93,0.0,0.0,38,0.00,,---,0.00,VWS V14.00,2013-03-03 06:07:00,
2013-03-02 23:08:00,31.6,9.0,0.00,East,93,0.0,0.0,38,0.00,,---,0.00,VWS V14.00,2013-03-03 06:08:00,
2013-03-02 23:09:00,31.6,9.0,0.00,East,95,0.0,0.0,38,0.00,,---,0.00,VWS V14.00,2013-03-03 06:09:00,
2013-03-02 23:10:00,31.6,9.0,0.00,East,95,0.0,0.0,38,0.00,,---,0.00,VWS V14.00,2013-03-03 06:10:00,
2013-03-02 23:11:00,32.5,9.8,0.00,NW,307,2.7,2.7,38,0.00,,---,0.04,VWS V14.00,2013-03-03 06:11:00,
2013-03-02 23:12:00,31.5,8.8,0.00,East,94,0.0,0.0,38,0.00,,---,0.00,VWS V14.00,2013-03-03 06:12:00,
2013-03-02 23:13:00,31.5,8.8,0.00,East,95,0.0,0.0,38,0.00,,---,0.00,VWS V14.00,2013-03-03 06:13:00,
2013-03-02 23:14:00,31.5,8.8,0.00,East,95,0.0,0.0,38,0.00,,---,0.00,VWS V14.00,2013-03-03 06:14:00,
2013-03-02 23:15:00,31.5,8.8,0.00,East,95,0.0,0.0,38,0.00,,---,0.00,VWS V14.00,2013-03-03 06:15:00,
2013-03-02 23:16:00,32.7,9.9,0.00,NW,311,2.7,2.7,38,0.00,,---,0.04,VWS V14.00,2013-03-03 06:16:00,
2013-03-02 23:17:00,31.5,8.8,0.00,East,95,0.0,0.0,38,0.00,,---,0.00,VWS V14.00,2013-03-03 06:17:00,
2013-03-02 23:18:00,31.3,8.6,0.00,East,95,0.0,0.0,38,0.00,,---,0.00,VWS V14.00,2013-03-03 06:18:00,
2013-03-02 23:19:00,31.3,8.6,0.00,South,174,0.0,0.0,38,0.00,,---,0.00,VWS V14.00,2013-03-03 06:19:00,
2013-03-02 23:20:00,31.3,8.6,0.00,West,267,0.0,0.0,38,0.00,,---,0.00,VWS V14.00,2013-03-03 06:20:00,
2013-03-02 23:21:00,32.7,9.9,0.00,WNW,285,0.0,0.0,38,0.00,,---,0.04,VWS V14.00,2013-03-03 06:21:00,
2013-03-02 23:22:00,32.7,9.9,0.00,WNW,288,0.0,0.0,38,0.00,,---,0.04,VWS V14.00,2013-03-03 06:22:00,
2013-03-02 23:25:00,31.1,8.5,0.00,WNW,287,0.0,0.0,38,0.00,,---,0.00,VWS V14.00,2013-03-03 06:25:00,
2013-03-02 23:26:00,32.5,9.8,0.00,WNW,293,0.0,0.0,38,0.00,,---,0.04,VWS V14.00,2013-03-03 06:26:00,
2013-03-02 23:27:00,32.5,9.8,0.00,WNW,292,0.0,0.0,38,0.00,,---,0.04,VWS V14.00,2013-03-03 06:27:00,
2013-03-02 23:28:00,31.1,8.5,0.00,WNW,287,0.0,0.0,38,0.00,,---,0.00,VWS V14.00,2013-03-03 06:28:00,
2013-03-02 23:29:00,31.1,8.5,0.00,WNW,287,0.0,0.0,38,0.00,,---,0.00,VWS V14.00,2013-03-03 06:29:00,
2013-03-02 23:30:00,31.1,8.5,0.00,WNW,291,0.0,0.0,38,0.00,,---,0.00,VWS V14.00,2013-03-03 06:30:00,
2013-03-02 23:31:00,32.5,9.8,0.00,SSW,201,0.0,0.0,38,0.00,,---,0.04,VWS V14.00,2013-03-03 06:31:00,
2013-03-02 23:32:00,32.5,9.8,0.00,SSW,201,0.0,0.0,38,0.00,,---,0.04,VWS V14.00,2013-03-03 06:32:00,
2013-03-02 23:33:00,31.1,8.5,0.00,WNW,291,0.0,0.0,38,0.00,,---,0.00,VWS V14.00,2013-03-03 06:33:00,
2013-03-02 23:34:00,31.1,8.5,0.00,WNW,290,0.0,0.0,38,0.00,,---,0.00,VWS V14.00,2013-03-03 06:34:00,
2013-03-02 23:35:00,30.9,8.3,0.00,WNW,289,0.0,0.0,38,0.00,,---,0.00,VWS V14.00,2013-03-03 06:35:00,
2013-03-02 23:36:00,32.4,9.6,0.00,South,169,0.0,0.0,38,0.00,,---,0.04,VWS V14.00,2013-03-03 06:36:00,
2013-03-02 23:37:00,32.4,9.6,0.00,South,169,0.0,0.0,38,0.00,,---,0.04,VWS V14.00,2013-03-03 06:37:00,
2013-03-02 23:38:00,30.9,8.3,0.00,WNW,291,0.0,0.0,38,0.00,,---,0.00,VWS V14.00,2013-03-03 06:38:00,
2013-03-02 23:39:00,30.9,8.3,0.00,WNW,291,0.0,0.0,38,0.00,,---,0.00,VWS V14.00,2013-03-03 06:39:00,
2013-03-02 23:40:00,30.7,8.1,0.00,WNW,291,0.0,0.0,38,0.00,,---,0.00,VWS V14.00,2013-03-03 06:40:00,
2013-03-02 23:41:00,32.2,9.4,0.00,East,93,0.0,0.0,38,0.00,,---,0.04,VWS V14.00,2013-03-03 06:41:00,
2013-03-02 23:42:00,32.2,9.4,0.00,East,93,0.0,0.0,38,0.00,,---,0.04,VWS V14.00,2013-03-03 06:42:00,
2013-03-02 23:43:00,30.7,8.1,0.00,WNW,291,0.0,0.0,38,0.00,,---,0.00,VWS V14.00,2013-03-03 06:43:00,
2013-03-02 23:44:00,30.7,8.1,0.00,WNW,291,0.0,0.0,38,0.00,,---,0.00,VWS V14.00,2013-03-03 06:44:00,
2013-03-02 23:45:00,30.6,8.0,0.00,WNW,291,0.0,0.0,38,0.00,,---,0.00,VWS V14.00,2013-03-03 06:45:00,
2013-03-02 23:46:00,32.2,9.4,0.00,East,86,3.1,3.1,38,0.00,,---,0.04,VWS V14.00,2013-03-03 06:46:00,
2013-03-02 23:47:00,32.2,9.4,0.00,East,86,3.1,3.1,38,0.00,,---,0.04,VWS V14.00,2013-03-03 06:47:00,
2013-03-02 23:48:00,30.6,8.0,0.00,WNW,291,0.0,0.0,38,0.00,,---,0.00,VWS V14.00,2013-03-03 06:48:00,
2013-03-02 23:49:00,30.6,8.0,0.00,WNW,291,0.0,0.0,38,0.00,,---,0.00,VWS V14.00,2013-03-03 06:49:00,
2013-03-02 23:50:00,30.4,7.8,0.00,WNW,291,0.0,0.0,38,0.00,,---,0.00,VWS V14.00,2013-03-03 06:50:00,
2013-03-02 23:51:00,30.4,7.8,0.00,WNW,291,2.7,2.7,38,0.00,,---,0.00,VWS V14.00,2013-03-03 06:51:00,
2013-03-02 23:52:00,32.0,9.3,0.00,East,95,0.0,0.0,38,0.00,,---,0.00,VWS V14.00,2013-03-03 06:52:00,
2013-03-02 23:53:00,30.4,7.8,0.00,WNW,291,2.7,2.7,38,0.00,,---,0.00,VWS V14.00,2013-03-03 06:53:00,
2013-03-02 23:54:00,30.4,7.8,0.00,WNW,291,0.0,2.7,38,0.00,,---,0.00,VWS V14.00,2013-03-03 06:54:00,
2013-03-02 23:55:00,30.4,7.8,0.00,WNW,291,0.0,0.0,38,0.00,,---,0.00,VWS V14.00,2013-03-03 06:55:00,
2013-03-02 23:56:00,30.4,7.8,0.00,WNW,291,0.0,0.0,38,0.00,,---,0.00,VWS V14.00,2013-03-03 06:56:00,
2013-03-02 23:57:00,31.6,9.0,0.00,East,93,0.0,0.0,38,0.00,,---,0.00,VWS V14.00,2013-03-03 06:57:00,
2013-03-02 23:58:00,31.6,9.0,0.00,East,95,0.0,0.0,38,0.00,,---,0.00,VWS V14.00,2013-03-03 06:58:00,
2013-03-02 23:59:00,30.2,8.2,0.00,WNW,291,0.0,0.0,39,0.00,,---,0.00,VWS V14.00,2013-03-03 06:59:00,